     2              OBSERVATION DATA    GPS                 RINEX VERSION / TYPE
ASRINEXO V2.7.2 UX SOPAC 02-MAR- 0 15:45                    PGM / RUN BY / DATE
                                                            COMMENT
Original Marker Name: POIN                                  COMMENT
Campaign Name: HPGN 1991                                    COMMENT
4-Character Station Name: PTRY                              COMMENT
6-Character Antenna Code: ASHL12                            COMMENT
Vertical Measurement Point: BAS                             COMMENT
Vertical Offset to Rinex Ref. Point: 0.0000                 COMMENT
Radial Measurement Point: RRP                               COMMENT
Radial Offset to Rinex Ref. Point: 0.0000                   COMMENT
Antenna Height from Field Measurement: 2.2150 m             COMMENT
Additional Antenna Identification Info.:                    COMMENT
Original Ashtech L1/L2                                      COMMENT
Original XYZ: 6378137.0000 0.0000 0.0000                    COMMENT
New XYZ position is based on association with SCEC monument COMMENT
E1F8F8X6+0011. Position of that monument is believed to be  COMMENT
valid to within 1 m horizontally; vertical accuracy         COMMENT
should be no worse than 3-times this value.                 COMMENT
                                                            COMMENT
Revised Rinex header created by UCSD GPS archive for        COMMENT
GSAC on 17-Mar-2000 (2000:077) 22:24:18 GMT                 COMMENT
For assistance contact dagnew@ucsd.edu or hjohnson@ucsd.edu COMMENT
                                                            COMMENT
POINT REYES NCMN 7251                                       MARKER NAME
TAT CALIF DEPT TRANSPORTATION                               OBSERVER / AGENCY
572 ASHTECH L-XII 6A                                        REC # / TYPE / VERS
642 ASHTECH GEODETIC L                                      ANT # / TYPE
 -2732333.1017 -4217634.7679  3914491.1193                  APPROX POSITION XYZ
        2.2150        0.0000        0.0000                  ANTENNA: DELTA H/E/N
     1     2     0                                          WAVELENGTH FACT L1/2
     3    C1    L1    L2                                    # / TYPES OF OBSERV
     0                                                      INTERVAL
  1991     5    21    17    51   45.000000                  TIME OF FIRST OBS
  1991     5    21    23    52    0.000000                  TIME OF LAST OBS
                                                            END OF HEADER
 91  5 21 17 51 45.0000000  0  1 19
  29779977.054           0.394 3         0.040 2
 91  5 21 17 52  0.0000000  0  1 19
  29778117.140       -9762.968 3     -7607.784 3
 91  5 21 17 52 15.0000000  0  1 19
  29776270.715      -19480.643 3    -15179.997 3
 91  5 21 17 52 30.0000000  0  1 19
  29774441.679      -29091.158 3    -22668.725 2
 91  5 21 17 52 45.0000000  0  2 19 11
  21378446.010         551.533 3       429.531 2
  25113942.776           0.923 2         0.056 1
 91  5 21 17 53  0.0000000  0  2 19 11
  21376681.435       -8733.103 3     -6805.265 2
  25105154.367      -46191.419 2    -35993.859 1
 91  5 21 17 53 15.0000000  0  2 19 11
  29769139.552        1202.913 3       937.027 2
  33490599.442        1976.643 2      1539.634 1
 91  5 21 17 53 30.0000000  0  2 19 11
  29767443.330       -7706.456 3     -6005.354 3
  33481896.469      -43812.243 2    -34139.894 1
 91  5 21 17 53 45.0000000  0  2 19 11
  21371597.550        1240.460 3       966.147 2
  25079012.160         743.019 2       578.310 1
 91  5 21 17 54  0.0000000  0  2 19 11
  21369973.571       -7281.997 3     -5674.748 3
  25070369.748      -44629.082 2    -34776.553 1
 91  5 21 17 54 15.0000000  0  2 19 11
  29762580.391        1902.587 3      1481.876 2
  33455988.698        2730.264 2      2126.931 1
 91  5 21 17 54 30.0000000  0  2 19 11
  29761031.667       -6229.031 3     -4854.459 2
  33447435.622      -42219.239 2    -32898.594 1
 91  5 21 17 54 45.0000000  0  3 19 11 18
  21365329.187        1974.768 3      1537.914 2
  25044711.410        1535.326 2      1195.790 1
  21448637.914           0.009 4         0.027 3
 91  5 21 17 55  0.0000000  0  3 19 11 18
  21363859.905       -5751.431 3     -4482.509 2
  25036248.866      -42975.352 2    -33487.840 1
  21451238.319       13675.840 4     10656.496 3
 91  5 21 17 55 15.0000000  0  3 19 11 18
  29756617.521        2613.076 3      2035.083 2
  33422024.911        3500.781 2      2727.251 1
  29848070.107         -25.138 4       -19.424 2
 91  5 21 17 55 30.0000000  0  3 19 11 18
  29755219.287       -4744.057 3     -3697.769 2
  33413619.333      -40605.542 2    -31641.274 1
  29850758.950       14116.740 4     11000.195 3
 91  5 21 17 55 45.0000000  0  3 19 11 18
  21359661.313        2677.240 3      2085.247 3
  25011070.793        2304.440 2      1794.986 1
  21459309.926         883.673 4       688.716 2
 91  5 21 17 56  0.0000000  0  3 19 11 18
  21358325.141       -4330.072 3     -3375.011 2
  25002751.559      -41414.887 2    -32271.886 1
  21462089.301       15472.306 4     12056.451 3
 91  5 21 17 56 15.0000000  0  3 19 11 18
  29751217.062        3240.655 3      2524.357 2
  33388674.500        4195.418 2      3268.532 1
  29859087.188         776.855 4       605.451 3
 91  5 21 17 56 30.0000000  0  3 19 11 18
  29749948.937       -3429.133 4     -2672.886 2
  33380422.118      -39147.648 2    -30505.246 1
  29861946.607       15799.839 4     12311.645 3
 91  5 21 17 56 45.0000000  0  3 19 11 18
  21354518.376        3303.260 3      2573.334 3
  24978012.080        3003.220 2      2339.349 1
  21470658.274        1692.014 4      1318.661 3
 91  5 21 17 57  0.0000000  0  3 19 11 18
  21353311.414       -3048.098 3     -2375.781 2
  24969820.852      -39980.646 2    -31154.438 1
  21473600.136       17130.401 4     13348.542 2
 91  5 21 17 57 15.0000000  0  3 19 11 18
  29746323.846        3819.428 3      2975.481 3
  33355882.601        4846.765 2      3776.200 1
  29870756.603        1530.458 4      1192.861 3
 91  5 21 17 57 30.0000000  0  3 19 11 18
  29745178.344       -2224.716 3     -1734.258 3
  33347771.722      -37787.500 2    -29445.215 1
  29873774.312       17372.867 4     13537.558 3
 91  5 21 17 57 45.0000000  0  5 19 11 16 02 18
  21649653.254        3877.020 3      3020.169 3
  25245277.059        3658.169 2      2850.291 1
  25102055.112           0.870 2         0.301 1
  24860579.182           0.572 2         0.210 1
  21782435.529        2445.174 4      1905.510 3
 91  5 21 17 58  0.0000000  0  5 19 11 16 02 18
  21648554.815       -1879.477 3     -1465.424 2
  25237222.832      -38644.283 2    -30112.596 1
  25094483.550      -39764.326 2    -30985.505 1
  24849971.020      -55715.409 2    -43414.736 1
  21785522.796       18672.265 4     14549.956 3
 91  5 21 17 58 15.0000000  0  5 19 11 16 02 18
  20748110.780       -7497.477 3     -5843.097 2
  24329835.006      -80792.645 2    -62955.399 1
  24187576.887      -79345.584 2    -61828.016 1
  23940018.466     -111318.985 2    -86742.091 1
  20889268.061       35090.887 4     27343.652 2
 91  5 21 17 58 30.0000000  0  5 19 11 16 02 18
  20747073.496      -12978.774 3    -10114.247 2
  24321840.137     -122773.604 2    -95667.743 1
  24180085.675     -118731.209 2    -92518.034 1
  23929463.379     -166791.886 2   -129967.667 1
  20892429.368       51690.502 4     40278.374 2
 91  5 21 17 58 45.0000000  0  5 19 11 16 02 18
  20746049.107      -18324.575 3    -14279.804 2
  24313878.257     -164595.416 2   -128256.124 1
  24172614.547     -157928.822 2   -123061.637 1
  23918920.280     -222145.208 2   -173100.043 1
  20895624.564       68474.108 4     53356.477 3
 91  5 21 17 59  0.0000000  0  5 19 11 16 02 18
  20745061.294      -23536.138 3    -18340.778 2
  24305950.544     -206258.815 2   -160721.053 1
  24165203.981     -196939.305 2   -153459.329 1
  23908411.951     -277379.831 2   -216139.914 1
  20898851.223       85440.620 4     66577.108 3
 91  5 21 17 59 15.0000000  0  6 19 11 16 02 18 06
  20744091.768      -28616.464 3    -22299.474 3
  24298058.203     -247766.462 2   -193064.643 1
  24157806.598     -235765.578 2   -183713.548 1
  23897924.309     -332498.746 2   -259089.622 1
  20902113.567      102586.863 4     79937.785 3
  24889089.740           0.655 2         0.133 1
 91  5 21 17 59 30.0000000  0  6 19 11 16 02 18 06
  20743153.418      -33564.300 3    -26154.943 2
  24290188.050     -289116.498 2   -225285.314 1
  24150456.584     -274405.884 2   -213822.831 1
  23887464.849     -387500.081 2   -301947.723 1
  20905409.783      119914.247 4     93439.600 3
  24880660.779      -44249.247 2    -34480.254 1
 91  5 21 17 59 45.0000000  0  6 19 11 16 02 18 06
  20742236.950      -38380.391 3    -29907.753 2
  24282350.582     -330309.281 2   -257383.502 1
  24143135.057     -312860.715 2   -243787.640 1
  23877014.691     -442384.392 2   -344714.639 1
  20908742.879      137421.983 4    107081.958 3
  24872256.693      -88396.568 2    -68880.673 1
 91  5 21 18  0  0.0000000  0  6 19 11 16 02 18 06
  20741345.366      -43062.160 3    -33555.903 2
  24274540.388     -371341.804 2   -289356.813 1
  24135855.498     -351127.207 2   -273605.640 1
  23866593.298     -497148.993 2   -387388.278 1
  20912109.244      155112.555 4    120866.790 3
  24863890.090     -132438.741 2   -103199.122 1
 91  5 21 18  0 15.0000000  0  6 19 11 16 02 18 06
  20740474.766      -47614.591 3    -37103.252 2
  24266764.370     -412218.630 2   -321208.759 1
  24128607.716     -389210.089 2   -303280.518 1
  23856196.197     -551798.612 2   -429972.325 1
  20915511.591      172980.868 4    134790.116 2
  24855517.179     -176380.752 2   -137439.548 1
 91  5 21 18  0 30.0000000  0  6 19 11 16 02 18 06
  20739644.947      -52036.295 3    -40548.757 2
  24259012.338     -452937.925 2   -352937.933 1
  24121396.806     -427107.559 2   -332811.049 1
  23845817.985     -606331.646 2   -472465.495 1
  20918946.318      191028.326 4    148853.035 3
  24847185.651     -220221.214 2   -171600.832 1
 91  5 21 18  0 45.0000000  0  6 19 11 16 02 18 06
  20738816.916      -56327.983 3    -43892.933 2
  24251292.082     -493500.081 2   -384544.779 1
  24114220.369     -464820.223 2   -362197.455 1
  23835466.752     -660748.544 2   -514868.175 1
  20922409.820      209254.116 4    163054.917 3
  24838864.908     -263960.955 2   -205683.658 1
 91  5 21 18  1  0.0000000  0  6 19 11 16 02 18 06
  20738026.064      -60487.831 3    -47134.376 2
  24243606.596     -533902.685 2   -416027.246 1
  24107082.017     -502345.883 2   -391438.208 1
  23825129.609     -715047.188 2   -557178.699 1
  20925915.891      227660.374 4    177397.415 2
  24830560.663     -307597.910 2   -239686.339 1
 91  5 21 18  1 15.0000000  0  6 19 11 16 02 18 06
  20737259.493      -64519.388 3    -50275.868 2
  24235946.605     -574148.993 2   -447387.931 1
  24099972.737     -539687.923 2   -420535.854 1
  23814818.546     -769230.910 2   -599399.701 1
  20929452.239      246243.242 4    191877.542 3
  24822272.595     -351135.809 2   -273611.838 1
 91  5 21 18  1 30.0000000  0  6 19 11 16 02 18 06
  20736519.011      -68423.976 3    -53318.408 2
  24228320.781     -614239.837 2   -478627.442 1
  24092901.830     -576847.218 2   -449491.129 1
  23804531.468     -823300.872 2   -641532.022 1
  20933021.271      265001.683 4    206494.484 3
  24814014.218     -394575.799 2   -307461.198 1
 91  5 21 18  1 45.0000000  0  6 19 11 16 02 18 06
  20735793.509      -72200.345 3    -56261.046 2
  24220719.248     -654173.553 2   -509744.546 1
  24085870.797     -613822.291 2   -478302.852 1
  23794261.779     -877255.464 2   -683574.476 1
  20936623.580      283936.926 4    221249.178 3
  24805757.927     -437916.641 2   -341233.172 1
 91  5 21 18  2  0.0000000  0  6 19 11 16 02 18 06
  20735102.786      -75849.163 3    -59104.291 2
  24213148.288     -693950.270 2   -540739.350 1
  24078856.255     -650613.241 2   -506971.056 1
  23784017.568     -931095.057 2   -725527.348 1
  20940262.457      303048.233 4    236141.064 3
  24797519.932     -481158.775 2   -374928.218 1
 91  5 21 18  2 15.0000000  0  6 19 11 16 02 18 06
  20734436.345      -79369.322 3    -61847.282 2
  24205609.707     -733568.453 2   -571610.534 1
  24071905.563     -687218.896 2   -535494.909 1
  23773793.747     -984818.372 2   -767389.598 1
  20943929.515      322336.589 4    251170.908 3
  24789316.114     -524301.193 2   -408545.673 1
 91  5 21 18  2 30.0000000  0  6 19 11 16 02 18 06
  20733785.198      -82764.952 3    -64493.232 2
  24198103.801     -773031.822 2   -602361.213 1
  24064966.274     -723643.149 2   -563877.433 1
  23763589.113    -1038429.226 2   -809164.188 1
  20947636.456      341797.996 4    266335.601 3
  24781129.082     -567347.934 2   -442088.486 1
 91  5 21 18  2 45.0000000  0  6 19 11 16 02 18 06
  20733166.431      -86033.685 3    -67040.303 2
  24190619.481     -812337.564 2   -632988.962 1
  24058070.446     -759883.053 2   -592116.292 1
  23753406.954    -1091925.022 2   -850849.124 1
  20951373.368      361434.808 4    281636.974 3
  24772951.640     -610296.694 2   -475554.946 1
 91  5 21 18  3  0.0000000  0  6 19 11 16 02 18 06
  20732568.342      -89179.833 3    -69491.855 2
  24183170.838     -851489.546 2   -663496.935 1
  24051204.300     -795942.948 2   -620214.890 1
  23743251.486    -1145309.973 2   -892447.739 1
  20955142.955      381242.505 4    297071.512 3
  24764796.089     -653151.655 2   -508948.347 1
 91  5 21 18  3 15.0000000  0  6 19 11 16 02 18 06
  20731990.042      -92201.283 3    -71846.238 2
  24175749.479     -890485.206 2   -693883.039 1
  24044373.229     -831820.177 2   -648171.100 1
  23733117.900    -1198581.702 2   -933958.074 1
  20958944.023      401223.320 4    312640.944 2
  24756661.818     -695910.786 2   -542267.032 1
 91  5 21 18  3 30.0000000  0  6 19 11 16 02 18 06
  20731445.316      -95102.913 3    -74107.259 2
  24168364.686     -929329.110 2   -724150.957 1
  24037588.924     -867519.605 2   -675988.783 1
  23723000.508    -1251744.787 2   -975383.791 1
  20962777.173      421372.100 4    328341.268 2
  24748534.745     -738578.979 2   -575514.847 1
 91  5 21 18  3 45.0000000  0  6 19 11 16 02 18 06
  20730911.689      -97881.441 3    -76272.358 2
  24160999.691     -968017.571 2   -754297.756 1
  24030823.510     -903037.810 2   -703665.307 1
  23712909.196    -1304795.723 2  -1016722.095 1
  20966643.897      441692.043 4    344174.950 2
  24740431.955     -781152.881 2   -608689.255 1
 91  5 21 18  4  0.0000000  0  6 19 11 16 02 18 06
  20730403.538     -100540.600 3    -78344.437 3
  24153655.968    -1006553.778 2   -784325.944 1
  24024104.862     -938377.951 2   -731203.047 1
  23702829.872    -1357738.018 2  -1057975.778 1
  20970541.499      462179.738 4    360139.352 2
  24732347.452     -823636.187 2   -641792.997 1
 91  5 21 18  4 15.0000000  0  6 19 11 16 02 18 06
  20729921.476     -103078.116 3    -80321.729 2
  24146356.629    -1044935.075 2   -814233.321 1
  24017411.089     -973537.515 2   -758600.079 1
  23692774.829    -1410569.055 2  -1099142.728 1
  20974475.074      482837.545 4    376236.315 2
  24724284.230     -866026.525 2   -674824.311 1
 91  5 21 18  4 30.0000000  0  6 19 11 16 02 18 06
  20729465.493     -105496.128 3    -82205.901 2
  24139083.361    -1083163.339 2   -844021.519 1
  24010755.698    -1008518.436 2   -785857.945 1
  23682743.179    -1463290.944 2  -1140224.627 1
  20978437.426      503662.844 4    392463.788 2
  24716237.507     -908326.232 2   -707785.158 1
 91  5 21 18  4 45.0000000  0  6 19 11 16 02 18 06
  20729023.898     -107789.399 3    -83992.869 2
  24131840.971    -1121232.871 2   -873686.012 1
  24004136.281    -1043315.165 2   -812972.189 1
  23672733.106    -1515898.220 2  -1181217.210 1
  20982432.766      524661.209 4    408826.105 2
  24708206.367     -950529.920 2   -740671.030 1
 91  5 21 18  5  0.0000000  0  6 19 11 16 02 18 06
  20728611.383     -109963.093 3    -85686.661 2
  24124626.466    -1159148.141 2   -903230.348 1
  23997547.140    -1077932.433 2   -839946.685 1
  23662739.829    -1568395.488 2  -1222124.081 1
  20986460.172      545827.651 4    425319.408 2
  24700187.216     -992642.594 2   -773486.020 1
 91  5 21 18  5 15.0000000  0  6 19 11 16 02 18 06
  20728220.455     -112017.955 3    -87287.867 2
  24117441.042    -1196909.577 2   -932654.743 1
  23990995.778    -1112370.949 2   -866781.848 1
  23652771.427    -1620783.421 2  -1262945.754 1
  20990519.965      567161.073 4    441942.830 2
  24692198.349    -1034665.077 2   -806230.823 1
 91  5 21 18  5 30.0000000  0  6 19 11 16 02 18 06
  20727853.206     -113953.377 3    -88795.996 2
  24110282.902    -1234516.153 2   -961958.484 1
  23984471.997    -1146629.796 2   -893477.065 1
  23642824.017    -1673061.179 2  -1303681.572 1
  20994615.130      588661.929 4    458696.712 3
  24684217.570    -1076596.753 2   -838905.079 1
 91  5 21 18  5 45.0000000  0  6 19 11 16 02 18 06
  20727507.849     -115767.530 3    -90209.616 2
  24103158.327    -1271965.588 2   -991139.828 1
  23977990.480    -1180706.690 2   -920030.428 1
  23632900.584    -1725226.764 2  -1344330.005 2
  20998734.882      610332.342 4    475582.714 2
  24676257.785    -1118435.700 2   -871506.801 1
 91  5 21 18  6  0.0000000  0  6 19 11 16 02 18 06
  20727187.070     -117461.932 3    -91529.941 2
  24096061.044    -1309259.049 2  -1020199.653 1
  23971544.344    -1214602.938 2   -946443.058 1
  23622990.641    -1777281.482 2  -1384892.043 1
  21002889.700      632170.588 4    492599.488 2
  24668309.088    -1160183.395 2   -904037.702 1
 91  5 21 18  6 15.0000000  0  6 19 11 16 02 18 06
  20726885.173     -119038.089 3    -92758.111 2
  24088986.543    -1346397.614 2  -1049138.737 1
  23965124.592    -1248319.558 2   -972715.742 1
  23613103.190    -1829226.646 2  -1425368.698 1
  21007077.805      654175.133 4    509745.852 3
  24660380.774    -1201841.351 2   -936498.470 1
 91  5 21 18  6 30.0000000  0  6 19 11 16 02 18 06
  20726606.667     -120495.215 3    -93893.546 3
  24081954.009    -1383380.286 2  -1077956.322 1
  23958752.505    -1281855.792 2   -998847.858 1
  23603243.311    -1881061.405 2  -1465759.325 1
  21011298.280      676346.573 4    527022.268 2
  24652471.646    -1243409.075 2   -968888.838 1
 91  5 21 18  6 45.0000000  0  6 19 11 16 02 18 06
  20726353.945     -121834.999 3    -94937.535 3
  24074945.460    -1420208.109 2  -1106653.294 1
  23952396.002    -1315213.135 2  -1024840.549 1
  23593400.830    -1932786.895 2  -1506064.828 1
  21015549.336      698683.340 4    544427.509 2
  24644573.913    -1284887.928 2  -1001209.883 1
 91  5 21 18  7  0.0000000  0  6 19 11 16 02 18 06
  20726119.806     -123057.052 3    -95889.798 2
  24067973.784    -1456880.196 2  -1135228.894 1
  23946082.670    -1348390.866 2  -1050693.281 1
  23583576.026    -1984402.508 2  -1546284.671 1
  21019829.778      721185.601 4    561961.707 2
  24636695.968    -1326277.515 2  -1033461.467 1
 91  5 21 18  7 15.0000000  0  6 19 11 16 02 18 06
  20725911.154     -124164.577 3    -96752.812 3
  24061016.801    -1493399.344 2  -1163685.353 1
  23939797.520    -1381391.841 2  -1076408.313 1
  23573778.810    -2035911.150 2  -1586421.186 1
  21024142.888      743850.463 4    579622.612 2
  24628841.704    -1367580.899 2  -1065645.845 1
 91  5 21 18  7 30.0000000  0  6 19 11 16 02 18 06
  20725719.280     -125154.604 3    -97524.266 3
  24054103.287    -1529762.319 2  -1192020.081 1
  23933557.340    -1414213.001 2  -1101983.231 1
  23563996.288    -2087309.788 2  -1626471.981 1
  21028488.978      766680.790 4    597412.436 2
  24621001.539    -1408795.332 2  -1097760.834
 91  5 21 18  7 45.0000000  0  6 19 11 16 02 18 06
  20725556.793     -126029.651 3    -98206.121 2
  24047207.467    -1565971.223 2  -1220234.753 1
  23927336.948    -1446856.372 2  -1127419.570 1
  23554232.045    -2138600.744 2  -1666438.884 1
  21032862.055      789673.864 4    615329.082 3
  24613174.253    -1449923.247 2  -1129808.422 1
 91  5 21 18  8  0.0000000  0  6 19 11 16 02 18 06
  20725411.694     -126791.519 3    -98799.784 3
  24040345.518    -1602027.359 2  -1248330.441 1
  23921162.721    -1479323.745 2  -1152718.831 1
  23544496.586    -2189785.386 2  -1706322.938 1
  21037269.002      812827.902 4    633371.157 2
  24605362.558    -1490966.448 2  -1161789.963 1
 91  5 21 18  8 15.0000000  0  6 19 11 16 02 18 06
  20725288.181     -127438.759 3    -99304.146 2
  24033521.043    -1637928.774 2  -1276305.540 1
  23915018.176    -1511613.193 2  -1177879.448 1
  23534774.311    -2240862.078 2  -1746122.885 1
  21041705.633      836144.452 4    651539.872 2
  24597572.153    -1531923.242 2  -1193704.375 1
 91  5 21 18  8 30.0000000  0  6 19 11 16 02 18 06
  20725182.651     -127971.971 3    -99719.648 3
  24026714.254    -1673675.734 2  -1304160.257 1
  23908909.003    -1543724.921 2  -1202901.469 1
  23525078.123    -2291831.131 2  -1785838.966 1
  21046174.634      859622.655 4    669834.552 2
  24589790.743    -1572794.433 2  -1225551.900 1
 91  5 21 18  8 45.0000000  0  6 19 11 16 02 18 06
  20725105.312     -128395.884 3   -100049.970 2
  24019938.343    -1709272.427 2  -1331897.910 1
  23902837.313    -1575663.523 2  -1227788.702 1
  23515401.428    -2342697.135 2  -1825474.704 1
  21050670.325      883258.257 4    688251.869 2
  24582026.713    -1613584.448 2  -1257336.240 1
 91  5 21 18  9  0.0000000  0  6 19 11 16 02 18 06
  20725042.953     -128707.894 3   -100293.093 3
  24013198.109    -1744715.929 2  -1359516.170 1
  23896793.195    -1607425.950 2  -1252538.654 1
  23505736.721    -2393457.127 2  -1865027.866 1
  21055200.785      907053.479 4    706793.556 2
  24574287.873    -1654290.884 2  -1289055.440 1
 91  5 21 18  9 15.0000000  0  6 19 11 16 02 18 06
  20725004.275     -128910.205 3   -100450.741 2
  24006481.861    -1780008.075 2  -1387016.549 1
  23890782.659    -1639014.212 2  -1277152.836 1
  23496093.896    -2444113.372 2  -1904500.201 1
  21059758.232      931005.939 4    725457.785 2
  24566554.731    -1694915.924 2  -1320711.151 1
 91  5 21 18  9 30.0000000  0  6 19 11 16 02 18 06
  20724991.091     -129001.772 3   -100522.108 2
  23999796.787    -1815147.554 2  -1414397.870 1
  23884803.299    -1670427.395 2  -1301630.557 1
  23486475.048    -2494664.587 2  -1943890.678 1
  21064347.456      955116.538 4    744245.223 2
  24558837.171    -1735458.574 2  -1352302.784 1
 91  5 21 18  9 45.0000000  0  6 19 11 16 02 18 06
  20724992.889     -128982.598 3   -100507.163 2
  23993132.697    -1850133.840 2  -1441659.832 1
  23878857.512    -1701664.936 2  -1325971.526 1
  23476875.396    -2545110.360 2  -1983198.998 1
  21068965.761      979385.609 4    763156.156 2
  24551136.102    -1775918.748 2  -1383830.069 1
 91  5 21 18 10  0.0000000  0  6 19 11 16 02 18 06
  20725022.563     -128853.505 3   -100406.592 3
  23986503.691    -1884967.459 2  -1468802.911 1
  23872946.504    -1732727.551 2  -1350176.137 1
  23467295.828    -2595451.413 2  -2022425.718 1
  21073611.646     1003812.141 4    782189.794 2
  24543460.214    -1816297.266 2  -1415293.714 1
 91  5 21 18 10 15.0000000  0  6 19 11 16 02 18 06
  20725063.937     -128616.587 3   -100221.990 3
  23979906.453    -1919649.926 2  -1495828.139 1
  23867060.982    -1763617.070 2  -1374245.867 1
  23457738.745    -2645689.577 2  -2061572.267 1
  21078291.402     1028393.985 4    801344.437 2
  24535784.631    -1856596.248 2  -1446695.388 1
 91  5 21 18 10 30.0000000  0  6 19 11 16 02 18 06
  20725126.889     -128273.182 3    -99954.412 3
  23973333.209    -1954182.162 2  -1522736.358 1
  23861223.421    -1794334.618 2  -1398181.597 1
  23448199.051    -2695826.121 2  -2100639.610 1
  21082999.942     1053129.525 4    820618.848 2
  24528139.019    -1896816.922 2  -1478036.070 1
 91  5 21 18 10 45.0000000  0  6 19 11 16 02 18 06
  20725214.131     -127821.133 3    -99602.172 3
  23966791.140    -1988561.803 2  -1549525.670 1
  23855406.548    -1824877.724 2  -1421981.385 1
  23438675.246    -2745858.702 2  -2139625.924 1
  21087736.960     1078020.879 4    840014.677 2
  24520492.220    -1936957.280 2  -1509314.256 1
 91  5 21 18 11  0.0000000  0  6 19 11 16 02 18 06
  20725324.460     -127260.588 3    -99165.393 2
  23960278.448    -2022788.384 2  -1576195.690 1
  23849632.542    -1855246.209 2  -1445645.112 1
  23429169.423    -2795787.002 2  -2178531.052 1
  21092500.364     1103068.134 4    859531.981 2
  24512875.985    -1977017.260 2  -1540529.728 1
 91  5 21 18 11 15.0000000  0  6 19 11 16 02 18 06
  20725446.472     -126593.972 3    -98645.958 3
  23953791.234    -2056864.053 2  -1602748.155 1
  23843887.023    -1885442.285 2  -1469174.573 1
  23419692.088    -2845613.230 2  -2217356.612 1
  21097295.544     1128268.737 4    879168.768 2
  24505258.258    -2016999.404 2  -1571684.524 1
 91  5 21 18 11 30.0000000  0  6 19 11 16 02 18 06
  20725598.464     -125822.527 3    -98044.849 3
  23947338.501    -2090789.700 2  -1629183.648 1
  23838168.176    -1915467.063 2  -1492570.411 1
  23410231.234    -2895338.572 2  -2256103.527 1
  21102120.704     1153621.111 4    898923.829 2
  24497666.916    -2056904.999 2  -1602779.745 1
 91  5 21 18 11 45.0000000  0  6 19 11 16 02 18 06
  20725762.155     -124944.809 3    -97360.922 3
  23940912.153    -2124563.383 2  -1655500.761 1
  23832492.510    -1945318.706 2  -1515831.396 1
  23400786.269    -2944961.229 2  -2294770.482 1
  21106973.444     1179126.845 4    918798.392 2
  24490087.266    -2096732.524 2  -1633814.069 1
 91  5 21 18 12  0.0000000  0  6 19 11 16 02 18 06
  20725950.120     -123962.918 3    -96595.830 3
  23934508.586    -2158186.942 2  -1681700.921 1
  23826831.529    -1974999.461 2  -1538959.234 1
  23391365.891    -2994483.117 2  -2333358.890 1
  21111857.061     1204783.855 4    938790.815 2
  24482518.705    -2136484.094 2  -1664789.215 1
 91  5 21 18 12 15.0000000  0  6 19 11 16 02 18 06
  20726155.483     -122876.052 3    -95748.925 3
  23928141.892    -2191659.184 2  -1707783.136 1
  23821222.113    -2004508.256 2  -1561953.069 1
  23381964.403    -3043903.266 2  -2371868.019 1
  21116765.869     1230592.688 3    958901.558 2
  24474973.528    -2176158.848 2  -1695704.527 1
 91  5 21 18 12 30.0000000  0  6 19 11 16 02 18 06
  20726385.722     -121685.216 3    -94821.014 3
  23921807.279    -2224980.764 2  -1733747.961 1
  23815636.682    -2033845.690 2  -1584813.399 1
  23372574.301    -3093222.480 2  -2410298.516 1
  21121710.048     1256552.347 3    979129.823 2
  24467441.246    -2215757.796 2  -1726560.760 1
 91  5 21 18 12 45.0000000  0  6 19 11 16 02 18 06
  20726626.753     -120390.828 3    -93812.400 2
  23915490.649    -2258151.561 2  -1759595.271 1
  23810090.820    -2063011.447 2  -1607539.920 1
  23363203.691    -3142440.862 2  -2448650.431 1
  21126676.406     1282662.284 3    999475.199 2
  24459913.458    -2255281.342 2  -1757358.249 1
 91  5 21 18 13  0.0000000  0  6 19 11 16 02 18 06
  20726900.163     -118993.560 3    -92723.639 3
  23909205.203    -2291171.741 2  -1785325.232 1
  23804568.044    -2092006.307 2  -1630133.304 1
  23353860.958    -3191558.824 2  -2486924.059 1
  21131673.345     1308922.034 3   1019937.300 2
  24452412.647    -2294730.073 2  -1788097.459 1
 91  5 21 18 13 15.0000000  0  6 19 11 16 02 18 06
  20727178.075     -117496.928 3    -91557.445 3
  23902947.032    -2324044.648 2  -1810940.423 1
  23799086.337    -2120833.821 2  -1652596.300 1
  23344531.417    -3240579.654 2  -2525122.054 1
  21136697.865     1335327.980 3   1040513.333 2
  24444919.637    -2334107.511 2  -1818781.082 1
 91  5 21 18 13 30.0000000  0  6 19 11 16 02 18 06
  20727485.364     -115898.621 3    -90312.024 2
  23896729.336    -2356767.346 2  -1836438.625 1
  23793627.717    -2149491.169 2  -1674926.697 1
  23335224.963    -3289500.974 2  -2563242.463 1
  21141751.169     1361882.408 3   1061205.049 2
  24437435.919    -2373411.336 2  -1849407.331 1
 91  5 21 18 13 45.0000000  0  6 19 11 16 02 18 06
  20727805.541     -114202.662 3    -88990.503 2
  23890526.935    -2389343.671 2  -1861822.713 1
  23788213.159    -2177982.235 2  -1697127.503 1
  23325932.591    -3338326.493 2  -2601288.256 1
  21146831.451     1388581.098 4   1082009.176 2
  24429967.785    -2412645.602 2  -1879979.444 1
 91  5 21 18 14  0.0000000  0  6 19 11 16 02 18 06
  20728148.499     -112406.200 3    -87590.681 3
  23884352.708    -2421770.373 2  -1887090.195 1
  23782827.987    -2206303.906 2  -1719196.305 1
  23316665.409    -3387053.266 2  -2639257.083 1
  21151941.416     1415426.746 4   1102927.831 2
  24422515.844    -2451807.549 2  -1910495.116 1
 91  5 21 18 14 15.0000000  0  6 19 11 16 02 18 06
  20728510.347     -110511.493 3    -86114.299 3
  23878209.062    -2454049.230 2  -1912242.548 1
  23777462.908    -2234458.247 2  -1741134.705 1
  23307405.721    -3435683.292 2  -2677150.550 2
  21157077.460     1442417.228 4   1123959.339 2
  24415078.290    -2490899.254 2  -1940956.135 1
 91  5 21 18 14 30.0000000  0  6 19 11 16 02 18 06
  20728887.193     -108517.814 3    -84560.791 2
  23872097.193    -2486179.072 2  -1937278.702 1
  23772140.688    -2262444.253 2  -1762942.011 1
  23298169.714    -3484215.535 2  -2714967.802 1
  21162239.889     1469552.938 3   1145104.000 2
  24407657.533    -2529920.075 2  -1971361.860 1
 91  5 21 18 14 45.0000000  0  6 19 11 16 02 18 06
  20729286.209     -106425.763 3    -82930.638 2
  23866006.605    -2518160.136 2  -1962198.969 1
  23766842.758    -2290261.851 2  -1784618.068 1
  23288955.894    -3532650.474 2  -2752709.246 1
  21167433.187     1496833.491 3   1166361.537 2
  24400247.263    -2568870.570 2  -2001712.821 1
 91  5 21 18 15  0.0000000  0  6 19 11 16 02 18 06
  20729702.929     -104234.644 3    -81223.265 2
  23859948.098    -2549991.476 2  -1987002.539 1
  23761585.592    -2317910.639 2  -1806162.540 1
  23279754.665    -3580987.298 3  -2790374.264 1
  21172650.776     1524259.382 4   1187732.325 2
  24392855.874    -2607750.084 2  -2032008.512 1
 91  5 21 18 15 15.0000000  0  6 19 11 16 02 18 06
  20730135.826     -101949.192 3    -79442.409 2
  23853924.370    -2581677.160 2  -2011692.701 1
  23756345.222    -2345395.077 2  -1827578.959 1
  23270577.412    -3629230.353 2  -2827966.160 1
  21177895.351     1551825.900 4   1209212.701 2
  24385460.900    -2646563.118 2  -2062252.308 1
 91  5 21 18 15 30.0000000  0  6 19 11 16 02 18 06
  20730591.207      -99570.031 3    -77588.526 3
  23847921.330    -2613217.558 2  -2036269.548 1
  23751161.809    -2372715.396 2  -1848867.507 1
  23261413.657    -3677379.897 2  -2865485.188 1
  21183168.100     1579532.313 4   1230802.064 2
  24378088.697    -2685310.414 2  -2092444.936 1
 91  5 21 18 15 45.0000000  0  6 19 11 16 02 18 06
  20731064.579      -97091.993 3    -75657.602 3
  23841946.166    -2644607.073 2  -2060728.838 1
  23745992.488    -2399866.009 2  -1870023.790 1
  23252268.792    -3725430.613 2  -2902927.248 1
  21188468.133     1607383.816 3   1252504.495 2
  24370727.297    -2723986.697 2  -2122582.222 1
 91  5 21 18 16  0.0000000  0  6 19 11 16 02 18 06
  20731558.638      -94515.217 3    -73649.735 3
  23836010.274    -2675845.722 2  -2085070.614 1
  23740856.749    -2426847.456 2  -1891048.294 1
  23243142.511    -3773382.668 2  -2940292.415 1
  21193796.941     1635380.018 3   1274319.679 2
  24363381.183    -2762592.340 2  -2152664.438 1
 91  5 21 18 16 15.0000000  0  6 19 11 16 02 18 06
  20732060.497      -91842.307 3    -71566.955 2
  23830089.676    -2706935.629 2  -2109296.484 1
  23735761.172    -2453661.993 2  -1911942.698 1
  23234038.410    -3821238.396 2  -2977582.519 1
  21199152.430     1663518.282 4   1296245.554 2
  24356050.957    -2801129.883 2  -2182693.653 1
 91  5 21 18 16 30.0000000  0  6 19 11 16 02 18 06
  20732587.232      -89073.627 3    -69409.543 3
  23824200.551    -2737876.751 2  -2133406.420 1
  23730690.182    -2480309.532 2  -1932706.991 1
  23224951.401    -3868997.861 2  -3014797.628 1
  21204532.210     1691798.207 4   1318281.844 2
  24348727.327    -2839599.623 2  -2212670.002 1
 91  5 21 18 16 45.0000000  0  6 19 11 16 02 18 06
  20733131.653      -86209.681 3    -67177.905 3
  23818341.108    -2768669.280 2  -2157400.490 1
  23725649.172    -2506790.354 2  -1953341.369 1
  23215870.691    -3916661.494 2  -3051938.038 1
  21209941.367     1720219.326 4   1340428.109 2
  24341426.182    -2878002.092 2  -2242593.939 1
 91  5 21 18 17  0.0000000  0  6 19 11 16 02 18 06
  20733695.862      -83251.995 3    -64873.234 3
  23812509.542    -2799314.295 2  -2181279.671 1
  23720641.745    -2533105.715 2  -1973846.857 1
  23206826.846    -3964230.441 3  -3089004.664 2
  21215374.798     1748779.961 4   1362683.105 2
  24334131.634    -2916338.858 2  -2272466.667 1
 91  5 21 18 17 15.0000000  0  6 19 11 16 02 18 06
  20734276.858      -80201.371 3    -62496.138 2
  23806707.659    -2829812.299 2  -2205044.285 1
  23715665.187    -2559256.335 2  -1994223.940 1
  23197792.903    -4011705.369 3  -3125998.060 1
  21220837.920     1777478.964 4   1385045.926 2
  24326841.875    -2954610.754 2  -2302288.766 1
 91  5 21 18 17 30.0000000  0  6 19 11 16 02 18 06
  20734872.844      -77057.413 3    -60046.301 2
  23800935.755    -2860162.438 2  -2228693.684 1
  23710718.016    -2585241.891 2  -2014472.417 1
  23188778.740    -4059085.743 3  -3162917.749 1
  21226324.417     1806316.939 4   1407517.032 2
  24319565.911    -2992817.240 2  -2332060.073 1
 91  5 21 18 17 45.0000000  0  6 19 11 16 02 18 06
  20735489.518      -73822.715 3    -57525.772 2
  23795185.733    -2890366.954 2  -2252229.572 1
  23705796.915    -2611064.381 2  -2034593.810 1
  23179778.677    -4106373.876 3  -3199765.575 2
  21231839.401     1835290.950 4   1430094.145 2
  24312311.541    -3030961.025 2  -2361782.355 1
 91  5 21 18 18  0.0000000  0  6 19 11 16 02 18 06
  20736124.775      -70495.906 3    -54933.464 2
  23789461.800    -2920423.938 2  -2275650.637 1
  23700908.803    -2636722.188 2  -2054586.915 1
  23170799.292    -4153568.174 3  -3236540.298 1
  21237379.872     1864402.606 4   1452778.523 2
  24305057.460    -3069040.574 2  -2391454.533 1
 91  5 21 18 18 15.0000000  0  6 19 11 16 02 18 06
  20736772.929      -67076.695 3    -52269.160 2
  23783765.438    -2950333.086 2  -2298956.382 1
  23696070.748    -2662215.090 2  -2074451.495 1
  23161837.593    -4200668.409 3  -3273241.711 1
  21242945.514     1893651.780 4   1475570.038 2
  24297818.368    -3107055.803 2  -2421076.709 1
 91  5 21 18 18 30.0000000  0  6 19 11 16 02 18 06
  20737440.871      -63563.883 3    -49531.913 2
  23778111.359    -2980092.648 2  -2322145.607 1
  23691246.190    -2687541.404 2  -2094186.258 1
  23152889.688    -4247672.976 2  -3309868.585 1
  21248537.846     1923039.767 4   1498469.735 2
  24290602.668    -3145005.494 2  -2450647.868 1
 91  5 21 18 18 45.0000000  0  6 19 11 16 02 18 06
  20738128.296      -59960.812 3    -46724.343 2
  23772475.261    -3009705.610 2  -2345220.575 1
  23686466.602    -2712704.662 2  -2113794.007 1
  23143961.572    -4294584.979 2  -3346423.345 1
  21254155.351     1952563.275 4   1521475.009 2
  24283392.054    -3182892.832 2  -2480170.406 1
 91  5 21 18 19  0.0000000  0  6 19 11 16 02 18 06
  20738831.304      -56270.479 3    -43848.767 2
  23766862.241    -3039174.432 2  -2368183.267 1
  23681699.900    -2737707.138 2  -2133276.403 1
  23135049.938    -4341407.078 2  -3382907.992 2
  21259797.146     1982219.271 4   1544583.534 2
  24276196.143    -3220720.715 2  -2509646.630 1
 91  5 21 18 19 15.0000000  0  6 19 11 16 02 18 06
  20739550.506      -52489.224 3    -40902.335 3
  23761285.204    -3068495.326 2  -2391030.648 1
  23676982.670    -2762545.076 2  -2152630.641 1
  23126156.592    -4388135.641 2  -3419319.782 1
  21265465.325     2012011.141 3   1567797.947 2
  24269005.615    -3258485.624 2  -2539073.722 1
 91  5 21 18 19 30.0000000  0  6 19 11 16 02 18 06
  20740286.801      -48616.105 3    -37884.335 3
  23755729.753    -3097666.877 2  -2413761.663 1
  23672281.922    -2787217.490 2  -2171855.898 1
  23117285.739    -4434769.425 2  -3455657.714 1
  21271163.179     2041939.731 3   1591118.861 2
  24261836.376    -3296186.680 2  -2568451.129 1
 91  5 21 18 19 45.0000000  0  6 19 11 16 02 18 06
  20741042.578      -44651.563 3    -34795.103 3
  23750212.369    -3126689.257 2  -2436376.457 1
  23667626.143    -2811724.838 2  -2190952.507 1
  23108426.272    -4481308.905 2  -3491922.170 1
  21276882.924     2072004.255 3   1614545.719 2
  24254661.745    -3333824.447 2  -2597779.099 1
 91  5 21 18 20  0.0000000  0  6 19 11 16 02 18 06
  20741813.040      -40596.146 3    -31635.039 3
  23744719.870    -3155562.511 2  -2458875.040 1
  23662987.752    -2836067.364 2  -2209920.664 1
  23099587.789    -4527754.205 2  -3528113.245 1
  21282629.342     2102204.380 3   1638078.248 2
  24247521.893    -3371399.159 2  -2627058.060 1
 91  5 21 18 20 15.0000000  0  6 19 11 16 02 18 06
  20742604.198      -36449.542 3    -28403.927 3
  23739254.357    -3184286.008 2  -2481256.933 1
  23658379.342    -2860244.150 2  -2228759.714 1
  23090767.594    -4574104.836 2  -3564230.525 1
  21288404.544     2132540.269 4   1661716.560 2
  24240389.823    -3408910.653 2  -2656287.751 1
 91  5 21 18 20 30.0000000  0  6 19 11 16 02 18 06
  20743403.444      -32213.029 3    -25102.758 3
  23733816.720    -3212860.644 2  -2503522.840 1
  23653813.807    -2884256.607 2  -2247470.694 1
  23081967.187    -4620361.812 2  -3600274.868 1
  21294204.333     2163010.690 4   1685459.709 2
  24233263.756    -3446360.108 2  -2685469.042 1
 91  5 21 18 20 45.0000000  0  6 19 11 16 02 18 06
  20744231.771      -27889.559 3    -21733.825 2
  23728403.070    -3241289.052 2  -2525674.779 1
  23649272.553    -2908107.326 2  -2266055.689 1
  23073184.763    -4666527.870 3  -3636248.359 2
  21300025.700     2193612.677 3   1709305.368 2
  24226147.287    -3483750.532 2  -2714604.360 1
 91  5 21 18 21  0.0000000  0  6 19 11 16 02 18 06
  20745070.289      -23478.681 4    -18296.794 2
  23723018.500    -3269570.447 2  -2547712.171 1
  23644772.369    -2931795.722 2  -2284514.183 1
  23064416.439    -4712602.345 3  -3672150.488 2
  21305873.451     2224346.633 3   1733253.867 2
  24219042.806    -3521081.402 2  -2743693.284 1
 91  5 21 18 21 15.0000000  0  6 19 11 16 02 18 06
  20745924.399      -18978.590 3    -14790.241 2
  23717665.104    -3297702.606 2  -2569633.282 1
  23640291.964    -2955319.867 2  -2302844.630 1
  23055665.198    -4758583.301 3  -3707979.738 1
  21311749.681     2255213.872 3   1757306.213 2
  24211953.009    -3558350.996 2  -2772734.474 1
 91  5 21 18 21 30.0000000  0  6 19 11 16 02 18 06
  20746800.086      -14389.914 3    -11214.663 2
  23712344.681    -3325685.836 2  -2591438.348 1
  23635854.740    -2978680.294 2  -2321047.557 1
  23046935.840    -4804471.309 3  -3743736.567 2
  21317647.802     2286213.947 3   1781462.064 2
  24204866.520    -3595559.917 2  -2801728.340 1
 91  5 21 18 21 45.0000000  0  6 19 11 16 02 18 06
  20747690.169       -9713.833 3     -7570.961 2
  23707052.152    -3353520.929 2  -2613127.983 1
  23631430.404    -3001877.995 2  -2339123.683 1
  23038218.174    -4850267.223 3  -3779421.616 2
  21323571.994     2317345.417 3   1805720.313 2
  24197802.506    -3632709.311 2  -2830675.773 1
 91  5 21 18 22  0.0000000  0  6 19 11 16 02 18 06
  20748591.647       -4951.727 3     -3860.250 3
  23701779.403    -3381209.010 2  -2634703.046 1
  23627054.631    -3024914.186 2  -2357073.919 1
  23029516.998    -4895972.308 3  -3815035.900 1
  21329521.079     2348606.734 3   1830079.750 2
  24190742.401    -3669800.732 2  -2859578.135 1
 91  5 21 18 22 15.0000000  0  6 19 11 16 02 18 06
  20749518.009        -107.745 3       -85.726 3
  23696538.126    -3408753.946 2  -2656166.556 1
  23622689.651    -3047792.794 2  -2374901.427 1
  23020839.205    -4941590.595 3  -3850582.553 1
  21335490.545     2379993.744 3   1854537.111 2
  24183700.269    -3706838.293 2  -2888438.523 1
 91  5 21 18 22 30.0000000  0  6 19 11 16 02 18 06
  20750458.157        4823.192 3      3756.545 3
  23691325.632    -3436150.328 2  -2677514.374 1
  23618376.236    -3070508.687 2  -2392602.125 1
  23012176.699    -4987116.726 3  -3886057.385 2
  21341491.492     2411511.259 3   1879096.164 2
  24176656.349    -3743816.869 2  -2917252.867 1
 91  5 21 18 22 45.0000000  0  6 19 11 16 02 18 06
  20751410.294        9840.972 3      7666.505 2
  23686135.929    -3463397.816 2  -2698746.113 1
  23614078.413    -3093061.466 2  -2410175.665 1
  23003530.989    -5032550.427 3  -3921460.184 1
  21347513.126     2443159.336 3   1903756.954 2
  24169633.710    -3780736.604 2  -2946021.414 1
 91  5 21 18 23  0.0000000  0  6 19 11 16 02 18 06
  20752380.726       14944.310 3     11643.124 2
  23680980.698    -3490497.318 2  -2719862.530 1
  23609817.759    -3115452.210 2  -2427623.000 1
  22994902.964    -5077892.976 3  -3956791.987 1
  21353561.441     2474936.515 4   1928518.356 2
  24162620.363    -3817598.787 2  -2974745.108 1
 91  5 21 18 23 15.0000000  0  6 19 11 16 02 18 06
  20753368.243       20133.231 3     15686.432 3
  23675852.751    -3517448.422 2  -2740863.334 1
  23605586.491    -3137680.819 2  -2444943.993 1
  22986289.624    -5123144.293 3  -3992052.674 1
  21359632.232     2506842.770 4   1953380.336 2
  24155610.322    -3854403.349 2  -3003423.941 1
 91  5 21 18 23 30.0000000  0  6 19 11 16 02 18 06
  20754377.642       25410.048 3     19798.224 3
  23670751.180    -3544248.516 2  -2761746.479 1
  23601392.393    -3159744.867 2  -2462136.741 1
  22977695.776    -5168301.759 3  -4027240.244 1
  21365729.111     2538880.282 3   1978344.587 2
  24148618.561    -3891147.982 2  -3032056.016 1
 91  5 21 18 23 45.0000000  0  6 19 11 16 02 18 06
  20755394.239       30769.726 3     23974.583 2
  23665679.588    -3570902.295 2  -2782515.597 1
  23597223.780    -3181649.162 2  -2479205.016 1
  22969119.308    -5213370.192 3  -4062358.436 2
  21371847.280     2571043.812 3   2003407.037 2
  24141637.889    -3927837.791 2  -3060645.374 1
 91  5 21 18 24  0.0000000  0  6 19 11 16 02 18 06
  20756433.618       36215.111 3     28217.728 3
  23660633.788    -3597406.715 2  -2803168.356 1
  23593086.342    -3203390.762 2  -2496146.503 1
  22960565.028    -5258346.676 2  -4097404.976 1
  21377992.121     2603336.087 3   2028569.796 2
  24134675.209    -3964469.939 2  -3089189.795 1
 91  5 21 18 24 15.0000000  0  6 19 11 16 02 18 06
  20757482.297       41742.641 3     32524.884 2
  23655617.060    -3623765.015 2  -2823707.233 1
  23588976.790    -3224973.092 2  -2512963.891 1
  22952020.049    -5303234.544 2  -4132382.465 2
  21384163.050     2635753.508 3   2053830.087 2
  24127707.136    -4001047.990 2  -3117692.094 1
 91  5 21 18 24 30.0000000  0  6 19 11 16 02 18 06
  20758552.258       47352.361 3     36896.083 2
  23650632.405    -3649976.465 2  -2844131.691 1
  23584904.712    -3246395.708 2  -2529656.797 1
  22943496.350    -5348033.268 2  -4167290.483 2
  21390358.567     2668296.312 4   2079188.078 2
  24120757.945    -4037571.671 2  -3146151.986 1
 91  5 21 18 24 45.0000000  0  6 19 11 16 02 18 06
  20759631.807       53047.018 3     41333.468 2
  23645673.542    -3676038.164 2  -2864439.421 1
  23580858.407    -3267655.930 2  -2546223.227 1
  22934984.937    -5392739.954 2  -4202126.793 1
  21396573.863     2700966.873 4   2104645.612 2
  24113828.542    -4074038.369 2  -3174567.559 1
 91  5 21 18 25  0.0000000  0  6 19 11 16 02 18 06
  20760731.746       58827.571 3     45837.784 2
  23640746.455    -3701948.789 2  -2884629.490 1
  23576841.193    -3288752.456 2  -2562662.033 1
  22926495.415    -5437353.602 2  -4236890.602 1
  21402813.738     2733766.076 3   2130203.387 2
  24106890.143    -4110447.072 2  -3202937.873 1
 91  5 21 18 25 15.0000000  0  6 19 11 16 02 18 06
  20761849.075       64690.762 3     50406.488 3
  23635839.445    -3727711.354 2  -2904704.166 1
  23572860.850    -3309688.436 2  -2578975.797 1
  22918025.978    -5481877.334 2  -4271584.345 1
  21409077.904     2766690.383 3   2155858.635 2
  24099970.634    -4146801.177 2  -3231265.645 1
 91  5 21 18 25 30.0000000  0  6 19 11 16 02 18 06
  20762984.683       70638.920 3     55041.403 2
  23630962.729    -3753323.144 2  -2924661.365 1
  23568908.088    -3330461.548 2  -2595162.599 1
  22909566.138    -5526308.570 3  -4306206.045 2
  21415367.852     2799742.034 3   2181613.125 2
  24093066.116    -4183098.334 2  -3259549.045 1
 91  5 21 18 25 45.0000000  0  6 19 11 16 02 18 06
  20764126.895       76672.859 3     59743.169 2
  23626118.679    -3778782.960 2  -2944500.147 1
  23564989.197    -3351070.793 2  -2611221.748 1
  22901135.973    -5570646.327 3  -4340754.869 2
  21421685.075     2832921.997 4   2207467.599 2
  24086160.698    -4219337.743 2  -3287787.539 1
 91  5 21 18 26  0.0000000  0  6 19 11 16 02 18 06
  20765294.289       82790.482 3     64510.141 2
  23621308.806    -3804092.687 2  -2964221.972 1
  23561086.203    -3371517.638 2  -2627154.329 1
  22892715.405    -5614892.697 3  -4375232.494 1
  21428023.291     2866227.811 4   2233420.141 2
  24079288.855    -4255521.547 2  -3315982.549 1
 91  5 21 18 26 15.0000000  0  6 19 11 16 02 18 06
  20766472.772       88993.086 3     69343.326 2
  23616518.721    -3829250.794 2  -2983825.625 1
  23557232.069    -3391801.069 2  -2642959.639 1
  22884311.921    -5659046.238 3  -4409637.780 1
  21434382.185     2899660.691 4   2259471.681 2
  24072411.314    -4291648.466 2  -3344133.286 1
 91  5 21 18 26 30.0000000  0  6 19 11 16 02 18 06
  20767670.145       95282.850 3     74244.433 2
  23611762.813    -3854254.724 2  -3003309.148 1
  23553400.123    -3411918.907 2  -2658635.836 1
  22875930.023    -5703104.548 3  -4443968.860 1
  21440769.567     2933222.600 4   2285623.783 2
  24065545.473    -4327716.373 2  -3372238.070 1
 91  5 21 18 26 45.0000000  0  6 19 11 16 02 18 06
  20768885.500      101655.084 3     79209.790 2
  23607029.398    -3879108.772 2  -3022675.888 1
  23549606.847    -3431875.556 2  -2674186.505 1
  22867564.616    -5747072.164 3  -4478229.258 2
  21447181.222     2966908.960 3   2311872.854 2
  24058681.125    -4363729.881 2  -3400300.444 1
 91  5 21 18 27  0.0000000  0  6 19 11 16 02 18 06
  20770110.453      108111.285 3     84240.586 2
  23602324.452    -3903811.018 2  -3041924.366 1
  23545836.658    -3451669.239 2  -2689610.120 1
  22859210.298    -5790947.170 3  -4512417.505 2
  21453617.168     3000721.094 3   2338219.913 2
  24051842.855    -4399687.450 2  -3428319.224 1
 91  5 21 18 27 15.0000000  0  6 19 11 16 02 18 06
  20771355.491      114650.612 3     89336.158 2
  23597656.380    -3928362.033 2  -3061055.012 1
  23542099.144    -3471300.532 2  -2704907.226 1
  22850883.263    -5834730.286 3  -4546534.163 2
  21460073.801     3034657.964 3   2364664.193 2
  24045020.178    -4435589.969 2  -3456295.116 1
 91  5 21 18 27 30.0000000  0  6 19 11 16 02 18 06
  20772615.519      121273.350 3     94496.726 2
  23593014.692    -3952761.443 2  -3080067.499 1
  23538398.206    -3490769.519 2  -2720077.860 1
  22842570.320    -5878421.201 3  -4580578.940 2
  21466554.114     3068719.700 3   2391205.748 2
  24038193.304    -4471437.372 2  -3484228.032 1
 91  5 21 18 27 45.0000000  0  6 19 11 16 02 18 06
  20773892.631      127979.143 3     99721.995 2
  23588399.388    -3977009.109 2  -3098961.711 1
  23534729.045    -3510076.008 2  -2735121.862 1
  22834270.264    -5922019.955 3  -4614551.931 1
  21473058.412     3102905.864 3   2417844.251 2
  24031384.717    -4507229.851 2  -3512118.304 1
 91  5 21 18 28  0.0000000  0  6 19 11 16 02 18 06
  20775183.537      134768.834 3    105012.659 2
  23583815.565    -4001103.858 2  -3117736.823 1
  23531082.970    -3529219.008 2  -2750038.494 1
  22825992.395    -5965525.711 3  -4648452.457 2
  21479589.993     3137216.983 4   2444580.148 2
  24024578.234    -4542966.539 2  -3539964.979 1
 91  5 21 18 28 15.0000000  0  6 19 11 16 02 18 06
  20776491.238      141639.923 3    110366.739 2
  23579260.517    -4025047.655 2  -3136394.259 1
  23527473.471    -3548200.877 2  -2764829.539 1
  22817732.212    -6008940.523 3  -4682282.093 2
  21486141.957     3171650.659 4   2471411.538 2
  24017795.430    -4578649.745 2  -3567769.954 1
 91  5 21 18 28 30.0000000  0  6 19 11 16 02 18 06
  20777818.118      148592.251 3    115784.128 2
  23574730.057    -4048840.470 2  -3154934.086 1
  23523892.747    -3567021.467 2  -2779494.948 1
  22809482.526    -6052264.399 3  -4716040.902 1
  21492718.499     3206206.802 3   2498338.352 2
  24011006.624    -4614279.804 2  -3595533.635 1
 91  5 21 18 28 45.0000000  0  6 19 11 16 02 18 06
  20779152.789      155627.278 3    121265.944 2
  23570231.966    -4072480.785 2  -3173355.059 1
  23520341.707    -3585679.375 2  -2794033.538 1
  22801258.020    -6095495.790 3  -4749727.627 2
  21499315.737     3240886.477 3   2525361.417 2
  24004233.714    -4649855.418 2  -3623254.760 1
 91  5 21 18 29  0.0000000  0  6 19 11 16 02 18 06
  20780508.453      162744.425 3    126811.764 2
  23565767.162    -4095968.707 2  -3191657.280 1
  23516813.753    -3604174.993 2  -2808445.738 1
  22793048.199    -6138635.076 3  -4783342.557 2
  21505938.749     3275689.058 3   2552480.264 2
  23997485.986    -4685377.035 2  -3650933.869 1
 91  5 21 18 29 15.0000000  0  6 19 11 16 02 18 06
  20781875.206      169940.506 3    132419.082 2
  23561323.037    -4119307.121 2  -3209843.003 1
  23513323.866    -3622511.235 2  -2822733.700 1
  22784856.072    -6181685.303 3  -4816888.130 2
  21512584.848     3310611.068 3   2579692.179 2
  23990735.857    -4720847.794 2  -3678573.399 1
 91  5 21 18 29 30.0000000  0  6 19 11 16 02 18 06
  20783262.647      177220.394 3    138091.707 2
  23556908.891    -4142490.792 2  -3227908.174 1
  23509870.555    -3640683.087 2  -2836893.584 1
  22776685.226    -6224641.482 3  -4850360.425 2
  21519254.033     3345657.578 3   2607001.101 2
  23983986.331    -4756262.818 2  -3706169.370 1
 91  5 21 18 29 45.0000000  0  6 19 11 16 02 18 06
  20784661.779      184582.791 3    143828.630 2
  23552526.522    -4165520.729 2  -3245853.541 1
  23506441.526    -3658691.823 2  -2850926.369 1
  22768524.579    -6267504.626 3  -4883760.206 1
  21525945.999     3380827.042 3   2634405.817 2
  23977268.879    -4791623.455 2  -3733723.023 1
 91  5 21 18 30  0.0000000  0  6 19 11 16 02 18 06
  20786078.894      192026.384 3    149628.815 2
  23548177.134    -4188397.768 2  -3263679.783 1
  23503050.879    -3676538.462 2  -2864832.834 1
  22760385.213    -6310275.676 3  -4917088.227 2
  21532662.850     3416118.138 3   2661905.314 2
  23970547.238    -4826930.939 2  -3761235.285 1
 91  5 21 18 30 15.0000000  0  6 19 11 16 02 18 06
  20787510.702      199550.009 3    155491.359 2
  23543846.339    -4211122.902 2  -3281387.603 1
  23499683.005    -3694224.132 2  -2878613.877 1
  22752267.729    -6352955.821 3  -4950345.419 2
  21539401.286     3451529.437 3   2689498.479 2
  23963835.483    -4862186.592 2  -3788707.302 1
 91  5 21 18 30 30.0000000  0  6 19 11 16 02 18 06
  20788959.899      207153.513 3    161416.148 2
  23539554.806    -4233696.031 2  -3298977.055 1
  23496343.923    -3711749.114 2  -2892269.660 1
  22744158.648    -6395545.055 3  -4983531.760 2
  21546161.003     3487060.475 3   2717184.946 2
  23957139.913    -4897390.549 2  -3816139.206 1
 91  5 21 18 30 45.0000000  0  6 19 11 16 02 18 06
  20790420.194      214838.202 3    167404.213 2
  23535290.261    -4256115.599 2  -3316446.805 1
  23493046.504    -3729111.853 2  -2905799.095 2
  22736071.449    -6438042.043 3  -5016646.228 2
  21552946.503     3522712.596 3   2744965.762 2
  23950448.252    -4932541.586 2  -3843529.516 1
 91  5 21 18 31  0.0000000  0  6 19 11 16 02 18 06
  20791898.769      222603.375 3    173454.975 2
  23531048.192    -4278382.042 2  -3333797.232 1
  23489770.670    -3746312.961 2  -2919202.526 1
  22728000.732    -6480447.361 3  -5049689.257 2
  21559755.692     3558484.918 3   2772840.245 2
  23943762.881    -4967640.478 2  -3870879.248 1
 91  5 21 18 31 15.0000000  0  6 19 11 16 02 18 06
  20793392.638      230449.771 3    179569.046 2
  23526846.904    -4300494.058 2  -3351027.332 1
  23486527.512    -3763351.354 2  -2932479.195 1
  22719952.509    -6522759.862 3  -5082659.982 2
  21566586.466     3594378.135 3   2800808.929 2
  23937104.786    -5002686.325 2  -3898187.610 1
 91  5 21 18 31 30.0000000  0  6 19 11 16 02 18 06
  20794901.785      238376.155 3    185745.434 2
  23522661.198    -4322452.746 2  -3368137.981 1
  23483320.633    -3780228.280 2  -2945630.033 1
  22711918.969    -6564980.742 3  -5115559.314 2
  21573437.317     3630390.867 3   2828870.750 2
  23930433.210    -5037680.365 2  -3925455.601 1
 91  5 21 18 31 45.0000000  0  6 19 11 16 02 18 06
  20796425.931      246381.841 3    191983.618 2
  23518510.577    -4344258.528 2  -3385129.463 1
  23480138.037    -3796944.232 2  -2958655.435 1
  22703898.020    -6607110.450 3  -5148387.591 2
  21580311.559     3666522.097 3   2857024.900 2
  23923791.605    -5072623.366 2  -3952683.917 1
 91  5 21 18 32  0.0000000  0  6 19 11 16 02 18 06
  20797962.667      254468.566 3    198284.950 2
  23514395.920    -4365909.544 2  -3402000.386 1
  23476987.819    -3813497.428 2  -2971554.070 1
  22695898.361    -6649147.174 3  -5181143.403 2
  21587210.381     3702773.469 3   2885272.665 2
  23917152.695    -5107513.745 2  -3979871.245 1
 91  5 21 18 32 15.0000000  0  6 19 11 16 02 18 06
  20799514.096      262637.317 3    204650.195 2
  23510305.258    -4387404.259 2  -3418749.460 1
  23473872.676    -3829886.722 2  -2984324.934 1
  22687917.879    -6691089.734 3  -5213825.861 2
  21594131.992     3739146.036 3   2913614.859 2
  23910518.594    -5142350.364 2  -4007016.470 1
 91  5 21 18 32 30.0000000  0  6 19 11 16 02 18 06
  20801087.408      270888.895 3    211079.984 2
  23506241.268    -4408741.539 2  -3435375.869 1
  23470780.619    -3846111.145 2  -2996967.313 1
  22679956.889    -6732937.078 3  -5246434.126 2
  21601077.284     3775640.472 3   2942052.023 2
  23903898.871    -5177132.487 2  -4034119.268 1
 91  5 21 18 32 45.0000000  0  6 19 11 16 02 18 06
  20802671.809      279221.247 3    217572.707 2
  23502213.557    -4429923.159 2  -3451880.990 1
  23467722.730    -3862172.704 2  -3009482.824 1
  22672011.194    -6774691.191 3  -5278969.723 2
  21608045.365     3812254.318 3   2970582.238 2
  23897295.046    -5211862.016 2  -4061181.177 1
 91  5 21 18 33  0.0000000  0  6 19 11 16 02 18 06
  20804274.803      287631.859 3    224126.414 2
  23498210.424    -4450951.532 2  -3468266.701 1
  23464695.432    -3878073.954 2  -3021873.411 1
  22664080.183    -6816354.432 3  -5311434.510 2
  21615034.422     3848985.170 3   2999203.613 2
  23890702.013    -5246541.648 2  -4088204.250 1
 91  5 21 18 33 15.0000000  0  6 19 11 16 02 18 06
  20805889.184      296123.780 3    230743.481 2
  23494239.374    -4471823.223 2  -3484530.322 1
  23461705.598    -3893811.546 2  -3034136.436 1
  22656174.353    -6857923.617 3  -5343826.033 2
  21622045.666     3885835.875 3   3027918.387 2
  23884108.073    -5281168.403 2  -4115186.024 1
 91  5 21 18 33 30.0000000  0  6 19 11 16 02 18 06
  20807517.656      304695.382 3    237422.630 2
  23490298.304    -4492539.706 2  -3500673.039 1
  23458745.448    -3909386.999 2  -3046273.164 1
  22648279.622    -6899400.315 3  -5376145.475 2
  21629080.302     3922804.426 3   3056724.991 2
  23877518.635    -5315743.900 2  -4142127.839 1
 91  5 21 18 33 45.0000000  0  6 19 11 16 02 18 06
  20809166.213      313349.689 3    244166.247 2
  23486390.214    -4513097.736 2  -3516692.241 1
  23455801.483    -3924797.286 2  -3058281.195 1
  22640407.070    -6940781.192 3  -5408390.274 2
  21636138.314     3959893.795 3   3085625.734 2
  23870957.083    -5350265.163 2  -4169027.454 1
 91  5 21 18 34  0.0000000  0  6 19 11 16 02 18 06
  20810830.065      322083.664 3    250971.924 2
  23482503.998    -4533499.881 2  -3532589.988 1
  23452897.400    -3940045.317 2  -3070162.760 1
  22632547.413    -6982068.970 3  -5440562.511 2
  21643219.411     3997101.072 3   3114618.346 2
  23864399.719    -5384734.977 2  -4195886.991 1
 91  5 21 18 34 15.0000000  0  6 19 11 16 02 18 06
  20812503.200      330896.064 3    257838.706 2
  23478651.069    -4553747.091 2  -3548367.020 1
  23450033.183    -3955131.974 2  -3081918.616 1
  22624709.342    -7023264.779 3  -5472663.095 2
  21650321.196     4034424.719 3   3143701.658 2
  23857852.554    -5419154.858 2  -4222707.616 1
 91  5 21 18 34 30.0000000  0  6 19 11 16 02 18 06
  20814197.634      339788.552 3    264767.907 2
  23474825.117    -4573837.528 2  -3564021.875 1
  23447189.652    -3970055.855 2  -3093547.594 1
  22616888.957    -7064367.029 3  -5504690.779 2
  21657449.060     4071865.890 3   3172876.524 2
  23851307.780    -5453523.119 2  -4249487.991 1
 91  5 21 18 34 45.0000000  0  6 19 11 16 02 18 06
  20815906.752      348761.288 3    271759.628 2
  23471031.544    -4593770.569 2  -3579554.095 1
  23444385.088    -3984816.192 2  -3105049.155 1
  22609079.662    -7105375.112 3  -5536645.068 2
  21664594.610     4109425.137 3   3202143.422 2
  23844770.510    -5487839.472 2  -4276227.962 1
 91  5 21 18 35  0.0000000  0  6 19 11 16 02 18 06
  20817629.359      357816.022 3    278815.257 2
  23467273.343    -4613544.283 2  -3594962.150 1
  23441612.013    -3999411.279 2  -3116421.963 1
  22601296.446    -7146287.382 3  -5568524.687 2
  21671762.654     4147103.920 3   3231503.452 2
  23838257.216    -5522102.258 2  -4302926.120 1
 91  5 21 18 35 15.0000000  0  6 19 11 16 02 18 06
  20819365.455      366950.897 3    285933.318 2
  23463536.728    -4633160.285 2  -3610247.293 1
  23438859.913    -4013843.015 2  -3127667.493 1
  22593528.525    -7187105.492 3  -5600330.932 2
  21678957.667     4184900.297 3   3260955.109 2
  23831752.324    -5556313.399 2  -4329584.097 1
 91  5 21 18 35 30.0000000  0  6 19 11 16 02 18 06
  20821119.542      376165.479 3    293113.513 2
  23459834.595    -4652618.732 2  -3625409.704 1
  23436148.891    -4028111.998 2  -3138786.197 1
  22585780.088    -7227829.731 3  -5632064.052 2
  21686172.171     4222813.423 3   3290497.747 2
  23825255.818    -5590473.303 2  -4356202.148 1
 91  5 21 18 35 45.0000000  0  6 19 11 16 02 18 06
  20822888.916      385461.001 3    300356.754 2
  23456162.441    -4671918.068 2  -3640448.102 1
  23433459.158    -4042216.677 2  -3149776.815 1
  22578051.142    -7268458.701 3  -5663722.936 1
  21693410.068     4260844.373 3   3320132.191 2
  23818747.925    -5624580.784 2  -4382779.345 1
 91  5 21 18 36  0.0000000  0  6 19 11 16 02 18 06
  20824673.576      394835.105 3    307661.232 2
  23452522.954    -4691060.355 2  -3655364.162 1
  23430811.384    -4056159.419 2  -3160641.286 1
  22570338.678    -7308994.521 3  -5695309.239 2
  21700668.337     4298990.883 3   3349856.675 2
  23812276.302    -5658638.132 2  -4409317.431 1
 91  5 21 18 36 15.0000000  0  6 19 11 16 02 18 06
  20826471.733      404290.631 3    315029.163 2
  23448904.459    -4710042.593 2  -3670155.508 1
  23428189.401    -4069937.135 2  -3171377.192 1
  22562640.008    -7349434.173 3  -5726820.611 2
  21707947.600     4337255.470 3   3379673.169 2
  23805802.882    -5692642.781 2  -4435814.487 1
 91  5 21 18 36 30.0000000  0  6 19 11 16 02 18 06
  20828290.875      413826.265 3    322459.508 2
  23445327.339    -4728865.878 2  -3684822.955 1
  23425592.600    -4083551.152 2  -3181985.525 1
  22554964.120    -7389778.985 3  -5758258.058 1
  21715252.942     4375636.423 3   3409580.336 2
  23799342.655    -5726595.916 2  -4462271.390 1
 91  5 21 18 36 45.0000000  0  6 19 11 16 02 18 06
  20830114.815      423440.993 3    329951.487 2
  23441770.897    -4747530.982 2  -3699367.179 1
  23423040.470    -4097002.363 2  -3192467.008 1
  22547302.925    -7430029.856 3  -5789622.320 2
  21722578.072     4414132.893 3   3439577.520 2
  23792889.023    -5760498.509 2  -4488688.933 1
 91  5 21 18 37  0.0000000  0  6 19 11 16 02 18 06
  20831960.036      433134.172 3    337504.605 2
  23438249.539    -4766038.146 2  -3713788.314 1
  23420509.622    -4110291.314 2  -3202822.031 1
  22539658.220    -7470187.174 3  -5820913.679 2
  21729927.187     4452744.113 3   3469664.122 2
  23786447.685    -5794351.289 2  -4515067.639 1
 91  5 21 18 37 15.0000000  0  6 19 11 16 02 18 06
  20833819.950      442906.517 3    345119.405 2
  23434759.949    -4784386.385 2  -3728085.613 2
  23418011.449    -4123417.089 2  -3213049.927 1
  22532038.696    -7510249.942 3  -5852131.371 2
  21737293.081     4491470.531 3   3499840.488 2
  23780014.741    -5828153.507 2  -4541406.960 1
 91  5 21 18 37 30.0000000  0  6 19 11 16 02 18 06
  20835698.745      452757.775 3    352795.702 2
  23431299.152    -4802575.804 2  -3742259.172 1
  23415539.660    -4136379.899 2  -3223150.786 1
  22524432.957    -7550218.498 3  -5883275.659 2
  21744686.267     4530311.696 3   3530106.276 2
  23773597.083    -5861905.514 2  -4567707.150 1
 91  5 21 18 37 45.0000000  0  6 19 11 16 02 18 06
  20837583.238      462687.154 3    360532.859 2
  23427870.124    -4820606.804 2  -3756309.242 1
  23413102.345    -4149180.546 2  -3233125.331 1
  22516842.217    -7590093.385 3  -5914346.957 2
  21752099.539     4569266.923 3   3560460.923 2
  23767186.920    -5895608.112 2  -4593968.826 1
 91  5 21 18 38  0.0000000  0  6 19 11 16 02 18 06
  20839496.820      472696.054 3    368331.991 2
  23424465.979    -4838477.788 2  -3770234.688 1
  23410701.011    -4161817.528 2  -3242972.345 1
  22509274.250    -7629873.045 3  -5945344.058 2
  21759534.091     4608337.097 3   3590905.133 2
  23760775.553    -5929259.824 2  -4620190.876 1
 91  5 21 18 38 15.0000000  0  6 19 11 16 02 18 06
  20841410.088      482783.141 3    376192.049 2
  23421096.909    -4856189.727 2  -3784036.136 1
  23408329.649    -4174291.909 2  -3252692.614 1
  22501723.977    -7669558.546 3  -5976267.781 2
  21766993.221     4647520.817 3   3621437.845 2
  23754390.580    -5962861.976 2  -4646374.314 1
 91  5 21 18 38 30.0000000  0  6 19 11 16 02 18 06
  20843342.255      492947.322 3    384112.189 2
  23417757.225    -4873743.559 2  -3797714.433 1
  23405983.476    -4186604.570 2  -3262286.928 1
  22494185.701    -7709150.896 3  -6007118.903 2
  21774469.147     4686816.781 3   3652057.999 2
  23747993.304    -5996415.768 2  -4672520.050 1
 91  5 21 18 38 45.0000000  0  6 19 11 16 02 18 06
  20845295.405      503191.421 3    392094.589 2
  23414448.716    -4891136.321 2  -3811267.217 1
  23403675.676    -4198753.070 2  -3271753.296 1
  22486670.800    -7748647.270 3  -6037895.249 2
  21781967.855     4726227.728 3   3682767.754 2
  23741619.123    -6029918.459 2  -4698625.954 1
 91  5 21 18 39  0.0000000  0  6 19 11 16 02 18 06
  20847260.544      513513.835 3    400138.035 2
  23411167.482    -4908369.292 2  -3824695.487 1
  23401393.955    -4210739.053 2  -3281092.996 1
  22479169.396    -7788049.049 3  -6068597.893 2
  21789491.446     4765751.850 3   3713565.702 2
  23735256.922    -6063371.661 2  -4724693.336 1
 91  5 21 18 39 15.0000000  0  6 19 11 16 02 18 06
  20849234.076      523913.891 3    408241.961 2
  23407924.629    -4925442.718 2  -3837999.427 1
  23399138.017    -4222562.738 2  -3290306.281 1
  22471690.172    -7827356.796 3  -6099227.252 2
  21797035.429     4805388.336 3   3744451.201 2
  23728895.925    -6096776.007 2  -4750722.629 1
 91  5 21 18 39 30.0000000  0  6 19 11 16 02 18 06
  20851230.390      534390.773 3    416405.753 2
  23404697.962    -4942357.393 2  -3851179.692 1
  23396922.852    -4234225.086 2  -3299393.797 1
  22464229.235    -7866571.286 3  -6129783.953 2
  21804597.690     4845136.355 3   3775423.633 2
  23722554.114    -6130132.248 2  -4776714.466 1
 91  5 21 18 39 45.0000000  0  6 19 11 16 02 18 06
  20853240.202      544946.756 3    424631.182 2
  23401505.776    -4959110.895 2  -3864234.331 1
  23394735.563    -4245723.590 2  -3308353.687 1
  22456787.188    -7905690.120 3  -6160266.128 2
  21812182.741     4884997.945 3   3806484.536 2
  23716215.602    -6163438.364 2  -4802667.200 1
 91  5 21 18 40  0.0000000  0  6 19 11 16 02 18 06
  20855260.500      555580.519 3    432917.215 2
  23398354.057    -4975704.082 2  -3877164.053 1
  23392577.957    -4257059.336 2  -3317186.732 1
  22449361.030    -7944714.331 3  -6190674.572 2
  21819789.073     4924971.622 3   3837632.780 2
  23709886.085    -6196695.442 2  -4828581.718 1
 91  5 21 18 40 15.0000000  0  6 19 11 16 02 18 06
  20857299.689      566291.076 3    441263.107 2
  23395226.917    -4992137.648 2  -3889969.408 1
  23390451.229    -4268233.393 2  -3325893.787 1
  22441951.659    -7983644.551 3  -6221009.751 2
  21827416.092     4965056.091 3   3868867.372 2
  23703564.360    -6229904.373 2  -4854458.756 1
 91  5 21 18 40 30.0000000  0  6 19 11 16 02 18 06
  20859350.875      577077.312 3    449667.954 2
  23392128.867    -5008412.488 2  -3902651.017 1
  23388357.779    -4279246.773 2  -3334475.653 1
  22434562.975    -8022481.859 3  -6251272.538 2
  21835065.596     5005250.254 3   3900187.425 2
  23697247.739    -6263066.527 2  -4880299.343 1
 91  5 21 18 40 45.0000000  0  6 19 11 16 02 18 06
  20861418.237      587940.479 3    458132.753 2
  23389065.586    -5024527.219 2  -3915207.955 1
  23386293.104    -4290098.316 2  -3342931.420 1
  22427187.780    -8061225.118 3  -6281462.040 2
  21842735.786     5045555.174 3   3931593.785 2
  23690952.093    -6296180.710 2  -4906102.510 1
 91  5 21 18 41  0.0000000  0  6 19 11 16 02 18 06
  20863508.695      598880.433 3    466657.388 2
  23386025.095    -5040481.745 2  -3927640.021 1
  23384256.315    -4300788.177 2  -3351261.194 1
  22419832.670    -8099874.262 3  -6311578.217 2
  21850428.165     5085970.375 3   3963086.068 2
  23684660.347    -6329247.071 2  -4931868.478 1
 91  5 21 18 41 15.0000000  0  6 19 11 16 02 18 06
  20865596.448      609895.161 3    475240.276 2
  23383017.576    -5056277.826 2  -3939948.618 1
  23382254.600    -4311318.178 2  -3359466.410 1
  22412497.654    -8138431.107 3  -6341622.462 2
  21858138.823     5126493.571 3   3994662.507 2
  23678376.105    -6362267.673 2  -4957598.792 1
 91  5 21 18 41 30.0000000  0  6 19 11 16 02 18 06
  20867706.990      620986.310 3    483882.728 2
  23380040.639    -5071913.577 2  -3952132.267 1
  23380281.364    -4321686.576 2  -3367545.655 1
  22405178.518    -8176893.867 3  -6371593.397 2
  21865869.872     5167126.478 3   4026324.451 2
  23672098.145    -6395240.811 2  -4983291.981 1
 91  5 21 18 41 45.0000000  0  6 19 11 16 02 18 06
  20869835.516      632154.280 3    492585.027 2
  23377096.377    -5087388.368 2  -3964190.557 1
  23378345.306    -4331892.725 2  -3375498.501 1
  22397878.272    -8215261.955 3  -6401490.574 2
  21873623.405     5207869.484 3   4058072.171 2
  23665835.785    -6428166.022 2  -5008947.971 1
 91  5 21 18 42  0.0000000  0  6 19 11 16 02 18 06
  20871970.637      643400.176 3    501348.051 2
  23374182.688    -5102700.728 2  -3976122.230 1
  23376420.940    -4341935.447 2  -3383324.007 1
  22390593.914    -8253533.941 3  -6431312.861 2
  21881399.719     5248723.480 3   4089906.378 2
  23659580.310    -6461042.118 2  -5034565.623 1
 91  5 21 18 42 15.0000000  0  6 19 11 16 02 18 06
  20874128.845      654724.352 3    510172.070 2
  23371304.082    -5117850.190 2  -3987927.002 1
  23374546.935    -4351814.526 2  -3391022.004 1
  22383329.040    -8291709.576 3  -6461060.067 2
  21889191.329     5289688.383 3   4121827.012 2
  23653325.741    -6493868.959 2  -5060144.907 1
 91  5 21 18 42 30.0000000  0  6 19 11 16 02 18 06
  20876297.837      666125.052 3    519055.721 2
  23368449.157    -5132838.324 2  -3999606.032 1
  23372701.417    -4361531.664 2  -3398593.787 1
  22376082.165    -8329790.379 3  -6490733.377 2
  21897007.517     5330762.384 3   4153832.650 2
  23647098.457    -6526648.271 2  -5085687.199 1
 91  5 21 18 42 45.0000000  0  6 19 11 16 02 18 06
  20878480.633      677604.212 3    528000.509 2
  23365628.408    -5147663.007 2  -4011157.727 1
  23370882.878    -4371085.182 2  -3406038.094 1
  22368854.468    -8367774.480 3  -6520331.334 2
  21904848.292     5371947.204 3   4185924.642 2
  23640862.770    -6559378.258 2  -5111191.024 1
 91  5 21 18 43  0.0000000  0  6 19 11 16 02 18 06
  20880680.809      689160.034 3    537005.035 2
  23362840.343    -5162325.680 2  -4022583.187 1
  23369097.912    -4380476.623 2  -3413356.062 1
  22361642.659    -8405663.549 3  -6549855.235 2
  21912702.548     5413240.840 3   4218101.423 2
  23634653.468    -6592060.650 2  -5136657.774 1
 91  5 21 18 43 15.0000000  0  6 19 11 16 02 18 06
  20882895.075      700792.581 3    546069.346 2
  23360083.147    -5176825.966 3  -4033882.039 1
  23367335.432    -4389705.597 2  -3420547.519 1
  22354453.030    -8443457.021 3  -6579304.658 2
  21920584.994     5454643.305 3   4250363.023 2
  23628437.874    -6624695.330 2  -5162087.290 1
 91  5 21 18 43 30.0000000  0  6 19 11 16 02 18 06
  20885124.027      712501.673 3    555193.305 2
  23357353.244    -5191164.046 2  -4045054.568 1
  23365611.027    -4398772.351 2  -3427612.511 1
  22347279.298    -8481155.152 3  -6608679.796 2
  21928481.829     5496154.138 3   4282709.052 2
  23622234.863    -6657282.586 2  -5187479.910 1
 91  5 21 18 43 45.0000000  0  6 19 11 16 02 18 06
  20887367.680      724288.351 3    564377.713 2
  23354652.413    -5205338.609 2  -4056099.639 1
  23363911.202    -4407675.973 2  -3434550.434 1
  22340125.354    -8518756.964 3  -6637979.872 2
  21936402.648     5537774.098 3   4315140.101 2
  23616043.857    -6689821.397 2  -5212834.757 1
 91  5 21 18 44  0.0000000  0  6 19 11 16 02 18 06
  20889623.016      736152.016 3    573622.123 2
  23351988.454    -5219350.073 2  -4067017.653 1
  23362253.047    -4416417.073 2  -3441361.681 1
  22332987.596    -8556262.877 3  -6667205.211 2
  21944342.646     5579502.658 3   4347655.780 2
  23609866.027    -6722312.452 2  -5238152.418 1
 91  5 21 18 44 15.0000000  0  6 19 11 16 02 18 06
  20891895.444      748089.853 3    582924.322 2
  23349349.684    -5233201.244 2  -4077810.747 1
  23360623.973    -4424998.521 2  -3448048.539 1
  22325866.921    -8593675.700 3  -6696358.034 2
  21952302.737     5621336.223 3   4380253.288 2
  23603686.110    -6754758.716 2  -5263435.138 1
 91  5 21 18 44 30.0000000  0  6 19 11 16 02 18 06
  20894181.056      760100.744 3    592283.450 2
  23346749.279    -5246892.926 2  -4088479.598 1
  23359019.783    -4433421.180 2  -3454611.635 1
  22318766.043    -8630996.399 3  -6725439.055 2
  21960283.812     5663273.727 3   4412931.775 2
  23597520.277    -6787161.327 2  -5288683.836 1
 91  5 21 18 44 45.0000000  0  6 19 11 16 02 18 06
  20896483.769      772188.701 3    601702.625 2
  23344173.164    -5260420.688 2  -4099020.719 1
  23357444.378    -4441681.113 2  -3461047.949 1
  22311681.944    -8668220.610 3  -6754444.894 2
  21968284.676     5705319.507 3   4445694.646 2
  23591363.438    -6819516.094 2  -5313895.281 1
 91  5 21 18 45  0.0000000  0  6 19 11 16 02 18 06
  20898796.961      784350.442 3    611179.294 2
  23341632.125    -5273787.658 2  -4109436.489 1
  23355903.148    -4449781.324 2  -3467359.817 1
  22304616.438    -8705351.372 3  -6783377.919 2
  21976306.218     5747469.661 3   4478538.842 2
  23585217.995    -6851826.266 2  -5339071.991 1
 91  5 21 18 45 15.0000000  0  6 19 11 16 02 18 06
  20901128.153      796585.822 3    620713.353 2
  23339118.369    -5286993.683 2  -4119726.889 1
  23354398.189    -4457722.215 2  -3473547.502 1
  22297568.915    -8742388.839 3  -6812238.239 2
  21984345.158     5789724.110 3   4511464.301 2
  23579071.051    -6884091.991 2  -5364214.076 1
 91  5 21 18 45 30.0000000  0  6 19 11 16 02 18 06
  20903464.729      808894.903 3    630304.840 2
  23336632.184    -5300038.523 2  -4129891.691 1
  23352912.417    -4465503.456 2  -3479610.840 1
  22290535.779    -8779332.788 3  -6841025.692 2
  21992404.472     5832082.665 3   4544470.884 2
  23572943.591    -6916313.225 2  -5389321.425 1
 91  5 21 18 45 45.0000000  0  6 19 11 16 02 18 06
  20905821.102      821277.737 3    639953.781 2
  23334181.981    -5312922.105 2  -4139930.815 1
  23351463.220    -4473124.841 2  -3485549.581 1
  22283524.535    -8816183.164 3  -6869740.204 2
  22000490.475     5874545.332 3   4577558.590 2
  23566822.133    -6948490.022 2  -5414394.171 1
 91  5 21 18 46  0.0000000  0  6 19 11 16 02 18 06
  20908191.862      833734.275 3    649660.167 2
  23331759.359    -5325644.163 2  -4149844.108 1
  23350042.501    -4480586.405 2  -3491363.826 1
  22276531.578    -8852939.669 3  -6898381.597 2
  22008587.568     5917111.571 3   4610727.002 2
  23560707.864    -6980622.463 2  -5439432.391 1
 91  5 21 18 46 15.0000000  0  6 19 11 16 02 18 06
  20910576.705      846261.955 3    659421.985 2
  23329367.012    -5338207.152 2  -4159633.431 1
  23348653.865    -4487890.760 2  -3497055.536 1
  22269552.407    -8889605.012 3  -6926951.954 2
  22016708.646     5959778.518 3   4643973.898 2
  23554601.388    -7012713.243 2  -5464438.107 1
 91  5 21 18 46 30.0000000  0  6 19 11 16 02 18 06
  20912975.944      858863.692 3    669241.514 2
  23327011.250    -5350607.869 2  -4169296.327 1
  23347291.902    -4495035.117 2  -3502622.595 1
  22262596.323    -8926176.066 3  -6955448.821 2
  22024848.013     6002549.154 3   4677301.597 2
  23548502.109    -7044759.444 2  -5489409.124 1
 91  5 21 18 46 45.0000000  0  6 19 11 16 02 18 06
  20915386.281      871538.214 3    679117.759 2
  23324684.561    -5362847.383 3  -4178833.585 1
  23345962.326    -4502020.637 2  -3508065.842 1
  22255653.134    -8962653.932 3  -6983873.077 2
  22033006.565     6045422.194 3   4710709.084 2
  23542412.428    -7076762.180 2  -5514346.248 1
 91  5 21 18 47  0.0000000  0  6 19 11 16 02 18 06
  20917812.202      884283.956 3    689049.487 2
  23322387.545    -5374926.974 2  -4188246.248 1
  23344660.924    -4508848.840 2  -3513386.558 1
  22248728.827    -8999039.986 3  -7012225.805 2
  22041185.203     6088395.541 3   4744194.730 2
  23536326.944    -7108723.065 2  -5539250.782 1
 91  5 21 18 47 15.0000000  0  6 19 11 16 02 18 06
  20920254.011      897102.622 3    699038.045 2
  23320113.921    -5386844.920 2  -4197532.946 1
  23343398.200    -4515518.089 2  -3518583.379 1
  22241824.901    -9035332.664 3  -7040505.767 2
  22049379.729     6131470.739 3   4777759.726 2
  23530258.840    -7140640.546 2  -5564121.474 1
 91  5 21 18 47 30.0000000  0  6 19 11 16 02 18 06
  20922708.114      909994.503 3    709083.658 2
  23317878.670    -5398600.669 2  -4206693.282 1
  23342157.664    -4522028.086 2  -3523656.113 1
  22234932.074    -9071531.258 3  -7068712.426 2
  22057597.046     6174648.162 3   4811404.396 2
  23524192.542    -7172514.267 2  -5588958.071 1
 91  5 21 18 47 45.0000000  0  6 19 11 16 02 18 06
  20925174.501      922958.498 3    719185.459 2
  23315674.891    -5410195.030 2  -4215727.799 1
  23340950.397    -4528380.083 2  -3528605.729 1
  22228061.435    -9107636.879 3  -7096846.641 2
  22065830.844     6217926.377 3   4845127.575 2
  23518130.738    -7204345.463 2  -5613761.498 1
 91  5 21 18 48  0.0000000  0  6 19 11 16 02 18 06
  20927653.191      935994.621 3    729343.472 3
  23313503.499    -5421627.855 2  -4224636.514 1
  23339769.218    -4534574.014 2  -3533432.193 1
  22221209.074    -9143649.497 3  -7124908.374 2
  22074089.822     6261305.082 3   4878929.074 2
  23512076.428    -7236134.035 2  -5638531.808 1
 91  5 21 18 48 15.0000000  0  6 19 11 16 02 18 06
  20930147.464      949103.405 3    739558.092 2
  23311353.083    -5432898.437 2  -4233418.801 2
  23338621.011    -4540609.263 2  -3538135.013 1
  22214373.213    -9179568.555 3  -7152897.206 2
  22082364.401     6304784.691 3   4912809.199 2
  23506047.902    -7267879.465 2  -5663268.424 1
 91  5 21 18 48 30.0000000  0  6 19 11 16 02 18 06
  20932658.821      962281.734 3    749826.913 2
  23309235.953    -5444009.704 2  -4242076.940 1
  23337500.088    -4546488.743 2  -3542716.445 1
  22207558.031    -9215396.796 3  -7180815.273 2
  22090653.063     6348361.953 3   4946765.443 2
  23500011.278    -7299584.861 2  -5687973.805 1
 91  5 21 18 48 45.0000000  0  6 19 11 16 02 18 06
  20935176.181      975530.178 3    760150.357 2
  23307152.091    -5454960.817 2  -4250610.273 1
  23336416.935    -4552211.995 2  -3547176.138 1
  22200756.634    -9251133.474 3  -7208661.991 2
  22098967.202     6392037.295 3   4980798.087 2
  23493983.353    -7331249.660 2  -5712647.659 1
 91  5 21 18 49  0.0000000  0  6 19 11 16 02 18 06
  20937715.118      988848.820 3    770528.508 2
  23305102.711    -5465751.525 3  -4259018.604 1
  23335354.173    -4557778.770 2  -3551513.895 1
  22193972.635    -9286778.378 3  -7236437.192 2
  22107294.236     6435810.420 3   5014906.935 2
  23487967.417    -7362873.910 2  -5737289.874 1
 91  5 21 18 49 15.0000000  0  6 19 11 16 02 18 06
  20940258.260     1002236.942 3    780960.799 3
  23303079.716    -5476382.618 3  -4267302.599 1
  23334325.884    -4563190.057 2  -3555730.479 1
  22187206.016    -9322332.412 3  -7264141.586 2
  22115642.560     6479680.431 3   5049091.286 2
  23481961.977    -7394458.453 2  -5761901.092 1
 91  5 21 18 49 30.0000000  0  6 19 11 16 02 18 06
  20942818.189     1015695.580 3    791448.034 3
  23301088.795    -5486852.884 3  -4275461.218 1
  23333320.682    -4568444.809 2  -3559825.124 1
  22180459.492    -9357794.431 3  -7291774.282 2
  22124010.070     6523648.215 3   5083351.808 2
  23475957.130    -7426002.253 2  -5786480.620 1
 91  5 21 18 49 45.0000000  0  6 19 11 16 02 18 06
  20945395.805     1029222.425 3    801988.432 2
  23299123.953    -5497164.386 2  -4283496.154 1
  23332358.643    -4573545.214 2  -3563799.476 1
  22173730.644    -9393166.549 3  -7319336.925 2
  22132395.860     6567711.082 3   5117686.432 2
  23469958.286    -7457507.581 2  -5811030.181 1
 91  5 21 18 50  0.0000000  0  6 19 11 16 02 18 06
  20947984.815     1042820.116 3    812584.018 2
  23297191.193    -5507314.291 3  -4291405.154 1
  23331412.797    -4578488.544 2  -3567651.432 1
  22167017.397    -9428445.931 3  -7346827.300 2
  22140800.242     6611871.712 3   5152097.220 2
  23463975.627    -7488971.779 2  -5835547.676 1
 91  5 21 18 50 15.0000000  0  6 19 11 16 02 18 06
  20950585.508     1056487.933 3    823234.257 2
  23295294.406    -5517303.189 3  -4299188.710 1
  23330505.927    -4583275.807 2  -3571381.776 1
  22160318.232    -9463633.424 3  -7374246.076 2
  22149218.419     6656128.956 3   5186583.306 2
  23457988.772    -7520395.836 2  -5860033.862 1
 91  5 21 18 50 30.0000000  0  6 19 11 16 02 18 06
  20953203.896     1070224.953 3    833938.421 2
  23293419.799    -5527131.794 3  -4306847.367 1
  23329624.237    -4587907.745 2  -3574991.087 1
  22153640.051    -9498729.840 3  -7401593.886 2
  22157659.369     6700481.845 3   5221143.903 2
  23452023.799    -7551780.529 2  -5884489.413 1
 91  5 21 18 50 45.0000000  0  6 19 11 16 02 18 06
  20955824.386     1084028.821 3    844694.666 2
  23291574.282    -5536802.214 2  -4314382.753 1
  23328767.432    -4592386.757 2  -3578481.271 1
  22146979.862    -9533737.183 3  -7428872.292 2
  22166117.716     6744927.891 3   5255777.089 2
  23446058.529    -7583128.195 2  -5908916.099 1
 91  5 21 18 51  0.0000000  0  6 19 11 16 02 18 06
  20958464.360     1097900.663 3    855503.875 2
  23289767.731    -5546313.118 2  -4321793.824 1
  23327946.303    -4596711.747 2  -3581851.399 1
  22140334.365    -9568654.057 3  -7456080.202 2
  22174596.742     6789467.845 3   5290483.437 2
  23440100.458    -7614437.636 2  -5933312.989 1
 91  5 21 18 51 15.0000000  0  6 19 11 16 02 18 06
  20961114.525     1111840.171 3    866365.817 2
  23287992.660    -5555664.709 2  -4329080.787 1
  23327150.651    -4600882.779 2  -3585101.546 1
  22133705.952    -9603480.861 3  -7483217.921 2
  22183089.868     6834101.503 3   5325262.825 2
  23434143.276    -7645709.232 2  -5957680.394 1
 91  5 21 18 51 30.0000000  0  6 19 11 16 02 18 06
  20963782.375     1125848.115 3    877281.086 2
  23286242.472    -5564856.109 2  -4336242.912 1
  23326387.379    -4604899.558 2  -3588231.545 1
  22127097.031    -9638216.760 3  -7510284.818 2
  22191595.575     6878829.237 3   5360115.504 2
  23428204.993    -7676942.348 2  -5982017.839 1
 91  5 21 18 51 45.0000000  0  6 19 11 16 02 18 06
  20966458.619     1139925.275 3    888250.295 2
  23284521.061    -5573886.258 2  -4343279.378 1
  23325655.281    -4608761.022 2  -3591240.519 1
  22120505.194    -9672861.000 3  -7537280.281 2
  22200125.870     6923651.640 3   5395041.963 2
  23422264.006    -7708136.183 2  -6006324.669 1
 91  5 21 18 52  0.0000000  0  6 19 11 16 02 18 06
  20969148.963     1154067.753 3    899270.387 2
  23282833.232    -5582759.015 2  -4350193.181 1
  23324947.771    -4612471.077 2  -3594131.464 1
  22113930.440    -9707417.257 3  -7564207.199 2
  22208676.249     6968564.335 3   5430038.757 2
  23416330.216    -7739294.700 2  -6030603.938 1
 91  5 21 18 52 15.0000000  0  6 19 11 16 02 18 06
  20971854.584     1168276.976 3    910342.484 2
  23281175.078    -5591472.808 2  -4356983.179 1
  23324271.147    -4616028.527 2  -3596903.532 1
  22107368.888    -9741884.012 3  -7591064.360 2
  22217237.126     7013568.587 3   5465106.940 2
  23410414.104    -7770416.515 2  -6054854.688 1
 91  5 21 18 52 30.0000000  0  6 19 11 16 02 18 06
  20974571.906     1182552.984 3    921466.624 2
  23279548.107    -5600027.478 3  -4363649.137 1
  23323622.095    -4619433.293 2  -3599556.600 1
  22100827.718    -9776261.263 3  -7617851.788 2
  22225820.181     7058664.429 3   5500246.465 2
  23404495.304    -7801501.724 2  -6079076.842 1
 91  5 21 18 52 45.0000000  0  6 19 11 16 02 18 06
  20977298.214     1196896.007 3    932643.003 2
  23277951.412    -5608422.479 3  -4370190.695 1
  23323003.319    -4622685.021 2  -3602090.455 1
  22094301.834    -9810548.470 3  -7644569.048 2
  22234419.133     7103851.738 3   5535457.251 1
  23398584.296    -7832549.810 2  -6103270.029 1
 91  5 21 18 53  0.0000000  0  6 19 11 16 02 18 06
  20980044.914     1211305.720 3    943871.330 2
  23276382.899    -5616657.983 2  -4376607.957 1
  23322411.827    -4625784.113 2  -3604505.325 1
  22087794.237    -9844745.793 3  -7671216.267 2
  22243036.365     7149130.095 3   5570738.988 1
  23392687.082    -7863561.271 2  -6127434.814 1
 91  5 21 18 53 15.0000000  0  6 19 11 16 02 18 06
  20982796.411     1225780.210 3    955150.133 2
  23274848.859    -5624735.712 2  -4382902.283 1
  23321848.516    -4628732.182 2  -3606802.535 1
  22081305.234    -9878855.091 3  -7697794.902 2
  22251666.789     7194497.482 3   5606090.118 2
  23386789.859    -7894537.948 2  -6151572.396 1
 91  5 21 18 53 30.0000000  0  6 19 11 16 02 18 06
  20985570.987     1240319.410 3    966479.363 2
  23273337.600    -5632655.788 3  -4389073.760 1
  23321322.985    -4631529.531 2  -3608982.313 1
  22074831.212    -9912876.438 3  -7724305.002 2
  22260320.605     7239953.568 3   5641510.352 1
  23380907.033    -7925480.067 2  -6175683.062 1
 91  5 21 18 53 45.0000000  0  6 19 11 16 02 18 06
  20988343.173     1254923.482 3    977859.144 2
  23271860.230    -5640417.888 2  -4395122.107 1
  23320812.139    -4634176.310 2  -3611044.758 1
  22068373.986    -9946809.623 3  -7750746.400 2
  22268986.104     7285498.268 3   5676999.646 1
  23375023.012    -7956387.421 2  -6199766.658 1
 91  5 21 18 54  0.0000000  0  6 19 11 16 02 18 06
  20991132.738     1269591.980 3    989289.133 2
  23270414.331    -5648022.284 2  -4401047.611 1
  23320339.369    -4636672.979 2  -3612990.234 1
  22061931.741    -9980654.900 3  -7777119.310 2
  22277666.889     7331130.911 3   5712557.455 2
  23369147.375    -7987260.524 2  -6223823.541 1
 91  5 21 18 54 15.0000000  0  6 19 11 16 02 18 06
  20993939.100     1284326.779 3   1000770.786 2
  23268997.810    -5655466.838 2  -4406848.547 1
  23319899.266    -4639017.209 2  -3614816.921 1
  22055510.785   -10014410.258 3  -7803422.150 2
  22286371.669     7376853.249 3   5748185.160 2
  23363282.540    -8018097.389 2  -6247852.174 1
 91  5 21 18 54 30.0000000  0  6 19 11 16 02 18 06
  20996752.651     1299127.804 3   1012304.030 2
  23267613.370    -5662751.630 3  -4412524.978 1
  23319479.257    -4641209.444 2  -3616525.148 1
  22049102.122   -10048075.710 3  -7829654.927 2
  22295087.834     7422664.636 3   5783882.242 2
  23357415.297    -8048898.375 2  -6271852.929 1
 91  5 21 18 54 45.0000000  0  6 19 11 16 02 18 06
  20999581.793     1313994.420 3   1023888.400 2
  23266259.801    -5669877.155 3  -4418077.322 1
  23319090.431    -4643250.280 2  -3618115.444 1
  22042713.545   -10081651.819 3  -7855818.087 2
  22303821.389     7468564.446 3   5819648.222 2
  23351563.951    -8079664.035 2  -6295826.120 1
 91  5 21 18 55  0.0000000  0  6 19 11 16 02 18 06
  21002424.425     1328911.911 3   1035512.404 2
  23264931.420    -5676857.925 2  -4423516.883 1
  23318720.783    -4645154.623 2  -3619599.362 1
  22036336.660   -10115153.168 3  -7881922.992 2
  22312571.129     7514537.973 3   5855471.658 2
  23345719.193    -8110409.091 2  -6319783.215 1
 91  5 21 18 55 15.0000000  0  6 19 11 16 02 18 06
  21005272.449     1343897.034 3   1047189.106 2
  23263632.723    -5683676.996 2  -4428830.425 1
  23318392.213    -4646905.583 2  -3620963.757 1
  22029982.259   -10148562.809 3  -7907956.429 2
  22321335.858     7560601.470 3   5891365.200 1
  23339875.342    -8141116.777 2  -6343711.209 1
 91  5 21 18 55 30.0000000  0  6 19 11 16 02 18 06
  21008136.667     1358946.278 3   1058915.780 2
  23262363.699    -5690337.754 2  -4434020.619 1
  23318088.221    -4648506.778 2  -3622211.487 1
  22023639.855   -10181884.118 3  -7933921.046 2
  22330118.283     7606751.319 3   5927326.017 2
  23334028.192    -8171790.591 2  -6367612.843 1
 91  5 21 18 55 45.0000000  0  6 19 11 16 02 18 06
  21011009.278     1374058.410 3   1070691.450 2
  23261127.657    -5696841.180 3  -4439088.204 1
  23317811.513    -4649959.429 2  -3623343.418 1
  22017314.230   -10215118.246 3  -7959817.730 2
  22338915.688     7652986.419 3   5963353.285 2
  23328204.418    -8202431.665 2  -6391488.976 1
 91  5 21 18 56  0.0000000  0  6 19 11 16 02 18 06
  21013902.882     1389238.357 3   1082519.960 2
  23259922.187    -5703182.551 3  -4444029.485 1
  23317567.184    -4651258.872 2  -3624355.983 1
  22011011.691   -10248260.378 3  -7985642.732 2
  22347733.187     7699310.772 3   5999450.080 2
  23322379.753    -8233035.494 2  -6415336.067 1
 91  5 21 18 56 15.0000000  0  6 19 11 16 02 18 06
  21016803.370     1404482.652 3   1094398.615 2
  23258744.908    -5709365.086 3  -4448847.029 1
  23317346.238    -4652408.295 2  -3625251.682 1
  22004719.352   -10281313.883 3  -8011398.674 2
  22356560.571     7745720.804 3   6035613.650 1
  23316562.880    -8263605.426 2  -6439156.724 1
 91  5 21 18 56 30.0000000  0  6 19 11 16 02 18 06
  21019715.253     1419789.262 3   1106325.830 2
  23257596.998    -5715390.635 3  -4453542.250 1
  23317152.872    -4653410.053 2  -3626032.266 1
  21998444.097   -10314280.794 3  -8037087.136 2
  22365411.051     7792214.478 3   6071842.391 1
  23310749.305    -8294143.445 2  -6462952.431 1
 91  5 21 18 56 45.0000000  0  6 19 11 16 02 18 06
  21022639.133     1435160.333 3   1118303.282 2
  23256481.772    -5721256.946 3  -4458113.393 1
  23316996.082    -4654261.860 2  -3626696.010 1
  21992188.621   -10347158.773 3  -8062706.295 2
  22374277.708     7838793.829 3   6108137.900 1
  23304940.529    -8324647.450 2  -6486721.771 1
 91  5 21 18 57  0.0000000  0  6 19 11 16 02 18 06
  21025579.494     1450596.862 3   1130331.727 2
  23255394.728    -5726962.809 3  -4462559.497 1
  23316860.276    -4654962.935 2  -3627242.343 1
  21985949.645   -10379946.804 3  -8088255.365 2
  22383155.768     7885459.512 3   6144500.684 2
  23299149.133    -8355116.453 2  -6510463.816 1
 91  5 21 18 57 15.0000000  0  6 19 11 16 02 18 06
  21028529.148     1466112.062 3   1142421.475 2
  23254339.452    -5732495.016 3  -4466870.281 1
  23316758.645    -4655500.068 2  -3627660.899 1
  21979732.551   -10412631.565 3  -8113723.966 2
  22392053.302     7932224.408 3   6180940.752 1
  23293358.645    -8385537.349 2  -6534168.349 1
 91  5 21 18 57 30.0000000  0  6 19 11 16 02 18 06
  21031498.294     1481696.352 3   1154565.053 2
  23253315.665    -5737863.050 3  -4471053.160 1
  23316687.291    -4655882.580 2  -3627958.966 1
  21973527.140   -10445222.452 3  -8139119.417 2
  22400970.032     7979079.021 3   6217450.743 2
  23287581.646    -8415919.627 2  -6557842.804 1
 91  5 21 18 57 45.0000000  0  6 19 11 16 02 18 06
  21034469.839     1497344.871 3   1166758.700 2
  23252326.945    -5743071.551 3  -4475111.710 1
  23316639.626    -4656115.537 2  -3628140.526 1
  21967341.230   -10477724.122 3  -8164445.346 2
  22409901.751     8026018.278 3   6254026.678 1
  23281801.942    -8446268.177 2  -6581490.939 1
 91  5 21 18 58  0.0000000  0  6 19 11 16 02 18 06
  21037462.072     1513058.130 3   1179002.778 2
  23251368.212    -5748119.948 3  -4479045.512 1
  23316622.237    -4656198.678 2  -3628205.363 2
  21961173.294   -10510136.240 3  -8189701.502 2
  22418852.352     8073042.134 3   6290668.536 2
  23276033.336    -8476582.588 2  -6605112.502 1
 91  5 21 18 58 15.0000000  0  6 19 11 16 02 18 06
  21040465.088     1528835.795 3   1191297.051 2
  23250442.155    -5753008.299 3  -4482854.586 1
  23316640.822    -4656132.301 2  -3628153.648 1
  21955022.755   -10542458.882 3  -8214887.940 2
  22427817.044     8120150.193 3   6327376.015 2
  23270271.623    -8506863.054 2  -6628707.605 1
 91  5 21 18 58 30.0000000  0  6 19 11 16 02 18 06
  21043481.001     1544677.995 3   1203641.604 2
  23249533.182    -5757736.608 3  -4486538.965 1
  23316681.594    -4655916.008 2  -3627985.127 1
  21948891.097   -10574691.869 3  -8240004.505 2
  22436794.334     8167342.474 3   6364149.106 1
  23264511.114    -8537109.665 2  -6652276.366 1
 91  5 21 18 58 45.0000000  0  6 19 11 16 02 18 06
  21046511.606     1560582.899 3   1216035.017 2
  23248665.287    -5762306.488 2  -4490099.878 1
  23316744.851    -4655552.179 2  -3627701.635 1
  21942775.032   -10606836.756 3  -8265052.438 2
  22445791.998     8214616.682 3   6400986.074 2
  23258767.986    -8567324.147 2  -6675820.067 1
 91  5 21 18 59  0.0000000  0  6 19 11 16 02 18 06
  21049547.002     1576552.932 3   1228479.194 2
  23247830.059    -5766715.388 3  -4493535.394 1
  23316849.483    -4655038.322 2  -3627301.283 1
  21936675.160   -10638891.259 3  -8290029.940 2
  22454804.058     8261974.995 3   6437888.561 1
  23253019.169    -8597504.120 2  -6699336.826 1
 91  5 21 18 59 15.0000000  0  6 19 11 16 02 18 06
  21052594.089     1592587.262 3   1240973.468 2
  23247017.629    -5770964.145 3  -4496846.081 1
  23316973.292    -4654375.308 2  -3626784.688 1
  21930591.464   -10670856.089 3  -8314937.569 2
  22463831.117     8309416.521 3   6474855.881 1
  23247289.538    -8627650.574 2  -6722827.551 1
 91  5 21 18 59 30.0000000  0  6 19 11 16 02 18 06
  21055662.771     1608686.827 3   1253518.568 2
  23246243.860    -5775051.744 3  -4500031.220 1
  23317130.387    -4653562.368 2  -3626151.238 1
  21924525.768   -10702730.343 3  -8339774.595 2
  22472875.853     8356942.018 3   6511888.621 2
  23241556.007    -8657762.602 2  -6746291.379 1
 91  5 21 18 59 45.0000000  0  6 19 11 16 02 18 06
  21058741.033     1624852.368 3   1266115.072 2
  23245494.076    -5778977.408 3  -4503090.134 1
  23317314.156    -4652598.882 2  -3625400.503 1
  21918473.858   -10734513.237 3  -8364540.444 2
  22481934.383     8404551.708 3   6548987.003 2
  23235830.268    -8687839.509 2  -6769727.848 1
 91  5 21 19  0  0.0000000  0  6 19 11 16 02 18 06
  21061828.003     1641082.025 3   1278761.547 2
  23244777.876    -5782742.704 3  -4506024.126 1
  23317527.912    -4651486.597 2  -3624533.779 1
  21912449.223   -10766206.461 3  -8389236.431 2
  22491011.498     8452243.853 3   6586149.604 2
  23230113.228    -8717882.964 2  -6793138.312 1
 91  5 21 19  0 15.0000000  0  6 19 11 16 02 18 06
  21064926.053     1657377.492 3   1291459.298 2
  23244092.553    -5786345.900 3  -4508831.816 1
  23317765.348    -4650223.998 2  -3623549.985 1
  21906432.693   -10797808.194 3  -8413861.112 2
  22500105.103     8500019.850 3   6623377.549 2
  23224406.980    -8747891.504 2  -6816521.515 1
 91  5 21 19  0 30.0000000  0  6 19 11 16 02 18 06
  21068040.298     1673736.256 3   1304206.380 2
  23243438.100    -5789789.346 2  -4511514.982 1
  23318028.568    -4648813.284 2  -3622450.766 1
  21900435.647   -10829320.758 3  -8438416.328 2
  22509213.096     8547876.909 3   6660668.663 1
  23218698.028    -8777867.436 2  -6839879.302 1
 91  5 21 19  0 45.0000000  0  6 19 11 16 02 18 06
  21071164.733     1690158.848 3   1317003.188 2
  23242811.236    -5793072.388 2  -4514073.204 1
  23318334.356    -4647254.203 2  -3621235.902 1
  21894458.083   -10860743.657 3  -8462901.654 2
  22518335.485     8595815.272 3   6698023.153 1
  23213003.176    -8807810.409 2  -6863211.435 1
 91  5 21 19  1  0.0000000  0  6 19 11 16 02 18 06
  21074310.457     1706646.394 3   1329850.623 2
  23242219.447    -5796194.014 2  -4516505.602 1
  23318651.837    -4645545.999 2  -3619904.869 1
  21888497.909   -10892075.826 3  -8487316.287 2
  22527470.456     8643835.646 3   6735441.524 1
  23207310.417    -8837719.351 2  -6886517.027 1
 91  5 21 19  1 15.0000000  0  6 19 11 16 02 18 06
  21077454.079     1723198.377 3   1342748.251 2
  23241655.535    -5799154.451 2  -4518812.432 1
  23319007.385    -4643689.250 2  -3618458.074 1
  21882546.731   -10923317.462 3  -8511660.365 2
  22536627.318     8691937.730 3   6772923.561 1
  23201626.951    -8867594.681 2  -6909796.434 1
 91  5 21 19  1 30.0000000  0  6 19 11 16 02 18 06
  21080619.287     1739816.209 3   1355697.206 2
  23241123.102    -5801952.197 3  -4520992.481 1
  23319389.327    -4641682.345 2  -3616894.272 2
  21876618.935   -10954467.087 3  -8535932.759 2
  22545792.574     8740122.333 3   6810469.890 1
  23195945.885    -8897435.024 2  -6933048.607 2
 91  5 21 19  1 45.0000000  0  6 19 11 16 02 18 06
  21083789.599     1756498.636 3   1368696.496 2
  23240622.752    -5804588.473 2  -4523046.739 1
  23319804.232    -4639526.727 2  -3615214.561 1
  21870711.225   -10985525.890 3  -8560134.385 2
  22554979.110     8788388.045 3   6848079.417 2
  23190277.103    -8927241.743 2  -6956274.565 1
 91  5 21 19  2  0.0000000  0  6 19 11 16 02 18 06
  21086982.090     1773246.619 3   1381746.851 2
  23240151.779    -5807062.154 2  -4524974.240 1
  23320238.638    -4637221.269 2  -3613418.171 1
  21864819.700   -11016492.801 3  -8584264.405 2
  22564182.145     8836735.625 3   6885752.765 1
  23184607.728    -8957013.765 2  -6979473.478 1
 91  5 21 19  2 15.0000000  0  6 19 11 16 02 18 06
  21090176.675     1790059.045 3   1394847.428 2
  23239711.083    -5809374.420 2  -4526775.997 1
  23320702.115    -4634767.396 2  -3611506.101 1
  21858944.665   -11047369.233 3  -8608323.932 2
  22573396.864     8885163.858 3   6923488.936 1
  23178952.147    -8986752.412 2  -7002646.388 1
 91  5 21 19  2 30.0000000  0  6 19 11 16 02 18 06
  21093388.353     1806937.332 3   1407999.327 2
  23239298.272    -5811523.978 3  -4528450.974 1
  23321199.167    -4632164.178 2  -3609477.632 1
  21853084.621   -11078153.750 3  -8632311.840 2
  22582624.478     8933673.553 3   6961288.568 1
  23173305.553    -9016456.411 2  -7025792.314 1
 91  5 21 19  2 45.0000000  0  6 19 11 16 02 18 06
  21096612.918     1823880.983 3   1421202.161 2
  23238921.129    -5813510.810 3  -4529999.152 1
  23321721.112    -4629411.516 2  -3607332.756 1
  21847243.169   -11108846.322 3  -8656228.102 2
  22591871.575     8982264.268 3   6999151.357 1
  23167652.965    -9046126.016 2  -7048911.422 1
 91  5 21 19  3  0.0000000  0  6 19 11 16 02 18 06
  21099853.676     1840890.477 3   1434456.306 2
  23238576.365    -5815334.526 3  -4531420.200 1
  23322276.928    -4626509.354 2  -3605071.362 1
  21841417.300   -11139446.563 3  -8680072.403 2
  22601133.365     9030936.087 3   7037077.332 1
  23162012.976    -9075760.834 2  -7072003.453 1
 91  5 21 19  3 15.0000000  0  6 19 11 16 02 18 06
  21103096.834     1857965.479 3   1447761.487 2
  23238260.691    -5816995.325 2  -4532714.301 1
  23322859.416    -4623458.034 2  -3602693.715 1
  21835617.816   -11169954.639 4  -8703844.895 2
  22610413.740     9079688.805 3   7075066.369 1
  23156377.778    -9105361.103 2  -7095068.544 1
 91  5 21 19  3 30.0000000  0  6 19 11 16 02 18 06
  21106362.171     1875106.075 3   1461117.780 2
  23237976.182    -5818493.092 3  -4533881.380 1
  23323464.398    -4620257.706 2  -3600199.985 1
  21829827.921   -11200370.588 3  -8727545.606 2
  22619706.400     9128521.990 3   7113118.101 1
  23150754.567    -9134927.096 2  -7118106.902 1
 91  5 21 19  3 45.0000000  0  6 19 11 16 02 18 06
  21109632.307     1892312.179 3   1474525.114 2
  23237722.857    -5819827.764 3  -4534921.375 1
  23324102.064    -4616908.414 2  -3597590.144 1
  21824056.323   -11230694.288 3  -8751174.423 2
  22629012.261     9177435.180 3   7151232.155 1
  23145130.458    -9164458.629 2  -7141118.445 1
 91  5 21 19  4  0.0000000  0  6 19 11 16 02 18 06
  21112924.029     1909581.969 3   1487982.072 2
  23237494.120    -5821001.354 3  -4535835.847 1
  23324770.895    -4613412.205 2  -3594865.869 1
  21818303.004   -11260927.626 3  -8774732.843 2
  22638331.305     9226426.357 2   7189406.984 1
  23139517.744    -9193957.630 2  -7164104.625 1
 91  5 21 19  4 15.0000000  0  6 19 11 16 02 18 06
  21116223.246     1926911.739 3   1501485.780 2
  23237304.951    -5822017.413 3  -4536627.557 1
  23325458.617    -4609772.634 2  -3592029.868 1
  21812565.276   -11291074.137 3  -8798223.590 2
  22647672.843     9275491.629 2   7227639.534 1
  23133913.423    -9223427.836 2  -7187068.363 1
 91  5 21 19  4 30.0000000  0  6 19 11 16 02 18 06
  21119529.058     1944295.203 3   1515031.324 2
  23237140.666    -5822882.070 3  -4537301.301 1
  23326179.922    -4605996.307 2  -3589087.329 1
  21806847.032   -11321140.061 3  -8821651.556 2
  22657020.968     9324624.608 2   7265924.847 1
  23128301.913    -9252875.600 2  -7210014.590 1
 91  5 21 19  4 45.0000000  0  6 19 11 16 02 18 06
  21122846.258     1961744.213 3   1528627.937 2
  23237004.860    -5823583.312 3  -4537847.727 2
  23326929.706    -4602071.400 2  -3586028.957 1
  21801144.981   -11351113.492 3  -8845007.438 2
  22666383.786     9373836.974 2   7304272.022 1
  23122709.580    -9282288.932 2  -7232934.072 1
 91  5 21 19  5  0.0000000  0  6 19 11 16 02 18 06
  21126179.048     1979257.655 3   1542274.761 2
  23236902.025    -5824122.352 3  -4538267.743 1
  23327704.068    -4597999.012 2  -3582855.703 1
  21795456.123   -11380995.460 4  -8868292.048 2
  22675766.690     9423127.189 2   7342679.879 1
  23117120.546    -9311669.242 2  -7255827.747 1
 91  5 21 19  5 15.0000000  0  6 19 11 16 02 18 06
  21129525.930     1996834.479 3   1555970.976 2
  23236832.774    -5824500.192 3  -4538562.153 1
  23328501.813    -4593780.427 2  -3579568.496 1
  21789787.044   -11410787.024 4  -8891506.224 2
  22685158.895     9472493.947 2   7381147.355 1
  23111539.914    -9341017.466 2  -7278696.422 1
 91  5 21 19  5 30.0000000  0  6 19 11 16 02 18 06
  21132881.215     2014472.225 3   1569714.662 2
  23236795.902    -5824719.116 3  -4538732.727 1
  23329336.440    -4589418.152 2  -3576169.385 1
  21784133.854   -11440490.396 4  -8914651.678 2
  22694569.378     9521934.631 2   7419672.439 2
  23105956.883    -9370335.979 2  -7301541.988 1
 91  5 21 19  5 45.0000000  0  6 19 11 16 02 18 06
  21136251.175     2032174.075 3   1583508.299 2
  23236778.216    -5824775.930 3  -4538777.047 1
  23330194.746    -4584909.332 2  -3572656.021 1
  21778501.055   -11470102.630 4  -8937726.104 2
  22703993.351     9571451.975 3   7458257.269 1
  23100384.932    -9399621.748 2  -7324362.021 1
 91  5 21 19  6  0.0000000  0  6 19 11 16 02 18 06
  21139634.039     2049938.576 3   1597350.737 2
  23236800.395    -5824672.030 3  -4538696.008 1
  23331078.233    -4580255.400 2  -3569029.625 1
  21772882.949   -11499625.049 4  -8960730.554 2
  22713428.125     9621044.435 3   7496900.631 1
  23094815.695    -9428876.280 2  -7347157.707 1
 91  5 21 19  6 15.0000000  0  6 19 11 16 02 18 06
  21143023.787     2067766.222 3   1611242.395 2
  23236851.664    -5824407.010 3  -4538489.488 1
  23331988.401    -4575455.948 2  -3565289.830 1
  21767281.926   -11529057.044 4  -8983664.544 2
  22722877.880     9670712.199 3   7535602.649 1
  23089254.538    -9458099.141 2  -7369928.723 1
 91  5 21 19  6 30.0000000  0  6 19 11 16 02 18 06
  21146426.737     2085655.599 3   1625182.154 2
  23236926.909    -5823982.133 3  -4538158.408 1
  23332930.050    -4570512.502 2  -3561437.818 1
  21761698.293   -11558399.904 4  -9006529.086 2
  22732346.526     9720453.721 3   7574362.154 1
  23083701.486    -9487291.549 2  -7392676.006 1
 91  5 21 19  6 45.0000000  0  6 19 11 16 02 18 06
  21149842.565     2103607.352 3   1639170.516 2
  23237039.629    -5823396.735 3  -4537702.245 1
  23333898.380    -4565424.796 2  -3557473.439 1
  21756129.946   -11587652.860 4  -9029323.566 2
  22741824.760     9770269.261 3   7613179.338 2
  23078150.825    -9516453.034 2  -7415399.215 1
 91  5 21 19  7  0.0000000  0  6 19 11 16 02 18 06
  21153270.398     2121633.290 3   1653216.692 2
  23237186.534    -5822638.895 3  -4537111.699 1
  23334901.480    -4560180.643 2  -3553387.111 1
  21750581.082   -11616804.086 3  -9052038.764 2
  22751325.487     9820170.366 3   7652063.186 2
  23072610.066    -9545571.837 2  -7438089.185 2
 91  5 21 19  7 15.0000000  0  6 19 11 16 02 18 06
  21156716.214     2139725.953 3   1667314.850 2
  23237358.314    -5821716.189 3  -4536392.693 1
  23335926.776    -4554787.840 2  -3549184.962 1
  21745054.415   -11645860.955 3  -9074680.464 2
  22760831.301     9870149.405 3   7691007.762 1
  23067077.998    -9574655.456 2  -7460751.658 1
 91  5 21 19  7 30.0000000  0  6 19 11 16 02 18 06
  21160168.923     2157878.967 3   1681460.036 2
  23237568.170    -5820634.853 3  -4535550.092 1
  23336978.745    -4549252.815 2  -3544871.964 1
  21739542.728   -11674830.021 3  -9097253.734 2
  22770356.913     9920199.710 3   7730007.864 2
  23061546.524    -9603710.252 2  -7483391.691 1
 91  5 21 19  7 45.0000000  0  6 19 11 16 02 18 06
  21163637.520     2176095.357 3   1695654.611 2
  23237805.598    -5819391.782 3  -4534581.444 1
  23338056.802    -4543572.873 2  -3540446.073 1
  21734046.329   -11703708.087 4  -9119756.082 2
  22779893.308     9970324.243 3   7769065.807 2
  23056020.450    -9632733.129 2  -7506006.862 1
 91  5 21 19  8  0.0000000  0  6 19 11 16 02 18 06
  21167117.809     2194374.370 3   1709897.998 2
  23238070.021    -5817987.689 2  -4533487.343 1
  23339163.032    -4537748.831 2  -3535907.884 2
  21728568.225   -11732495.609 4  -9142187.894 2
  22789447.695    10020522.059 3   7808180.849 2
  23050507.263    -9661724.812 2  -7528597.737 1
 91  5 21 19  8 15.0000000  0  6 19 11 16 02 18 06
  21170607.695     2212713.709 3   1724188.379 2
  23238369.214    -5816424.856 3  -4532269.546 1
  23340304.346    -4531782.827 2  -3531259.080 1
  21723107.206   -11761195.086 4  -9164551.099 2
  22799013.468    10070790.572 3   7847350.993 1
  23044991.982    -9690687.774 2  -7551166.215 1
 91  5 21 19  8 30.0000000  0  6 19 11 16 02 18 06
  21174106.874     2231115.181 3   1738527.164 2
  23238699.886    -5814701.359 3  -4530926.528 1
  23341470.239    -4525673.593 2  -3526498.667 1
  21717660.278   -11789804.699 4  -9186844.266 2
  22808594.842    10121131.172 3   7886577.322 1
  23039486.299    -9719620.159 2  -7573710.867 1
 91  5 21 19  8 45.0000000  0  6 19 11 16 02 18 06
  21177618.940     2249576.367 3   1752912.487 2
  23239054.239    -5812819.646 3  -4529460.251 1
  23342652.919    -4519423.381 2  -3521628.395 1
  21712231.637   -11818326.599 3  -9209069.092 2
  22818186.694    10171541.088 3   7925857.631 2
  23033989.297    -9748524.331 2  -7596233.560 1
 91  5 21 19  9  0.0000000  0  6 19 11 16 02 18 06
  21181145.402     2268099.640 3   1767346.190 2
  23239441.268    -5810777.243 3  -4527868.758 1
  23343869.775    -4513029.986 2  -3516646.587 1
  21706822.776   -11846758.470 3  -9231223.752 2
  22827794.444    10222022.748 3   7965193.845 2
  23028498.001    -9777398.119 2  -7618732.590
 91  5 21 19  9 15.0000000  0  6 19 11 16 02 18 06
  21184679.952     2286683.683 3   1781827.240 2
  23239861.879    -5808575.432 3  -4526153.040 1
  23345110.616    -4506495.039 2  -3511554.461 1
  21701429.516   -11875101.593 3  -9253309.264 2
  22837411.189    10272574.326 3   8004584.534 1
  23023007.901    -9806242.722 2  -7641208.889 1
 91  5 21 19  9 30.0000000  0  6 19 11 16 02 18 06
  21188227.093     2305330.325 3   1796357.079 2
  23240315.463    -5806212.392 3  -4524311.723 1
  23346382.336    -4499816.607 2  -3506350.503 1
  21696052.135   -11903354.096 3  -9275324.171 2
  22847046.222    10323197.558 2   8044031.117 1
  23017523.202    -9835056.374 2  -7663660.997 1
 91  5 21 19  9 45.0000000  0  6 19 11 16 02 18 06
  21191789.529     2324039.425 3   1810935.574 2
  23240793.633    -5803688.355 3  -4522344.912 1
  23347683.433    -4492995.119 2  -3501035.136 1
  21690693.645   -11931515.963 3  -9297268.446 2
  22856689.946    10373891.825 3   8083532.998 1
  23012050.490    -9863839.300 2  -7686089.185 1
 91  5 21 19 10  0.0000000  0  6 19 11 16 02 18 06
  21195362.758     2342809.107 3   1825561.277 2
  23241303.581    -5801005.118 3  -4520254.108 2
  23349005.522    -4486032.641 2  -3495609.846 1
  21685353.442   -11959589.035 4  -9319143.527 2
  22866354.051    10424655.421 3   8123088.916 1
  23006575.083    -9892593.416 2  -7708494.955 1
 91  5 21 19 10 15.0000000  0  6 19 11 16 02 18 06
  21198943.778     2361640.663 3   1840235.203 2
  23241844.407    -5798161.434 3  -4518038.249 1
  23350366.578    -4478927.973 2  -3490073.768 1
  21680028.525   -11987572.119 4  -9340948.499 2
  22876026.558    10475489.022 3   8162699.393 1
  23001105.365    -9921317.400 2  -7730877.249 1
 91  5 21 19 10 30.0000000  0  6 19 11 16 02 18 06
  21202539.788     2380535.972 3   1854958.808 2
  23242416.713    -5795155.140 3  -4515695.673 1
  23351742.624    -4471679.108 2  -3484425.333 1
  21674720.405   -12015463.202 4  -9362681.779 2
  22885710.452    10526394.447 3   8202365.839 1
  22995650.645    -9950009.271 2  -7753234.519 1
 91  5 21 19 10 45.0000000  0  6 19 11 16 02 18 06
  21206146.887     2399493.335 3   1869730.751 2
  23243019.295    -5791987.959 3  -4513227.752 1
  23353146.555    -4464287.973 2  -3478666.041 1
  21669429.664   -12043263.808 4  -9384344.556 2
  22895415.338    10577369.744 2   8242086.674 1
  22990195.916    -9978670.755 2  -7775568.084 1
 91  5 21 19 11  0.0000000  0  6 19 11 16 02 18 06
  21209765.382     2418513.587 3   1884551.711 2
  23243653.358    -5788659.254 3  -4510633.934 2
  23354581.355    -4456754.243 2  -3472795.653 1
  21664156.619   -12070973.270 4  -9405936.311 2
  22905125.913    10628414.988 2   8281862.102 1
  22984744.189   -10007301.234 2  -7797877.466 1
 91  5 21 19 11 15.0000000  0  6 19 11 16 02 18 06
  21213397.968     2437596.074 3   1899421.162 2
  23244315.899    -5785169.493 3  -4507914.654 1
  23356044.347    -4449078.382 2  -3466814.512 1
  21658900.055   -12098592.031 3  -9427457.396 2
  22914852.978    10679529.986 2   8321691.821 1
  22979301.457   -10035901.190 2  -7820163.101 1
 91  5 21 19 11 30.0000000  0  6 19 11 16 02 18 06
  21217041.346     2456740.955 3   1914339.229 2
  23245011.412    -5781518.583 3  -4505069.786 1
  23357530.416    -4441260.413 2  -3460722.618 1
  21653661.482   -12126120.031 3  -9448907.755 2
  22924594.737    10730714.479 2   8361575.736 1
  22973868.323   -10064470.546 2  -7842424.910 1
 91  5 21 19 11 45.0000000  0  6 19 11 16 02 18 06
  21220696.713     2475947.655 3   1929305.475 2
  23245737.507    -5777707.012 3  -4502099.742 1
  23359040.776    -4433301.121 2  -3454520.583 1
  21648441.494   -12153557.548 3  -9470287.593 2
  22934347.280    10781967.477 3   8401512.998 1
  22968436.385   -10093009.860 2  -7864663.314 1
 91  5 21 19 12  0.0000000  0  6 19 11 16 02 18 06
  21224360.779     2495214.914 3   1944318.904 2
  23246491.487    -5773736.094 3  -4499005.521 1
  23360583.201    -4425202.141 2  -3448209.762 1
  21643237.996   -12180905.899 3  -9491597.961 3
  22944113.922    10833287.454 3   8441502.444 1
  22963010.440   -10121520.467 2  -7886879.321 1
 91  5 21 19 12 15.0000000  0  6 19 11 16 02 18 06
  21228040.437     2514545.737 3   1959381.871 2
  23247276.346    -5769602.730 3  -4495784.751 2
  23362155.020    -4416960.203 2  -3441787.505 1
  21638052.786   -12208161.886 4  -9512836.354 2
  22953891.951    10884677.287 3   8481546.354 1
  22957588.396   -10149999.231 2  -7909070.536 1
 91  5 21 19 12 30.0000000  0  6 19 11 16 02 18 06
  21231731.175     2533937.478 3   1974492.296 2
  23248095.677    -5765309.612 3  -4492439.479 1
  23363752.614    -4408577.823 2  -3435255.811 1
  21632880.166   -12235328.322 3  -9534004.958 2
  22963683.774    10936134.018 3   8521642.374 1
  22952178.636   -10178448.921 2  -7931239.067 1
 91  5 21 19 12 45.0000000  0  6 19 11 16 02 18 06
  21235433.012     2553391.548 3   1989651.296 2
  23248943.487    -5760855.498 3  -4488968.745 1
  23365373.286    -4400054.219 2  -3428614.077 1
  21627728.233   -12262403.936 4  -9555102.800 2
  22973487.586    10987658.890 3   8561791.507 1
  22946768.886   -10206868.286 2  -7953383.989 1
 91  5 21 19 13  0.0000000  0  6 19 11 16 02 18 06
  21239146.846     2572910.671 3   2004860.980 2
  23249823.981    -5756237.528 3  -4485370.349 1
  23367017.052    -4391386.841 2  -3421860.320 1
  21622592.495   -12289385.889 4  -9576127.670 2
  22983311.483    11039254.223 2   8601995.533 1
  22941362.721   -10235254.514 2  -7975503.067 2
 91  5 21 19 13 15.0000000  0  6 19 11 16 02 18 06
  21242872.668     2592493.696 3   2020120.479 2
  23250734.752    -5751456.829 3  -4481645.131 2
  23368694.987    -4382577.021 2  -3414995.594 1
  21617475.035   -12316275.320 4  -9597080.422 2
  22993140.484    11090918.668 2   8642253.414 1
  22935967.663   -10263608.840 2  -7997597.254 1
 91  5 21 19 13 30.0000000  0  6 19 11 16 02 18 06
  21246618.872     2612140.324 3   2035429.520 2
  23251671.305    -5746513.632 3  -4477793.305 1
  23370404.707    -4373625.238 2  -3408020.221 1
  21612379.161   -12343072.293 4  -9617961.146 2
  23002983.863    11142651.590 2   8682564.601 2
  22930583.085   -10291931.216 2  -8019666.434 1
 91  5 21 19 13 45.0000000  0  6 19 11 16 02 18 06
  21250364.779     2631848.586 3   2050786.589 2
  23252641.729    -5741410.072 3  -4473816.500 1
  23372132.706    -4364533.248 2  -3400935.609 1
  21607295.285   -12369778.846 4  -9638771.419 2
  23012844.641    11194450.836 2   8722927.510 2
  22925198.218   -10320224.201 2  -8041712.899 1
 91  5 21 19 14  0.0000000  0  6 19 11 16 02 18 06
  21254128.975     2651619.917 3   2066192.798 2
  23253649.331    -5736144.677 3  -4469713.625 1
  23373893.389    -4355300.153 2  -3393741.036 1
  21602231.188   -12396393.610 4  -9659510.152 2
  23022711.710    11246317.387 2   8763342.873 1
  22919819.336   -10348486.178 2  -8063735.153 1
 91  5 21 19 14 15.0000000  0  6 19 11 16 02 18 06
  21257900.063     2671452.794 3   2081646.973 2
  23254679.723    -5730719.080 3  -4465485.872 1
  23375671.156    -4345927.795 2  -3386437.946 1
  21597183.285   -12422917.948 4  -9680178.437 2
  23032596.464    11298249.569 3   8803809.368 1
  22914446.458   -10376718.713 2  -8085734.478 2
 91  5 21 19 14 30.0000000  0  6 19 11 16 02 18 06
  21261689.438     2691350.762 3   2097151.865 2
  23255736.787    -5725129.692 3  -4461130.577 1
  23377477.411    -4336412.501 2  -3379023.451 1
  21592154.263   -12449348.363 4  -9700773.520 2
  23042486.916    11350250.664 2   8844329.554 1
  22909083.169   -10404918.291 2  -8107708.149 1
 91  5 21 19 14 45.0000000  0  6 19 11 16 02 18 06
  21265485.707     2711309.240 3   2112703.909 2
  23256835.828    -5719381.068 3  -4456651.142 1
  23379317.833    -4326759.175 2  -3371501.407 1
  21587140.231   -12475689.339 4  -9721298.916 2
  23052398.657    11402315.873 2   8884899.729 1
  22903720.481   -10433089.320 3  -8129659.543 1
 91  5 21 19 15  0.0000000  0  6 19 11 16 02 18 06
  21269298.475     2731331.347 3   2128305.540 2
  23257961.847    -5713470.197 3  -4452045.259 1
  23381179.850    -4316965.016 2  -3363869.630 1
  21582146.895   -12501937.749 4  -9741752.176 2
  23062319.088    11454448.084 2   8925522.087 1
  22898364.093   -10461228.834 2  -8151586.355 1
 91  5 21 19 15 15.0000000  0  6 19 11 16 02 18 06
  21273117.525     2751417.628 3   2143957.172 2
  23259116.345    -5707396.385 3  -4447312.457 1
  23383074.533    -4307029.355 2  -3356127.611 1
  21577168.234   -12528092.936 4  -9762132.793 3
  23072251.211    11506647.545 2   8966196.869 1
  22893019.990   -10489336.304 3  -8173488.261 1
 91  5 21 19 15 30.0000000  0  6 19 11 16 02 18 06
  21276956.966     2771567.306 3   2159658.190 2
  23260305.324    -5701160.365 3  -4442453.254 1
  23384989.608    -4296952.915 2  -3348275.867 1
  21572209.973   -12554155.583 4  -9782441.317 2
  23082201.029    11558913.289 2   9006923.258 1
  22887674.395   -10517412.354 3  -8195365.639 1
 91  5 21 19 15 45.0000000  0  6 19 11 16 02 18 06
  21280797.313     2791776.804 3   2175405.840 2
  23261521.281    -5694765.722 3  -4437470.432 1
  23386930.464    -4286739.750 2  -3340317.613 1
  21567265.192   -12580129.325 4  -9802680.551 2
  23092155.331    11611241.331 2   9047698.210 1
  22882337.185   -10545460.671 2  -8217221.404 1
 91  5 21 19 16  0.0000000  0  6 19 11 16 02 18 06
  21284654.440     2812047.477 3   2191201.148 2
  23262767.820    -5688211.235 3  -4432363.065 1
  23388904.599    -4276388.268 2  -3332251.586 1
  21562341.700   -12606012.648 4  -9822849.330 2
  23102121.037    11663632.844 2   9088522.647 2
  22877006.876   -10573479.923 2  -8239054.551 1
 91  5 21 19 16 15.0000000  0  6 19 11 16 02 18 06
  21288522.664     2832378.530 3   2207043.514 2
  23264046.136    -5681497.787 3  -4427131.828 1
  23390898.216    -4265899.816 2  -3324078.789 1
  21557432.902   -12631806.579 4  -9842948.454 2
  23112106.226    11716086.839 2   9129395.755 1
  22871672.973   -10601471.005 2  -8260865.743 1
 91  5 21 19 16 30.0000000  0  6 19 11 16 02 18 06
  21292406.472     2852769.927 3   2222932.900 2
  23265354.431    -5674625.551 3  -4421776.846 1
  23392916.125    -4255274.856 2  -3315799.627 1
  21552542.984   -12657511.142 4  -9862977.946 2
  23122099.207    11768602.975 2   9170317.280 1
  22866358.247   -10629434.053 2  -8282655.086 1
 91  5 21 19 16 45.0000000  0  6 19 11 16 02 18 06
  21296297.181     2873223.813 3   2238870.975 2
  23266688.805    -5667592.299 3  -4416296.400 1
  23394969.099    -4244511.245 2  -3307412.463 1
  21547669.261   -12683124.120 4  -9882936.071 2
  23132105.973    11821182.952 2   9211288.579 1
  22861037.231   -10657366.815 2  -8304420.833 1
 91  5 21 19 17  0.0000000  0  6 19 11 16 02 18 06
  21300199.879     2893738.996 3   2254856.816 2
  23268062.155    -5660399.072 3  -4410691.300 1
  23397046.958    -4233610.268 2  -3298918.262 1
  21542812.019   -12708646.459 4  -9902823.568 3
  23142123.244    11873825.661 2   9252308.725 1
  22855734.502   -10685270.430 2  -8326163.873 1
 91  5 21 19 17 15.0000000  0  6 19 11 16 02 18 06
  21304117.270     2914314.380 3   2270889.574 2
  23269458.888    -5653047.065 3  -4404962.503 1
  23399143.113    -4222573.157 2  -3290317.944 1
  21537969.173   -12734079.322 4  -9922641.354 2
  23152149.197    11926529.429 2   9293376.443 1
  22850421.583   -10713146.070 2  -8347885.113 2
 91  5 21 19 17 30.0000000  0  6 19 11 16 02 18 06
  21308046.945     2934952.298 3   2286971.045 2
  23270886.499    -5645533.905 3  -4399108.109 1
  23401276.437    -4211397.787 2  -3281609.914 1
  21533150.906   -12759420.261 4  -9942387.498 2
  23162194.345    11979296.531 2   9334493.556 1
  22845127.545   -10740991.303 2  -8369582.657 1
 91  5 21 19 17 45.0000000  0  6 19 11 16 02 18 06
  21311982.318     2955652.780 3   2303101.283 2
  23272348.888    -5637859.903 3  -4393128.390 1
  23403422.351    -4200084.443 2  -3272794.350 1
  21528344.933   -12784669.314 4  -9962062.040 2
  23172249.388    12032126.310 2   9375659.467 1
  22839838.009   -10768806.359 2  -8391256.688 1
 91  5 21 19 18  0.0000000  0  6 19 11 16 02 18 06
  21315932.690     2976412.641 3   2319277.775 2
  23273842.452    -5630028.280 2  -4387025.837 1
  23405606.935    -4188636.244 2  -3263873.733 1
  21523554.857   -12809829.803 4  -9981667.580 2
  23182309.525    12085015.700 2   9416871.863 1
  22834545.471   -10796594.314 2  -8412909.597 1
 91  5 21 19 18 15.0000000  0  6 19 11 16 02 18 06
  21319897.441     2997233.875 3   2335502.104 2
  23275357.009    -5622036.855 2  -4380798.770 1
  23407808.908    -4177051.360 2  -3254846.579 1
  21518789.054   -12834899.494 4 -10001202.367 2
  23192391.240    12137966.344 2   9458131.961 1
  22829267.330   -10824353.201 2  -8434539.843 1
 91  5 21 19 18 30.0000000  0  6 19 11 16 02 18 06
  21323871.195     3018115.495 3   2351773.480 2
  23276912.330    -5613886.525 3  -4374447.897 1
  23410036.970    -4165331.347 2  -3245714.144 1
  21514032.544   -12859879.316 4 -10020667.123 2
  23202479.560    12190977.131 2   9499438.913 1
  22823989.782   -10852083.862 2  -8456148.111 1
 91  5 21 19 18 45.0000000  0  6 19 11 16 02 18 06
  21327851.538     3039058.023 3   2368092.307 2
  23278491.339    -5605576.923 3  -4367972.888 1
  23412294.705    -4153475.652 2  -3236475.980 1
  21509294.923   -12884768.690 4 -10040061.404 3
  23212575.672    12244048.262 2   9540792.939 1
  22818714.633   -10879785.827 2  -8477734.016 1
 91  5 21 19 19  0.0000000  0  6 19 11 16 02 18 06
  21331850.770     3060060.677 3   2384457.995 2
  23280103.617    -5597108.773 3  -4361374.357 1
  23414572.831    -4141485.098 2  -3227132.743 1
  21504574.988   -12909568.247 4 -10059385.695 3
  23222685.569    12297178.636 2   9582193.066 1
  22813451.779   -10907459.866 2  -8499298.141 1
 91  5 21 19 19 15.0000000  0  6 19 11 16 02 18 06
  21335857.192     3081120.978 3   2400868.603 2
  23281744.086    -5588484.703 3  -4354654.327 1
  23416873.738    -4129362.390 2  -3217686.535 1
  21499874.249   -12934280.570 4 -10078642.012 3
  23232806.259    12350365.518 2   9623637.272 1
  22808188.322   -10935108.547 2  -8520842.520 1
 91  5 21 19 19 30.0000000  0  6 19 11 16 02 18 06
  21339878.612     3102244.779 3   2417328.701 2
  23283418.425    -5579698.891 3  -4347808.260 2
  23419207.617    -4117101.929 2  -3208132.946 1
  21495190.889   -12958899.962 4 -10097825.916 3
  23242941.345    12403614.371 2   9665129.789 1
  22802929.664   -10962726.030 2  -8542362.608 1
 91  5 21 19 19 45.0000000  0  6 19 11 16 02 18 06
  21343912.317     3123430.979 3   2433837.415 2
  23285120.947    -5570752.664 3  -4340837.197 1
  23421577.479    -4104704.918 2  -3198472.992 1
  21490523.724   -12983427.383 4 -10116938.165 3
  23253086.919    12456923.839 2   9706669.449 1
  22797675.796   -10990313.577 2  -8563859.347 1
 91  5 21 19 20  0.0000000  0  6 19 11 16 02 18 06
  21347951.117     3144675.351 3   2450391.451 2
  23286852.550    -5561650.177 3  -4333744.345 1
  23423958.727    -4092175.871 2  -3188710.165 1
  21485870.641   -13007867.086 4 -10135982.063 3
  23263243.592    12510289.506 2   9748252.979 1
  22792436.926   -11017875.275 2  -8585335.934 1
 91  5 21 19 20 15.0000000  0  6 19 11 16 02 18 06
  21352007.612     3165983.729 3   2466995.370 2
  23288612.927    -5552385.556 3  -4326525.185 1
  23426367.861    -4079509.231 2  -3178840.116 1
  21481239.144   -13032213.198 4 -10154953.028 2
  23273407.453    12563717.008 2   9789884.640 1
  22787195.954   -11045405.307 2  -8606787.922 1
 91  5 21 19 20 30.0000000  0  6 19 11 16 02 18 06
  21356074.298     3187350.765 3   2483644.988 2
  23290403.590    -5542964.348 3  -4319183.990 1
  23428803.981    -4066710.650 2  -3168867.259 1
  21476621.441   -13056471.250 4 -10173855.377 2
  23283586.008    12617200.810 2   9831560.199 1
  22781966.071   -11072909.152 2  -8628219.400 1
 91  5 21 19 20 45.0000000  0  6 19 11 16 02 18 06
  21360149.980     3208778.428 3   2500341.851 2
  23292232.024    -5533384.414 3  -4311719.105 1
  23431266.774    -4053778.177 2  -3158790.041 1
  21472024.425   -13080638.722 4 -10192687.144 3
  23293773.559    12670742.638 2   9873280.974 1
  22776734.392   -11100384.529 2  -8649628.780 1
 91  5 21 19 21  0.0000000  0  6 19 11 16 02 18 06
  21364240.643     3230267.303 3   2517086.406 2
  23294085.639    -5523645.470 3  -4304130.309 1
  23433753.848    -4040711.453 2  -3148608.225 1
  21467442.103   -13104715.338 4 -10211448.117 3
  23303974.590    12724342.387 2   9915046.871 1
  22771516.803   -11127831.047 3  -8671015.625 1
 91  5 21 19 21 15.0000000  0  6 19 11 16 02 18 06
  21368341.801     3251815.640 3   2533877.310 2
  23295965.638    -5513749.168 3  -4296418.933 1
  23436262.212    -4027512.411 2  -3138323.308 1
  21462875.363   -13128702.802 4 -10230139.616 2
  23314185.524    12777998.460 2   9956856.641 2
  22766301.316   -11155250.436 3  -8692381.346 1
 91  5 21 19 21 30.0000000  0  6 19 11 16 02 18 06
  21372453.762     3273425.004 3   2550715.761 2
  23297881.009    -5503694.187 3  -4288583.884 1
  23438798.157    -4014179.604 2  -3127934.113 1
  21458328.412   -13152599.759 4 -10248760.585 2
  23324406.352    12831711.972 2   9998711.185 1
  22761084.033   -11182641.252 2  -8713724.779 1
 91  5 21 19 21 45.0000000  0  6 19 11 16 02 18 06
  21376574.404     3295096.928 3   2567602.959 2
  23299823.070    -5493478.921 3  -4280623.946 1
  23441365.581    -4000711.749 2  -3117439.722 1
  21453796.146   -13176404.470 4 -10267309.694 2
  23334634.369    12885484.150 2  10040611.440 1
  22755879.331   -11210001.907 3  -8735044.746 1
 91  5 21 19 22  0.0000000  0  6 19 11 16 02 18 06
  21380713.037     3316830.954 3   2584538.546 2
  23301796.899    -5483103.927 3  -4272539.542 1
  23443956.685    -3987109.799 2  -3106840.865 1
  21449287.568   -13200117.174 4 -10285787.093 3
  23344879.174    12939314.365 2  10082556.925 1
  22750677.936   -11237332.902 3  -8756341.600 1
 91  5 21 19 22 15.0000000  0  6 19 11 16 02 18 06
  21384859.471     3338626.140 3   2601521.786 2
  23303802.216    -5472570.186 3  -4264331.428 1
  23446563.381    -3973374.817 2  -3096138.310 1
  21444790.682   -13223739.062 4 -10304193.727 3
  23355138.078    12993201.214 2  10124546.502 1
  22745485.528   -11264635.103 2  -8777616.000 1
 91  5 21 19 22 30.0000000  0  6 19 11 16 02 18 06
  21389017.893     3360483.401 3   2618553.403 2
  23305837.802    -5461876.874 3  -4255998.974 1
  23449202.456    -3959506.071 2  -3085331.521 1
  21440313.575   -13247269.309 4 -10322528.955 3
  23365406.266    13047145.340 2  10166580.741 1
  22740291.025   -11291907.743 2  -8798867.354 1
 91  5 21 19 22 45.0000000  0  6 19 11 16 02 18 06
  21393192.499     3382402.229 3   2635632.996 2
  23307900.374    -5451024.502 3  -4247542.584 1
  23451872.409    -3945503.916 2  -3074420.845 1
  21435852.366   -13270708.155 4 -10340792.964 3
  23375675.659    13101146.131 2  10208659.165 1
  22735105.510   -11319151.246 3  -8820096.039 1
 91  5 21 19 23  0.0000000  0  6 19 11 16 02 18 06
  21397371.905     3404384.512 3   2652762.029 2
  23309997.724    -5440011.269 3  -4238960.819 1
  23454557.649    -3931366.957 2  -3063405.068 1
  21431413.938   -13294053.784 4 -10358984.334 3
  23385964.534    13155205.186 2  10250782.935 1
  22729925.997   -11346363.748 3  -8841300.549 1
 91  5 21 19 23 15.0000000  0  6 19 11 16 02 18 06
  21401572.303     3426429.578 3   2669939.977 2
  23312122.053    -5428837.876 3  -4230254.295 1
  23457275.869    -3917095.833 2  -3052284.787 1
  21426986.609   -13317306.763 4 -10377103.506 3
  23396261.209    13209321.612 2  10292951.441 1
  22724756.379   -11373545.834 3  -8862481.325 1
 91  5 21 19 23 30.0000000  0  6 19 11 16 02 18 06
  21405775.389     3448537.792 3   2687167.139 2
  23314282.058    -5417504.090 3  -4221422.779 1
  23460019.270    -3902690.694 2  -3041060.056 1
  21422579.957   -13340466.764 4 -10395150.229 3
  23406572.569    13263495.281 2  10335164.553 1
  22719588.558   -11400697.166 3  -8883638.186 1
 91  5 21 19 23 45.0000000  0  6 19 11 16 02 18 06
  21409992.574     3470707.696 3   2704442.379 2
  23316465.744    -5406011.470 3  -4212467.523 1
  23462781.256    -3888152.701 2  -3029731.803 1
  21418187.999   -13363535.313 4 -10413125.697 3
  23416891.424    13317724.543 2  10377420.950 1
  22714426.426   -11427819.248 3  -8904772.227 1
 91  5 21 19 24  0.0000000  0  6 19 11 16 02 18 06
  21414225.343     3492944.273 3   2721769.554 2
  23318691.109    -5394355.169 3  -4203384.681 1
  23465577.715    -3873477.748 2  -3018296.826 1
  21413816.423   -13386507.556 4 -10431026.132 3
  23427224.073    13372014.250 2  10419724.474 1
  22709267.897   -11454907.201 3  -8925879.691 1
 91  5 21 19 24 15.0000000  0  6 19 11 16 02 18 06
  21418463.809     3515242.716 3   2739144.955 2
  23320933.558    -5382540.002 3  -4194178.045 1
  23468398.167    -3858670.906 2  -3006759.074 1
  21409465.534   -13409388.038 4 -10448855.041 3
  23437561.817    13426359.417 2  10462071.222 1
  22704120.467   -11481965.643 3  -8946964.119 1
 91  5 21 19 24 30.0000000  0  6 19 11 16 02 18 06
  21422721.758     3537602.370 3   2756568.039 2
  23323216.177    -5370566.719 3  -4184848.183 1
  23471238.696    -3843732.851 2  -2995119.085 1
  21405127.541   -13432177.375 4 -10466612.942 3
  23447916.044    13480758.733 2  10504460.155 1
  22698978.123   -11508995.447 2  -8968026.313 1
 91  5 21 19 24 45.0000000  0  6 19 11 16 02 18 06
  21426992.306     3560024.350 3   2774039.686 2
  23325523.977    -5358434.210 3  -4175394.307 1
  23474102.914    -3828662.720 2  -2983376.175 1
  21400808.132   -13454874.491 4 -10484298.965 3
  23458278.672    13535213.532 2  10546892.286 1
  22693839.078   -11535995.357 2  -8989065.152 1
 91  5 21 19 25  0.0000000  0  6 19 11 16 02 18 06
  21431269.145     3582510.871 3   2791561.634 2
  23327858.458    -5346140.197 3  -4165814.546 1
  23476996.518    -3813458.428 2  -2971528.760 1
  21396505.807   -13477476.939 4 -10501911.246 3
  23468655.392    13589725.391 2  10589368.927 1
  22688712.335   -11562963.226 3  -9010079.037 1
 91  5 21 19 25 15.0000000  0  6 19 11 16 02 18 06
  21435560.372     3605062.064 3   2809133.970 2
  23330233.712    -5333684.934 3  -4156109.134 1
  23479920.991    -3798120.144 2  -2959576.900 1
  21392223.271   -13499984.942 4 -10519449.921 3
  23479037.800    13644294.058 2  10631889.832 1
  22683582.285   -11589898.977 3  -9031067.886 1
 91  5 21 19 25 30.0000000  0  6 19 11 16 02 18 06
  21439857.296     3627676.219 3   2826755.371 2
  23332634.156    -5321070.132 3  -4146279.416 2
  23482861.352    -3782649.699 2  -2947521.990 1
  21387960.523   -13522400.103 4 -10536916.248 2
  23489432.808    13698917.719 2  10674453.602 1
  22678464.825   -11616804.258 3  -9052033.023 1
 91  5 21 19 25 45.0000000  0  6 19 11 16 02 18 06
  21444179.706     3650350.663 3   2844423.745 2
  23335060.373    -5308298.648 3  -4136327.613 1
  23485831.694    -3767050.073 2  -2935366.525 1
  21383711.264   -13544725.376 4 -10554312.542 3
  23499837.701    13753593.376 2  10717057.881 1
  22673351.266   -11643681.871 3  -9072976.550 1
 91  5 21 19 26  0.0000000  0  6 19 11 16 02 18 06
  21448513.503     3673087.759 3   2862140.929 2
  23337522.572    -5295368.038 2  -4126251.793 1
  23488823.324    -3751319.256 2  -2923108.802 1
  21379477.300   -13566957.936 4 -10571636.594 2
  23510255.193    13808323.080 2  10759704.233 1
  22668239.207   -11670529.302 3  -9093896.585 1
 91  5 21 19 26 15.0000000  0  6 19 11 16 02 18 06
  21452846.400     3695885.617 3   2879905.482 2
  23340013.242    -5282280.246 3  -4116053.529 1
  23491841.034    -3735458.829 2  -2910750.069 1
  21375265.516   -13589099.794 4 -10588889.961 3
  23520678.077    13863104.748 2  10802391.105 1
  22663133.142   -11697348.275 3  -9114794.439 2
 91  5 21 19 26 30.0000000  0  6 19 11 16 02 18 06
  21457197.891     3718745.308 3   2897718.200 2
  23342533.900    -5269034.296 3  -4105732.002 1
  23494878.838    -3719468.083 2  -2898289.750 1
  21371069.916   -13611149.706 4 -10606071.686 2
  23531110.253    13917939.564 2  10845119.391 1
  22658037.871   -11724137.814 3  -9135669.377 1
 91  5 21 19 26 45.0000000  0  6 19 11 16 02 18 06
  21461558.073     3741667.668 3   2915579.761 2
  23345085.130    -5255629.650 3  -4095286.825 1
  23497947.205    -3703346.799 2  -2885727.777 1
  21366891.706   -13633106.977 4 -10623181.227 3
  23541552.926    13972827.785 2  10887889.264 1
  22652947.389   -11750897.219 3  -9156520.809 1
 91  5 21 19 27  0.0000000  0  6 19 11 16 02 18 06
  21465933.846     3764647.637 3   2933486.206 2
  23347668.748    -5242071.350 3  -4084721.924 1
  23501045.867    -3687100.206 2  -2873068.216 1
  21362729.986   -13654976.645 4 -10640222.500 3
  23552012.683    14027763.808 2  10930696.407 1
  22647857.519   -11777631.598 3  -9177352.756 1
 91  5 21 19 27 15.0000000  0  6 19 11 16 02 18 06
  21470316.808     3787688.876 3   2951440.397 2
  23350275.139    -5228356.099 3  -4074034.692 1
  23504162.510    -3670724.873 2  -2860308.210 1
  21358583.264   -13676755.312 4 -10657192.863 3
  23562473.940    14082751.133 2  10973543.520 1
  22642778.127   -11804337.417 3  -9198162.446 1
 91  5 21 19 27 30.0000000  0  6 19 11 16 02 18 06
  21474712.064     3810789.475 3   2969440.839 2
  23352913.612    -5214485.758 3  -4063226.620 1
  23507298.934    -3654223.012 2  -2847449.680 1
  21354458.714   -13698444.818 4 -10674093.747 3
  23572943.591    14137787.264 2  11016428.669 1
  22637700.846   -11831016.382 2  -9218951.197 1
 91  5 21 19 27 45.0000000  0  6 19 11 16 02 18 06
  21479120.216     3833948.477 3   2987486.794 2
  23355583.565    -5200461.379 3  -4052298.499 1
  23510460.547    -3637595.609 2  -2834493.361 1
  21350347.364   -13720045.955 4 -10690925.779 3
  23583431.529    14192871.430 2  11059351.211 1
  22632624.761   -11857669.535 2  -9239719.859 1
 91  5 21 19 28  0.0000000  0  6 19 11 16 02 18 06
  21483540.958     3857166.075 3   3005578.410 2
  23358279.301    -5186282.593 3  -4041250.136 1
  23513651.537    -3620842.746 2  -2821439.190 1
  21346253.394   -13741558.525 4 -10707688.800 3
  23593920.969    14248003.553 2  11102311.167 1
  22627559.469   -11884296.528 2  -9260468.104 1
 91  5 21 19 28 15.0000000  0  6 19 11 16 02 18 06
  21487967.092     3880442.530 3   3023715.891 2
  23361011.612    -5171949.499 3  -4030081.467 1
  23516859.620    -3603964.588 2  -2808287.474 1
  21342175.915   -13762982.267 4 -10724382.599 3
  23604420.895    14303183.373 2  11145308.272 1
  22622502.265   -11910897.209 3  -9281195.859 2
 91  5 21 19 28 30.0000000  0  6 19 11 16 02 18 06
  21492404.316     3903777.655 3   3041899.071 2
  23363764.899    -5157462.413 3  -4018792.817 1
  23520097.377    -3586961.443 2  -2795038.321 1
  21338117.030   -13784317.488 4 -10741007.420 2
  23614930.123    14358410.474 2  11188342.226 1
  22617442.967   -11937471.801 2  -9301903.290 1
 91  5 21 19 28 45.0000000  0  6 19 11 16 02 18 06
  21496853.537     3927171.515 3   3060128.021 2
  23366550.870    -5142821.260 3  -4007384.119 1
  23523358.814    -3569833.265 2  -2781691.727 1
  21334072.226   -13805563.976 4 -10757563.095 3
  23625443.845    14413684.758 2  11231412.935 1
  22612391.766   -11964020.047 3  -9322590.192 1
 91  5 21 19 29  0.0000000  0  6 19 11 16 02 18 06
  21501322.547     3950624.594 3   3078403.116 2
  23369368.321    -5128025.861 3  -3995855.227 1
  23526641.541    -3552580.237 2  -2768247.853 1
  21330046.915   -13826721.514 4 -10774049.457 3
  23635979.754    14469006.488 2  11274520.661 1
  22607344.761   -11990541.723 3  -9343256.394 1
 91  5 21 19 29 15.0000000  0  6 19 11 16 02 18 06
  21505795.448     3974135.783 3   3096723.509 2
  23372213.055    -5113077.124 3  -3984206.887 1
  23529946.455    -3535203.507 2  -2754707.627 1
  21326037.195   -13847790.838 4 -10790467.084 3
  23646514.162    14524374.366 2  11317664.285 1
  22602300.750   -12017037.727 3  -9363902.599 1
 91  5 21 19 29 30.0000000  0  6 19 11 16 02 18 06
  21510280.346     3997706.797 3   3115090.504 2
  23375086.269    -5097973.637 3  -3972437.929 1
  23533281.052    -3517701.595 2  -2741069.881 1
  21322043.957   -13868770.317 4 -10806814.700 3
  23657059.957    14579789.460 2  11360844.722 1
  22597265.743   -12043506.423 3  -9384527.504 1
 91  5 21 19 29 45.0000000  0  6 19 11 16 02 18 06
  21514777.825     4021337.199 3   3133503.781 2
  23377988.257    -5082716.132 3  -3960548.956 1
  23536633.631    -3500075.337 2  -2727335.195 1
  21318070.211   -13889660.671 4 -10823092.867 3
  23667612.051    14635251.233 2  11404061.512 1
  22592235.517   -12069948.382 3  -9405131.585 1
 91  5 21 19 30  0.0000000  0  6 19 11 16 02 18 06
  21519286.412     4045025.302 3   3151962.004 2
  23380920.828    -5067306.262 2  -3948541.266 1
  23540010.493    -3482326.381 2  -2713504.903 1
  21314111.751   -13910463.424 4 -10839302.782 3
  23678174.040    14690757.862 2  11447313.266 1
  22587209.802   -12096365.171 2  -9425716.032 2
 91  5 21 19 30 15.0000000  0  6 19 11 16 02 18 06
  21523805.477     4068772.382 3   3170466.189 2
  23383885.175    -5051742.618 3  -3936413.769 1
  23543414.036    -3464453.547 2  -2699578.059 1
  21310170.375   -13931177.098 4 -10855443.287 3
  23688745.923    14746310.310 2  11490600.726 1
  22582187.673   -12122755.235 2  -9446279.690 2
 91  5 21 19 30 30.0000000  0  6 19 11 16 02 18 06
  21528330.851     4092578.211 3   3189016.148 2
  23386871.710    -5036025.792 2  -3924166.887 1
  23546839.461    -3446457.792 2  -2685555.390 1
  21306244.591   -13951802.173 4 -10871514.740 3
  23699327.997    14801908.067 2  11533923.508 1
  22577169.749   -12149119.053 2  -9466822.894 1
 91  5 21 19 30 45.0000000  0  6 19 11 16 02 18 06
  21532873.003     4116442.836 3   3207611.940 2
  23389893.913    -5020155.831 3  -3911800.671 1
  23550288.278    -3428339.114 2  -2671437.039 1
  21302335.000   -13972338.351 4 -10887516.928 3
  23709913.369    14857550.650 2  11577281.185 1
  22572151.529   -12175456.498 2  -9487345.537 1
 91  5 21 19 31  0.0000000  0  6 19 11 16 02 18 06
  21537431.349     4140365.312 3   3226252.810 2
  23392942.501    -5004133.765 3  -3899315.973 1
  23553758.376    -3410098.729 2  -2657223.801 1
  21298445.792   -13992786.466 4 -10903450.509 3
  23720515.231    14913236.882 2  11620672.898 1
  22567146.492   -12201768.586 2  -9507848.437 1
 91  5 21 19 31 15.0000000  0  6 19 11 16 02 18 06
  21541992.993     4164346.085 3   3244939.093 2
  23396020.475    -4987959.216 2  -3886712.426 1
  23557248.559    -3391736.198 2  -2642915.387 1
  21294570.378   -14013146.303 4 -10919315.289 3
  23731117.093    14968967.087 2  11664098.851 1
  22562147.746   -12228054.804 2  -9528331.159 2
 91  5 21 19 31 30.0000000  0  6 19 11 16 02 18 06
  21546565.421     4188385.596 3   3263671.149 2
  23399127.224    -4971632.020 2  -3873989.915 1
  23560765.721    -3373251.592 2  -2628511.832 1
  21290713.548   -14033417.496 4 -10935111.000 3
  23741731.537    15024741.326 2  11707559.137 1
  22557146.915   -12254314.702 3  -9548793.381 1
 91  5 21 19 31 45.0000000  0  6 19 11 16 02 18 06
  21551149.550     4212484.487 3   3282449.476 2
  23402261.851    -4955151.627 3  -3861148.082 1
  23564302.374    -3354644.429 2  -2614012.895 1
  21286875.303   -14053599.451 4 -10950837.169 3
  23752354.985    15080560.273 2  11751054.230 1
  22552160.760   -12280547.687 3  -9569234.629 1
 91  5 21 19 32  0.0000000  0  6 19 11 16 02 18 06
  21555747.167     4236642.113 3   3301273.571 2
  23405428.262    -4938518.807 3  -3848187.447 1
  23567873.796    -3335915.705 2  -2599419.124 1
  21283049.648   -14073692.818 4 -10966494.312 3
  23762983.529    15136422.573 2  11794583.142 1
  22547173.113   -12306754.445 3  -9589655.430 1
 91  5 21 19 32 15.0000000  0  6 19 11 16 02 18 06
  21560354.976     4260855.953 3   3320141.477 2
  23408625.247    -4921736.219 3  -3835110.123 1
  23571456.021    -3317068.209 2  -2584732.818 1
  21279240.492   -14093700.136 4 -10982084.407 3
  23773619.262    15192325.610 2  11838143.780 1
  22542187.568   -12332937.421 3  -9610057.722 1
 91  5 21 19 32 30.0000000  0  6 19 11 16 02 18 06
  21564976.579     4285128.140 3   3339054.843 2
  23411847.412    -4904801.828 3  -3821914.487 1
  23575070.319    -3298100.281 2  -2569952.703 1
  21275451.710   -14113619.106 4 -10997605.663 3
  23784268.790    15248271.209 2  11881737.579 1
  22537211.010   -12359094.479 3  -9630439.805 2
 91  5 21 19 32 45.0000000  0  6 19 11 16 02 18 06
  21569604.176     4309458.631 3   3358013.642 2
  23415099.260    -4887715.698 3  -3808600.631 1
  23578699.004    -3279012.007 2  -2555078.745 1
  21271678.824   -14133449.937 4 -11013058.225 3
  23794921.022    15304259.180 2  11925364.418 1
  22532237.759   -12385225.613 3  -9650801.689 1
 91  5 21 19 33  0.0000000  0  6 19 11 16 02 18 06
  21574246.457     4333847.421 3   3377017.856 2
  23418380.189    -4870478.094 3  -3795168.735 1
  23582355.872    -3259803.523 2  -2540111.173 1
  21267921.827   -14153192.363 4 -11028441.908 3
  23805583.140    15360288.934 2  11969023.789 1
  22527271.096   -12411330.803 3  -9671143.367 1
 91  5 21 19 33 15.0000000  0  6 19 11 16 02 18 06
  21578898.039     4358293.720 3   3396066.891 2
  23421689.003    -4853089.959 3  -3781619.549 1
  23586030.730    -3240475.960 2  -2525050.808 1
  21264180.117   -14172847.348 4 -11043757.454 3
  23816258.145    15416359.631 2  12012715.152 1
  22522310.426   -12437410.861 3  -9691465.447 1
 91  5 21 19 33 30.0000000  0  6 19 11 16 02 18 06
  21583561.314     4382800.000 3   3415162.652 2
  23425025.991    -4835548.892 3  -3767951.202 1
  23589736.467    -3221026.886 2  -2509895.681 1
  21260456.389   -14192412.406 4 -11059002.924 3
  23826932.557    15472473.515 2  12056440.014 1
  22517349.164   -12463463.248 3  -9711765.964 2
 91  5 21 19 33 45.0000000  0  6 19 11 16 02 18 06
  21588232.981     4407351.164 3   3434293.397 2
  23428386.667    -4817870.271 3  -3754175.666 1
  23593455.693    -3201471.982 2  -2494658.233 1
  21256750.355   -14211902.866 4 -11074190.266 3
  23837615.964    15528615.084 2  12100186.655 1
  22512394.794   -12489503.225 3  -9732056.815 1
 91  5 21 19 34  0.0000000  0  6 19 11 16 02 18 06
  21592910.643     4431959.930 3   3453469.026 2
  23431783.317    -4800041.502 3  -3740283.140 1
  23597197.099    -3181798.818 2  -2479328.560 1
  21253057.514   -14231306.024 4 -11089309.588 3
  23848306.561    15584796.836 2  12143964.464 1
  22507442.518   -12515518.001 3  -9752328.039 2
 91  5 21 19 34 15.0000000  0  6 19 11 16 02 18 06
  21597608.983     4456629.073 3   3472691.707 2
  23435206.640    -4782059.944 3  -3726271.537 1
  23600969.993    -3162004.832 2  -2463904.718 1
  21249382.358   -14250619.043 4 -11104358.667 3
  23859003.152    15641021.259 2  12187775.504 1
  22502496.542   -12541504.824 3  -9772577.466 1
 91  5 21 19 34 30.0000000  0  6 19 11 16 02 18 06
  21602314.530     4481355.526 3   3491959.049 2
  23438651.863    -4763928.725 3  -3712143.352 1
  23604756.969    -3142093.442 2  -2448389.400 1
  21245721.896   -14269844.997 4 -11119339.899 3
  23869715.038    15697284.873 2  12231617.082 1
  22497555.670   -12567466.629 3  -9792807.412 1
 91  5 21 19 34 45.0000000  0  6 19 11 16 02 18 06
  21607029.064     4506140.433 3   3511271.928 2
  23442133.347    -4745646.766 3  -3697897.683 1
  23608570.025    -3122063.406 2  -2432781.653 1
  21242079.111   -14288982.660 4 -11134252.341 3
  23880422.727    15753588.668 2  12275490.089 1
  22492622.877   -12593402.233 3  -9813016.931 1
 91  5 21 19 35  0.0000000  0  6 19 11 16 02 18 06
  21611757.096     4530982.758 3   3530629.556 2
  23445632.822    -4727215.398 3  -3683535.593 1
  23612393.577    -3101916.344 2  -2417082.674 1
  21238456.725   -14308033.204 4 -11149096.898 3
  23891151.400    15809931.261 2  12319393.202 1
  22487695.494   -12619312.771 3  -9833206.933 1
 91  5 21 19 35 15.0000000  0  6 19 11 16 02 18 06
  21616495.912     4555881.355 3   3550031.028 2
  23449173.376    -4708635.991 3  -3669058.172 1
  23616255.808    -3081653.703 2  -2401293.681 1
  21234846.920   -14326997.699 4 -11163874.410 3
  23901870.475    15866311.176 2  12363325.437 1
  22482767.805   -12645199.355 3  -9853378.256 1
 91  5 21 19 35 30.0000000  0  6 19 11 16 02 18 06
  21621247.921     4580838.148 3   3569477.860 2
  23452740.305    -4689906.742 3  -3654463.965 1
  23620138.115    -3061273.788 2  -2385413.306 1
  21231256.311   -14345874.178 4 -11178583.329 3
  23912609.941    15922730.028 2  12407288.020 1
  22477843.712   -12671060.109 3  -9873529.457 1
 91  5 21 19 35 45.0000000  0  6 19 11 16 02 18 06
  21626008.628     4605853.308 3   3588970.169 2
  23456330.923    -4671027.564 3  -3639752.950 2
  23624034.818    -3040776.727 2  -2369441.644 1
  21227680.980   -14364662.514 4 -11193223.570 3
  23923357.208    15979188.000 2  12451281.066 1
  22472932.810   -12696894.762 3  -9893660.324 1
 91  5 21 19 36  0.0000000  0  6 19 11 16 02 18 06
  21630774.431     4630928.610 3   3608509.340 2
  23459951.511    -4651996.753 3  -3624923.747 2
  23627959.102    -3020160.952 2  -2353377.459 1
  21224122.749   -14383360.745 4 -11207793.590 3
  23934109.264    16035686.430 2  12495305.679 1
  22468017.119   -12722701.405 3  -9913769.350 1
 91  5 21 19 36 15.0000000  0  6 19 11 16 02 18 06
  21635560.013     4656061.646 3   3628093.492 2
  23463599.392    -4632817.048 3  -3609978.555 1
  23631903.470    -2999429.088 2  -2337222.811 1
  21220581.297   -14401971.538 4 -11222295.481 3
  23944860.422    16092222.503 2  12539359.629 1
  22463113.110   -12748482.628 3  -9933858.586 1
 91  5 21 19 36 30.0000000  0  6 19 11 16 02 18 06
  21640355.194     4681254.431 3   3647724.212 2
  23467281.737    -4613486.601 3  -3594915.881 1
  23635874.826    -2978579.425 2  -2320976.402 1
  21217056.938   -14420493.010 4 -11236727.766 3
  23955638.261    16148798.045 2  12583444.279 1
  22458212.705   -12774236.301 3  -9953926.346 1
 91  5 21 19 36 45.0000000  0  6 19 11 16 02 18 06
  21645163.863     4706520.741 3   3667412.217 2
  23470994.367    -4593991.708 3  -3579725.090 1
  23639863.265    -2957598.504 2  -2304627.690 1
  21213550.561   -14438911.271 4 -11251079.623 3
  23966415.498    16205426.493 2  12627570.201 1
  22453318.591   -12799948.711 3  -9973961.953 1
 91  5 21 19 37  0.0000000  0  6 19 11 16 02 18 06
  21649979.434     4731845.590 3   3687145.831 2
  23474728.879    -4574347.567 3  -3564417.977 1
  23643877.783    -2936501.564 2  -2288188.596 1
  21210062.481   -14457241.317 4 -11265362.759 3
  23977190.335    16262092.834 2  12671725.582 1
  22448429.572   -12825634.777 3  -9993977.030 2
 91  5 21 19 37 15.0000000  0  6 19 11 16 02 18 06
  21654806.687     4757227.315 3   3706923.783 2
  23478494.880    -4554556.012 2  -3548995.995 1
  23647919.289    -2915290.746 2  -2271660.780 1
  21206590.882   -14475484.855 4 -11279578.481 3
  23987979.866    16318794.581 2  12715908.608 1
  22443547.158   -12851296.198 3 -10013972.926 2
 91  5 21 19 37 30.0000000  0  6 19 11 16 02 18 06
  21659660.326     4782666.299 3   3726746.347 2
  23482285.748    -4534616.835 2  -3533458.991 1
  23651972.477    -2893965.695 2  -2255043.880 1
  21203137.275   -14493641.537 4 -11293726.514 3
  23998777.494    16375532.016 2  12760119.395 1
  22438673.731   -12876932.587 3 -10033949.282 2
 91  5 21 19 37 45.0000000  0  6 19 11 16 02 18 06
  21664506.173     4808164.006 3   3746614.661 2
  23486112.005    -4514528.720 2  -3517805.930 1
  23656052.059    -2872525.332 2  -2238337.179 1
  21199698.351   -14511709.891 4 -11307805.725 3
  24009583.811    16432306.428 2  12804359.021 1
  22433797.006   -12902542.457 3 -10053905.008 1
 91  5 21 19 38  0.0000000  0  6 19 11 16 02 18 06
  21669365.212     4833721.063 3   3766529.222 2
  23489958.644    -4494291.087 2  -3502036.383 1
  23660153.820    -2850969.383 2  -2221540.435 1
  21196276.521   -14529689.124 4 -11321815.488 3
  24020394.928    16489118.280 2  12848627.821 1
  22428928.073   -12928125.011 3 -10073839.424 1
 91  5 21 19 38 15.0000000  0  6 19 11 16 02 18 06
  21674244.031     4859333.911 3   3786487.264 2
  23493841.553    -4473907.801 2  -3486153.330 1
  23664275.064    -2829301.762 2  -2204656.625 1
  21192871.181   -14547583.126 4 -11335758.836 3
  24031204.544    16545963.708 2  12892922.829 1
  22424066.346   -12953683.934 3 -10093755.434 2
 91  5 21 19 38 30.0000000  0  6 19 11 16 02 18 06
  21679136.645     4885003.788 3   3806489.730 2
  23497749.643    -4453377.838 2  -3470155.963 1
  23668430.484    -2807521.536 2  -2187685.093 1
  21189482.025   -14565390.594 4 -11349634.748 3
  24042035.144    16602843.444 2  12937244.456 1
  22419210.003   -12979217.982 3 -10113652.055 1
 91  5 21 19 38 45.0000000  0  6 19 11 16 02 18 06
  21684025.061     4910731.732 3   3826537.458 2
  23501687.119    -4432700.096 2  -3454043.460 2
  23672587.711    -2785627.592 2  -2170624.921 1
  21186111.760   -14583110.426 4 -11363442.373 3
  24052867.550    16659758.502 2  12981593.683 1
  22414351.566   -13004725.941 3 -10133528.354 1
 91  5 21 19 39  0.0000000  0  6 19 11 16 02 18 06
  21688932.368     4936517.828 3   3846630.491 2
  23505649.775    -4411874.669 3  -3437815.882 1
  23676777.909    -2763620.200 2  -2153476.399 1
  21182753.483   -14600742.414 4 -11377181.562 3
  24063702.346    16716708.451 2  13025970.124 1
  22409500.929   -13030207.650 3 -10153384.185 1
 91  5 21 19 39 15.0000000  0  6 19 11 16 02 18 06
  21693846.559     4962359.507 3   3866766.829 2
  23509638.520    -4390904.554 3  -3421475.565 1
  23680984.598    -2741502.250 2  -2136241.717 1
  21179418.293   -14618289.351 4 -11390854.478 3
  24074541.043    16773690.563 2  13070371.598 1
  22404656.277   -13055665.924 3 -10173221.777 1
 91  5 21 19 39 30.0000000  0  6 19 11 16 02 18 06
  21698780.547     4988258.181 3   3886947.589 2
  23513659.329    -4369788.278 3  -3405021.330 1
  23685220.063    -2719272.718 2  -2118920.036 1
  21176095.091   -14635749.885 4 -11404460.064 3
  24085398.324    16830706.041 2  13114799.047 1
  22399816.127   -13081099.123 3 -10193039.829 1
 91  5 21 19 39 45.0000000  0  6 19 11 16 02 18 06
  21703712.432     5014212.102 3   3907171.403 2
  23517703.234    -4348527.766 3  -3388454.717 1
  23689469.322    -2696933.530 2  -2101512.939 1
  21172788.379   -14653125.654 4 -11417999.602 3
  24096249.917    16887752.819 2  13159250.908 1
  22394983.473   -13106508.992 3 -10212839.674 1
 91  5 21 19 40  0.0000000  0  6 19 11 16 02 18 06
  21708669.201     5040221.916 3   3927438.765 2
  23521773.811    -4327122.610 2  -3371775.391 1
  23693742.566    -2674484.245 2  -2084020.062 1
  21169496.963   -14670416.034 4 -11431472.594 3
  24107110.792    16944831.170 2  13203727.377 1
  22390154.116   -13131894.900 3 -10232620.878 1
 91  5 21 19 40 15.0000000  0  6 19 11 16 02 18 06
  21713623.868     5066287.131 3   3947749.293 2
  23525876.174    -4305573.465 2  -3354983.883 1
  23698032.292    -2651925.821 2  -2066442.127 1
  21166222.927   -14687621.514 4 -11444879.434 3
  24117982.470    17001940.460 2  13248227.949 1
  22385322.666   -13157257.311 3 -10252383.765 1
 91  5 21 19 40 30.0000000  0  6 19 11 16 02 18 06
  21718602.223     5092409.257 3   3968104.162 2
  23530000.716    -4283879.058 2  -3338079.147 1
  23702350.209    -2629257.000 2  -2048778.185 1
  21162966.280   -14704740.825 4 -11458219.136 3
  24128855.936    17059081.956 2  13292753.618 1
  22380501.101   -13182594.690 3 -10272127.148 2
 91  5 21 19 40 45.0000000  0  6 19 11 16 02 18 06
  21723578.179     5118588.116 3   3988503.266 2
  23534161.537    -4262039.828 2  -3321061.582 1
  23706681.004    -2606478.514 2  -2031028.818 1
  21159722.825   -14721774.103 4 -11471491.796 3
  24139730.310    17116255.047 2  13337303.889 1
  22375691.228   -13207907.331 3 -10291851.239 2
 91  5 21 19 41  0.0000000  0  6 19 11 16 02 18 06
  21728569.124     5144824.833 3   4008947.423 2
  23538340.943    -4240054.875 3  -3303930.462 1
  23711037.294    -2583589.595 2  -2013193.378 1
  21156501.559   -14738720.136 4 -11484696.476 3
  24150613.679    17173460.526 2  13381879.424 1
  22370873.563   -13233194.062 3 -10311555.169 2
 91  5 21 19 41 15.0000000  0  6 19 11 16 02 18 06
  21733572.957     5171117.999 3   4029435.572 2
  23542554.830    -4217925.711 2  -3286686.978 1
  23715409.760    -2560591.627 2  -1995272.951 1
  21153289.585   -14755580.298 4 -11497834.250 3
  24161511.733    17230696.874 2  13426479.030 1
  22366068.497   -13258456.081 3 -10331239.840 2
 91  5 21 19 41 30.0000000  0  6 19 11 16 02 18 06
  21738589.685     5197468.274 3   4049968.231 2
  23546792.092    -4195651.980 3  -3269330.841 1
  23719812.519    -2537484.233 2  -1977267.241 1
  21150098.289   -14772354.158 4 -11510904.764 3
  24172410.388    17287964.114 2  13471102.626 1
  22361265.517   -13283693.007 3 -10350904.927 2
 91  5 21 19 41 45.0000000  0  6 19 11 16 02 18 06
  21743613.306     5223879.116 3   4070548.071 2
  23551054.840    -4173230.315 3  -3251859.447 1
  23724232.354    -2514264.537 2  -1959174.025 1
  21146921.695   -14789038.317 4 -11523905.379 3
  24183315.335    17345265.412 2  13515752.880 1
  22356470.040   -13308901.102 3 -10370547.567 2
 91  5 21 19 42  0.0000000  0  6 19 11 16 02 18 06
  21748649.823     5250347.851 3   4091173.026 2
  23555352.366    -4150663.511 3  -3234274.925 1
  23728671.681    -2490935.205 2  -1940995.374 1
  21143763.676   -14805635.340 4 -11536838.102 3
  24194222.384    17402598.272 2  13560427.610 1
  22351671.858   -13334083.109 3 -10390169.877 2
 91  5 21 19 42 15.0000000  0  6 19 11 16 02 18 06
  21753697.429     5276873.849 3   4111842.609 2
  23559675.972    -4127952.598 3  -3216578.126 1
  23733128.693    -2467497.500 2  -1922732.313 1
  21140622.454   -14822145.888 4 -11549703.436 3
  24205144.423    17459961.359 2  13605125.973 1
  22346883.274   -13359239.613 3 -10409772.313 2
 91  5 21 19 42 30.0000000  0  6 19 11 16 02 18 06
  21758756.430     5303459.160 3   4132558.402 2
  23564025.369    -4105095.660 2  -3198767.532 1
  23737606.698    -2443949.630 2  -1904383.380 1
  21137498.917   -14838567.936 4 -11562499.811 3
  24216067.666    17517356.631 2  13649849.331 1
  22342108.781   -13384368.536 3 -10429353.262 2
 91  5 21 19 42 45.0000000  0  6 19 11 16 02 18 06
  21763825.919     5330101.595 3   4153318.716 2
  23568399.336    -4082094.903 2  -3180844.874 1
  23742107.485    -2420293.684 2  -1885950.287 1
  21134390.065   -14854903.831 4 -11575229.061 3
  24226989.103    17574781.673 2  13694595.957 1
  22337326.488   -13409472.044 3 -10448914.417 2
 91  5 21 19 43  0.0000000  0  6 19 11 16 02 18 06
  21768905.896     5356799.942 3   4174122.581 2
  23572803.588    -4058951.748 3  -3162811.251 1
  23746626.856    -2396531.303 2  -1867434.174 1
  21131296.508   -14871154.694 4 -11587892.052 3
  24237924.936    17632234.930 2  13739364.590 1
  22332555.589   -13434551.138 3 -10468456.527 2
 91  5 21 19 43 15.0000000  0  6 19 11 16 02 18 06
  21773997.276     5383545.008 3   4194962.882 2
  23577233.622    -4035675.478 3  -3144673.951 1
  23751171.110    -2372671.788 2  -1848842.455 1
  21128219.738   -14887329.651 4 -11600495.897 3
  24248857.463    17689707.023 2  13784147.871 1
  22327787.091   -13459615.146 3 -10487986.887 2
 91  5 21 19 43 30.0000000  0  6 19 11 16 02 18 06
  21779102.145     5410349.456 3   4215849.433 2
  23581691.533    -4012253.803 2  -3126423.314 2
  23755732.746    -2348703.183 2  -1830165.658 1
  21125159.755   -14903416.182 4 -11613030.834 3
  24259804.386    17747210.130 2  13828955.315
  22323026.087   -13484651.358 3 -10507495.580 2
 91  5 21 19 43 45.0000000  0  6 19 11 16 02 18 06
  21784210.007     5437211.887 3   4236781.172 2
  23586178.830    -3988688.358 3  -3108060.653 1
  23760325.268    -2324627.176 2  -1811405.239 1
  21122112.668   -14919415.544 4 -11625497.855 3
  24270757.905    17804742.688 2  13873785.683 1
  22318267.787   -13509661.027 3 -10526983.594 2
 91  5 21 19 44  0.0000000  0  6 19 11 16 02 18 06
  21789331.358     5464130.881 3   4257756.981 2
  23590688.909    -3964980.694 2  -3089587.179 1
  23764915.992    -2300445.562 2  -1792562.459 1
  21119085.360   -14935329.165 4 -11637898.060 3
  24281709.025    17862303.087 2  13918637.757 1
  22313508.581   -13534645.604 3 -10546452.046 2
 91  5 21 19 44 15.0000000  0  6 19 11 16 02 18 06
  21794464.410     5491108.259 3   4278778.278 2
  23595225.966    -3941129.244 3  -3071001.669 1
  23769540.588    -2276156.741 2  -1773636.178 1
  21116071.245   -14951155.542 4 -11650230.279 3
  24292670.937    17919892.548 2  13963512.514 1
  22308760.167   -13559603.391 3 -10565899.649 2
 91  5 21 19 44 30.0000000  0  6 19 11 16 02 18 06
  21799609.440     5518141.494 3   4299843.116 2
  23599790.306    -3917136.854 2  -3052306.324 1
  23774178.079    -2251763.336 2  -1754628.416 1
  21113078.123   -14966897.188 4 -11662496.483 3
  24303624.753    17977508.417 2  14008407.810 1
  22304020.147   -13584536.853 3 -10585328.279 2
 91  5 21 19 44 45.0000000  0  6 19 11 16 02 18 06
  21804759.881     5545229.269 3   4320950.448 2
  23604384.329    -3893004.753 2  -3033502.099 1
  23778845.245    -2227267.080 2  -1735540.487 1
  21110098.481   -14982555.272 4 -11674697.563 3
  24314596.551    18035149.488 2  14053322.700 1
  22299274.735   -13609447.075 3 -10604738.797 2
 91  5 21 19 45  0.0000000  0  6 19 11 16 02 18 06
  21809928.601     5572368.496 3   4342097.850 2
  23609004.422    -3868736.386 2  -3014591.712 1
  23783523.509    -2202671.466 2  -1716375.125 1
  21107134.134   -14998133.105 4 -11686836.118 3
  24325571.953    18092812.014 2  14098254.400 1
  22294536.512   -13634337.320 3 -10624133.787 2
 91  5 21 19 45 15.0000000  0  6 19 11 16 02 18 06
  21815101.822     5599563.134 3   4363288.452 2
  23613650.909    -3844328.057 3  -2995572.264 1
  23788229.955    -2177972.595 2  -1697129.322 1
  21104186.277   -15013626.655 4 -11698908.999 3
  24336554.256    18150499.684 2  14143205.663 1
  22289806.386   -13659203.553 3 -10643510.027 2
 91  5 21 19 45 30.0000000  0  6 19 11 16 02 18 06
  21820290.924     5626826.206 3   4384532.367 2
  23618323.475    -3819766.881 2  -2976433.716 1
  23792950.186    -2153157.695 2  -1677793.100 1
  21101256.107   -15029022.889 4 -11710906.057 3
  24347531.159    18208225.170 2  14188186.331 1
  22285083.162   -13684032.570 3 -10662857.291 2
 91  5 21 19 45 45.0000000  0  6 19 11 16 02 18 06
  21825491.124     5654144.005 3   4405818.932 2
  23623020.926    -3795066.859 2  -2957186.963 1
  23797689.002    -2128241.219 2  -1658377.806 1
  21098341.222   -15044335.581 4 -11722838.007 3
  24358525.441    18265974.492 2  14233185.665 1
  22280364.126   -13708838.179 3 -10682186.316 2
 91  5 21 19 46  0.0000000  0  6 19 11 16 02 18 06
  21830701.218     5681516.428 3   4427148.055 2
  23627744.455    -3770228.051 2  -2937832.070 1
  23802452.406    -2103223.601 2  -1638883.646 1
  21095442.532   -15059564.797 4 -11734704.909 3
  24369516.435    18323747.615 2  14278203.499 1
  22275646.887   -13733620.283 3 -10701497.031 2
 91  5 21 19 46 15.0000000  0  6 19 11 16 02 18 06
  21835918.204     5708943.417 3   4448519.711 2
  23632502.161    -3745250.848 3  -2918369.344 1
  23807225.101    -2078104.871 2  -1619310.711 1
  21092560.026   -15074710.804 4 -11746506.976 3
  24380522.418    18381543.938 2  14323239.844 1
  22270936.253   -13758379.099 3 -10720789.565 2
 91  5 21 19 46 30.0000000  0  6 19 11 16 02 18 06
  21841148.689     5736426.933 3   4469935.397 2
  23637281.453    -3720133.494 2  -2898797.387 1
  23812023.579    -2052883.263 2  -1599657.550 1
  21089695.206   -15089771.545 4 -11758242.606 3
  24391523.000    18439365.076 2  14368295.164 1
  22266228.315   -13783112.448 3 -10740062.284 2
 91  5 21 19 46 45.0000000  0  6 19 11 16 02 18 06
  21846385.159     5763969.280 3   4491396.938 2
  23642090.419    -3694873.868 3  -2879114.618 1
  23816839.744    -2027556.951 2  -1579922.833 1
  21086846.580   -15104744.814 4 -11769910.078 3
  24402515.791    18497213.027 2  14413371.294
  22261530.559   -13807818.008 3 -10759313.339 2
 91  5 21 19 47  0.0000000  0  6 19 11 16 02 18 06
  21851644.123     5791569.613 3   4512903.670 2
  23646926.075    -3669473.486 3  -2859322.150 1
  23821687.990    -2002127.551 2  -1560107.748 1
  21084012.046   -15119631.667 4 -11781510.202 3
  24413537.960    18555086.575 2  14458467.320 1
  22256830.719   -13832496.841 3 -10778543.581 2
 91  5 21 19 47 15.0000000  0  6 19 11 16 02 18 06
  21856906.681     5819233.568 3   4534459.964 2
  23651780.909    -3643926.573 2  -2839415.438 1
  23826548.521    -1976589.529 2  -1540208.144 1
  21081197.291   -15134426.172 4 -11793038.368 3
  24424564.927    18612991.154 2  14503587.609 1
  22252138.669   -13857143.061 3 -10797748.399 2
 91  5 21 19 47 30.0000000  0  6 19 11 16 02 18 06
  21862183.627     5846957.615 3   4556063.085 2
  23656672.327    -3618236.701 2  -2819397.416 1
  23831427.349    -1950946.410 2  -1520226.497 1
  21078398.729   -15149131.871 4 -11804497.346 3
  24435593.089    18670923.115 2  14548729.181 1
  22247457.709   -13881760.178 3 -10816930.534 1
 91  5 21 19 47 45.0000000  0  6 19 11 16 02 18 06
  21867467.169     5874739.678 3   4577711.417 2
  23661588.324    -3592406.354 2  -2799269.916 1
  23836327.457    -1925200.521 2  -1500164.850 1
  21075618.753   -15163750.920 4 -11815888.800 3
  24446614.062    18728880.247 2  14593890.518 1
  22242778.241   -13906350.143 3 -10836091.528 2
 91  5 21 19 48  0.0000000  0  6 19 11 16 02 18 06
  21872763.598     5902576.919 3   4599402.740 2
  23666527.407    -3566438.639 2  -2779035.322 1
  23841243.149    -1899355.309 2  -1480025.812 1
  21072850.773   -15178286.377 4 -11827215.115 3
  24457645.226    18786859.078 2  14639069.016 1
  22238103.878   -13930915.863 3 -10855233.604 2
 91  5 21 19 48 15.0000000  0  6 19 11 16 02 18 06
  21878072.626     5930473.271 3   4621140.141 2
  23671497.360    -3540329.668 2  -2758690.697 1
  23846181.028    -1873407.196 2  -1459806.546 1
  21070101.674   -15192734.278 4 -11838473.200 3
  24468685.385    18844863.433 2  14684267.094 1
  22233431.617   -13955453.290 3 -10874353.659 2
 91  5 21 19 48 30.0000000  0  6 19 11 16 02 18 06
  21883391.243     5958428.232 3   4642923.190 2
  23676491.010    -3514080.303 2  -2738236.699 1
  23851140.799    -1847356.938 2  -1439507.765 1
  21067368.464   -15207095.207 4 -11849663.512 3
  24479727.037    18902892.493 2  14729484.326 1
  22228766.249   -13979962.980 3 -10893452.083 2
 91  5 21 19 48 45.0000000  0  6 19 11 16 02 18 06
  21888724.247     5986441.995 3   4664752.067 2
  23681510.731    -3487690.525 2  -2717673.240 1
  23856113.753    -1821204.793 2  -1419129.459 1
  21064651.142   -15221368.953 4 -11860785.892 3
  24490780.083    18960946.189 2  14774720.818 1
  22224109.266   -14004444.666 3 -10912528.704 1
 91  5 21 19 49  0.0000000  0  6 19 11 16 02 18 06
  21894070.148     6014516.651 3   4686628.395 2
  23686563.730    -3461158.632 2  -2696999.092 1
  23861112.796    -1794948.913 2  -1398670.524 1
  21061953.609   -15235553.627 4 -11871838.872 3
  24501824.143    19019026.150 2  14819977.775 1
  22219455.292   -14028896.232 3 -10931581.834 1
 91  5 21 19 49 15.0000000  0  6 19 11 16 02 18 06
  21899422.644     6042650.989 3   4708551.222 2
  23691638.916    -3434486.007 2  -2676215.260 1
  23866122.326    -1768590.567 2  -1378131.562 1
  21059271.371   -15249650.388 4 -11882823.332 3
  24512887.982    19077130.907 2  14865254.007 1
  22214811.205   -14053318.851 3 -10950612.440 2
 91  5 21 19 49 30.0000000  0  6 19 11 16 02 18 06
  21904786.536     6070847.003 3   4730522.108 2
  23696739.292    -3407670.765 2  -2655320.296 1
  23871162.437    -1742128.042 2  -1357511.455 1
  21056606.514   -15263656.959 4 -11893737.523 3
  24523941.029    19135262.573 2  14910551.226 1
  22210167.423   -14077710.484 3 -10969618.872 2
 91  5 21 19 49 45.0000000  0  6 19 11 16 02 18 06
  21910163.908     6099104.121 3   4752540.613 2
  23701872.334    -3380713.860 2  -2634314.961 1
  23876220.234    -1715562.480 2  -1336811.127
  21053956.349   -15277574.268 4 -11904582.165 3
  24535015.059    19193420.064 2  14955868.569 1
  22205532.628   -14102071.483 3 -10988601.452 2
 91  5 21 19 50  0.0000000  0  6 19 11 16 02 18 06
  21915554.175     6127420.801 3   4774605.538 2
  23707024.267    -3353616.983 2  -2613200.542 2
  23881293.920    -1688895.957 2  -1316032.129 1
  21051327.465   -15291403.827 4 -11915358.423 3
  24546083.104    19251601.243 2  15001204.347 1
  22200900.537   -14126403.692 3 -11007561.596 2
 91  5 21 19 50 15.0000000  0  6 19 11 16 02 18 06
  21920952.836     6155799.003 3   4796718.390 2
  23712212.478    -3326378.373 2  -2591975.682 2
  23886387.394    -1662126.632 2  -1295172.900 1
  21048711.180   -15305143.683 4 -11926064.785 3
  24557166.723    19309807.967 2  15046560.065 1
  22196279.833   -14150704.944 3 -11026497.597 2
 91  5 21 19 50 30.0000000  0  6 19 11 16 02 18 06
  21926364.995     6184236.946 3   4818877.794 2
  23717423.768    -3299000.070 2  -2570641.988 1
  23891501.556    -1635256.358 2  -1274235.161 1
  21046114.082   -15318795.745 4 -11936702.734 3
  24568245.256    19368038.337 2  15091934.174 1
  22191656.136   -14174976.732 3 -11045410.658 2
 91  5 21 19 50 45.0000000  0  6 19 11 16 02 18 06
  21931790.634     6212738.195 3   4841086.523 2
  23722659.941    -3271478.690 2  -2549196.780 1
  23896633.709    -1608282.195 2  -1253216.444 1
  21043531.667   -15332356.411 4 -11947269.467 3
  24579335.480    19426295.373 2  15137329.064 1
  22187047.123   -14199215.624 3 -11064298.084 2
 91  5 21 19 51  0.0000000  0  6 19 11 16 02 18 06
  21937227.372     6241302.373 2   4863344.296 2
  23727924.297    -3243814.763 2  -2527640.542 1
  23901786.234    -1581204.629 2  -1232117.058 1
  21040968.737   -15345826.012 4 -11957765.245 3
  24590414.012    19484578.615 2  15182744.377 1
  22182440.815   -14223421.924 3 -11083160.118 2
 91  5 21 19 51 15.0000000  0  6 19 11 16 02 18 06
  21942669.510     6269930.767 3   4885652.094 2
  23733207.839    -3216007.402 2  -2505972.520 1
  23906966.951    -1554022.847 2  -1210936.567 1
  21038423.806   -15359203.476 4 -11968189.227 3
  24601512.927    19542889.170 2  15228180.979 1
  22177839.001   -14247594.291 3 -11101995.698 1
 91  5 21 19 51 30.0000000  0  6 19 11 16 02 18 06
  21948133.226     6298623.687 3   4908010.174 2
  23738532.153    -3188056.535 2  -2484192.662 1
  23912153.958    -1526737.081 2  -1189674.938 1
  21035894.754   -15372488.504 4 -11978541.173 3
  24612612.146    19601226.845 2  15273638.751 1
  22173246.784   -14271732.528 3 -11120804.675 2
 91  5 21 19 51 45.0000000  0  6 19 11 16 02 18 06
  21953605.038     6327380.336 3   4930417.926 2
  23743876.256    -3159963.311 2  -2462301.886 2
  23917367.351    -1499348.215 2  -1168333.084 1
  21033385.788   -15385681.801 4 -11988821.643 3
  24623726.652    19659590.631 2  15319116.836 1
  22168662.054   -14295837.275 3 -11139587.557 2
 91  5 21 19 52  0.0000000  0  6 19 11 16 02 18 06
  21959092.434     6356200.970 3   4952875.541 2
  23749247.939    -3131727.530 2  -2440299.982 1
  23922601.125    -1471856.140 2  -1146910.783 1
  21030891.218   -15398783.258 4 -11999030.559 3
  24634831.561    19717980.534 2  15364615.329 1
  22164075.831   -14319908.072 3 -11158344.003 2
 91  5 21 19 52 15.0000000  0  6 19 11 16 02 18 06
  21964584.035     6385082.916 3   4975380.915 2
  23754651.094    -3103352.119 2  -2418189.330 1
  23927849.295    -1444264.110 2  -1125410.548 1
  21028416.734   -15411795.483 4 -12009169.923 3
  24645952.367    19776393.493 2  15410132.071
  22159503.996   -14343947.648 3 -11177076.113 2
 91  5 21 19 52 30.0000000  0  6 19 11 16 02 18 06
  21970094.822     6414031.377 3   4997938.125 2
  23760081.235    -3074832.017 3  -2395965.899 1
  23933124.443    -1416567.343 2  -1103828.765 1
  21025957.832   -15424713.404 4 -12019235.812 3
  24657075.266    19834834.462 2  15455670.380 1
  22154939.351   -14367950.821 3 -11195779.867 1
 91  5 21 19 52 45.0000000  0  6 19 11 16 02 18 06
  21975614.596     6443044.721 3   5020545.889 2
  23765530.563    -3046169.135 2  -2373631.197 1
  23938408.282    -1388767.721 2  -1082166.810 1
  21023517.219   -15437538.530 4 -12029229.397 3
  24668201.455    19893301.728 2  15501229.119 1
  22150378.911   -14391919.005 3 -11214456.346 2
 91  5 21 19 53  0.0000000  0  6 19 11 16 02 18 06
  21981153.863     6472123.664 3   5043204.772 2
  23771015.568    -3017363.104 3  -2351185.014 1
  23943713.410    -1360864.905 2  -1060424.414 1
  21021094.596   -15450270.459 4 -12039150.373 3
  24679322.863    19951795.488 2  15546808.902 1
  22145819.666   -14415851.733 3 -11233105.181 2
 91  5 21 19 53 15.0000000  0  6 19 11 16 02 18 06
  21986694.028     6501266.513 3   5065913.447 2
  23776521.556    -2988415.858 2  -2328628.753 1
  23949045.219    -1332860.739 2  -1038603.046 1
  21018688.168   -15462910.822 4 -12048999.986 3
  24690458.650    20010313.949 2  15592407.514 1
  22141274.216   -14439750.252 3 -11251727.377 2
 91  5 21 19 53 30.0000000  0  6 19 11 16 02 18 06
  21992249.182     6530474.463 3   5088672.857 2
  23782059.322    -2959326.285 3  -2305961.569 1
  23954390.518    -1304754.113 2  -1016701.917 1
  21016298.221   -15475458.325 4 -12058777.236 3
  24701611.834    20068858.112 2  15638026.131 1
  22136732.963   -14463613.300 3 -11270321.938 2
 91  5 21 19 53 45.0000000  0  6 19 11 16 02 18 06
  21997819.929     6559747.400 3   5111482.910 2
  23787621.369    -2930094.977 3  -2283184.012 2
  23959760.107    -1276545.944 2   -994721.578 1
  21013929.563   -15487913.301 4 -12068482.388 3
  24712756.913    20127427.437 2  15683664.410 1
  22132197.398   -14487441.333 3 -11288889.205 2
 91  5 21 19 54  0.0000000  0  6 19 11 16 02 18 06
  22003409.260     6589088.362 3   5134345.952 2
  23793212.498    -2900719.279 2  -2260293.878 1
  23965152.468    -1248233.354 2   -972659.909 1
  21011579.787   -15500272.771 4 -12078113.120 3
  24723897.498    20186024.617 2  15729324.361 1
  22127672.033   -14511231.152 3 -11307426.708 2
 91  5 21 19 54 15.0000000  0  6 19 11 16 02 18 06
  22009002.185     6618494.410 3   5157259.710 2
  23798827.611    -2871202.263 2  -2237293.617 1
  23970554.131    -1219819.618 2   -950519.415 1
  21009243.202   -15512539.648 4 -12087671.709 4
  24735054.574    20244646.290 2  15775003.371 1
  22123153.256   -14534985.578 3 -11325936.614 2
 91  5 21 19 54 30.0000000  0  6 19 11 16 02 18 06
  22014611.601     6647965.122 3   5180223.868 2
  23804466.710    -2841544.480 2  -2214183.695 2
  23975979.779    -1191305.829 2   -928300.970 1
  21006928.204   -15524714.323 4 -12097158.443 3
  24746212.854    20303291.859 2  15820701.380 1
  22118635.386   -14558704.962 3 -11344419.218 2
 91  5 21 19 54 45.0000000  0  6 19 11 16 02 18 06
  22020231.208     6677499.654 3   5203237.750 2
  23810141.783    -2811747.061 2  -2190964.988 1
  23981432.998    -1162693.038 2   -906005.411 1
  21004630.900   -15536797.796 4 -12106574.114 3
  24757382.817    20361960.262 2  15866416.987 1
  22114130.403   -14582390.092 3 -11362875.152 2
 91  5 21 19 55  0.0000000  0  6 19 11 16 02 18 06
  22025864.313     6707098.972 3   5226302.101 2
  23815843.537    -2781809.414 2  -2167636.990 1
  23986892.517    -1133980.484 2   -883632.070 1
  21002346.178   -15548789.337 4 -12115918.162 4
  24768544.997    20420652.075 2  15912150.662 1
  22109632.923   -14606040.053 3 -11381303.653 2
 91  5 21 19 55 15.0000000  0  6 19 11 16 02 18 06
  22031510.602     6736764.041 3   5249417.706 2
  23821562.671    -2751730.708 2  -2144199.074 1
  23992370.629    -1105167.781 2   -861180.693 1
  21000085.145   -15560687.688 4 -12125189.593 3
  24779724.252    20479368.269 2  15957903.484 1
  22105129.441   -14629653.516 3 -11399703.741 2
 91  5 21 19 55 30.0000000  0  6 19 11 16 02 18 06
  22037167.090     6766495.460 3   5272584.993 2
  23827307.902    -2721510.519 2  -2120650.913 1
  23997869.725    -1076254.266 2   -838650.784 1
  20997833.098   -15572492.326 4 -12134387.991 3
  24790903.211    20538108.940 2  16003675.654 1
  22100648.137   -14653229.984 3 -11418074.974 2
 91  5 21 19 55 45.0000000  0  6 19 11 16 02 18 06
  22042836.159     6796289.538 3   5295801.134 2
  23833089.395    -2691152.891 2  -2096995.639 1
  24003394.900    -1047243.858 2   -816045.354 1
  20995604.749   -15584207.088 4 -12143516.358 3
  24802088.774    20596870.032 2  16049463.700 1
  22096168.937   -14676773.146 3 -11436420.258 2
 91  5 21 19 56  0.0000000  0  6 19 11 16 02 18 06
  22048522.924     6826148.654 2   5319067.935 2
  23838896.679    -2660655.669 3  -2073231.606 1
  24008939.855    -1018134.845 2   -793363.059 1
  20993394.976   -15595829.616 4 -12152572.855 3
  24813277.322    20655653.769 2  16095269.101 1
  22091696.935   -14700280.371 3 -11454737.559 2
 91  5 21 19 56 15.0000000  0  6 19 11 16 02 18 06
  22054212.986     6856075.173 2   5342387.254 2
  23844727.635    -2630016.788 3  -2049357.244 1
  24014495.612     -988925.212 2   -770602.475 1
  20991200.794   -15607357.618 4 -12161555.700 3
  24824449.989    20714462.181 2  16141093.676 1
  22087231.232   -14723749.548 3 -11473025.202 2
 91  5 21 19 56 30.0000000  0  6 19 11 16 02 18 06
  22059919.835     6886068.169 2   5365758.372 2
  23850588.578    -2599237.263 3  -2025373.220 1
  24020055.862     -959616.003 2   -747764.197 1
  20989022.501   -15618791.903 4 -12170465.516 3
  24835656.833    20773294.258 2  16186936.635 1
  22082770.913   -14747181.215 3 -11491283.622 2
 91  5 21 19 56 45.0000000  0  6 19 11 16 02 18 06
  22065638.978     6916128.701 2   5389182.110 2
  23856466.614    -2568316.424 2  -2001279.106 1
  24025667.974     -930206.678 2   -724847.950 1
  20986868.193   -15630131.592 4 -12179301.618 3
  24846859.777    20832150.800 2  16232798.642 1
  22078320.793   -14770574.561 3 -11509512.179 2
 91  5 21 19 57  0.0000000  0  6 19 11 16 02 18 06
  22071375.205     6946255.402 3   5412657.411 2
  23862378.818    -2537256.026 2  -1977076.235 1
  24031282.485     -900698.783 2   -701854.928 1
  20984727.374   -15641378.201 4 -12188065.194 3
  24858063.916    20891029.951 2  16278678.271 1
  22073877.270   -14793930.574 3 -11527711.641 2
 91  5 21 19 57 15.0000000  0  6 19 11 16 02 18 06
  22077118.028     6976450.893 3   5436186.323 2
  23868318.008    -2506053.616 3  -1952762.716 1
  24036918.888     -871090.258 2   -678783.439 1
  20982607.844   -15652529.147 4 -12196754.232 3
  24869277.356    20949934.258 1  16324577.600 1
  22069436.451   -14817246.690 3 -11545880.018 2
 91  5 21 19 57 30.0000000  0  6 19 11 16 02 18 06
  22082879.139     7006713.410 3   5459767.464 2
  23874278.182    -2474711.406 2  -1928340.266 1
  24042565.177     -841383.429 2   -655635.336 1
  20980502.999   -15663586.270 4 -12205370.162 4
  24880491.390    21008861.437 1  16370495.096 1
  22065005.815   -14840524.738 3 -11564018.741 2
 91  5 21 19 57 45.0000000  0  6 19 11 16 02 18 06
  22088649.542     7037044.112 3   5483401.723 2
  23880270.133    -2443228.254 2  -1903807.981 1
  24048245.650     -811577.047 2   -632409.672 1
  20978416.747   -15674548.118 4 -12213911.842 3
  24891698.234    21067812.423 2  16416430.805 1
  22060582.376   -14863763.396 3 -11582126.757 2
 91  5 21 19 58  0.0000000  0  6 19 11 16 02 18 06
  22094432.841     7067439.409 3   5507086.317 2
  23886281.568    -2411608.092 2  -1879168.916 1
  24053933.906     -781675.362 2   -609109.750 1
  20976349.673   -15685418.710 4 -12222382.417 3
  24902917.371    21126783.184 2  16462381.802 1
  22056169.435   -14886966.307 3 -11600206.926 2
 91  5 21 19 58 15.0000000  0  6 19 11 16 02 18 06
  22100230.231     7097899.674 3   5530821.561 2
  23892328.085    -2379850.816 2  -1854423.040 1
  24059636.559     -751678.040 2   -585735.335 1
  20974296.096   -15696197.720 4 -12230781.632 4
  24914151.490    21185774.027 2  16508348.517 1
  22051760.384   -14910132.834 3 -11618258.736 2
 91  5 21 19 58 30.0000000  0  6 19 11 16 02 18 06
  22106041.703     7128428.178 3   5554609.973 2
  23898402.777    -2347953.284 2  -1829567.850 1
  24065369.191     -721582.218 2   -562284.127 1
  20972262.003   -15706881.704 4 -12239106.810 3
  24925385.312    21244787.853 2  16554333.546 1
  22047357.930   -14933259.604 3 -11636279.572 2
 91  5 21 19 58 45.0000000  0  6 19 11 16 02 18 06
  22111863.375     7159024.252 3   5578451.029 2
  23904496.960    -2315916.588 2  -1804604.236 1
  24071112.014     -691388.993 2   -538757.054 1
  20970246.197   -15717471.390 4 -12247358.500 3
  24936617.939    21303823.937 2  16600335.570 1
  22042964.471   -14956347.298 3 -11654269.958 2
 91  5 21 19 59  0.0000000  0  6 19 11 16 02 18 06
  22117697.035     7189687.376 2   5602344.324 2
  23910619.020    -2283741.604 2  -1779532.872 1
  24076874.922     -661099.272 2   -515154.749 1
  20968247.781   -15727967.420 4 -12255537.212 3
  24947861.655    21362881.350 2  16646354.498 1
  22038580.906   -14979396.551 3 -11672230.388 2
 91  5 21 19 59 15.0000000  0  6 19 11 16 02 18 06
  22123544.193     7220417.569 2   5626289.886 2
  23916768.668    -2251428.400 2  -1754353.795 1
  24082661.223     -630713.097 2   -491477.354 1
  20966269.153   -15738369.791 4 -12263642.942 3
  24959099.970    21421959.904 2  16692389.684 1
  22034203.039   -15002406.981 3 -11690160.576 2
 91  5 21 19 59 30.0000000  0  6 19 11 16 02 18 06
  22129403.932     7251213.376 2   5650286.565 2
  23922941.692    -2218978.678 2  -1729068.343 1
  24088460.104     -600232.456 2   -467726.272 1
  20964310.611   -15748679.914 4 -12271676.791 3
  24970343.093    21481057.686 2  16738439.942 1
  22029829.666   -15025380.079 3 -11708061.665 2
 91  5 21 19 59 45.0000000  0  6 19 11 16 02 18 06
  22135279.264     7282075.333 2   5674334.796 2
  23929146.195    -2186392.100 2  -1703676.260 1
  24094285.973     -569656.954 2   -443901.326 1
  20962365.557   -15758897.363 4 -12279638.436 3
  24981597.297    21540175.207 2  16784505.529 1
  22025464.991   -15048315.026 3 -11725933.035 2
 91  5 21 20  0  0.0000000  0  6 19 11 16 02 18 06
  22141163.591     7313004.288 2   5698435.249 2
  23935370.191    -2153668.224 2  -1678177.127 1
  24100122.329     -538986.303 2   -420002.227 1
  20960437.892   -15769021.440 4 -12287527.309 3
  24992843.116    21599312.969 2  16830586.745 1
  22021109.007   -15071211.170 3 -11743774.164 2
 91  5 21 20  0 15.0000000  0  6 19 11 16 02 18 06
  22147061.110     7344001.691 2   5722589.011 2
  23941622.656    -2120805.843 2  -1652570.126 1
  24105976.380     -508219.493 2   -396028.116 1
  20958530.008   -15779050.641 4 -12295342.257 3
  25004099.719    21658472.120 2  16876684.983 1
  22016759.313   -15094067.006 3 -11761583.888 2
 91  5 21 20  0 30.0000000  0  6 19 11 16 02 18 06
  22152972.415     7375066.382 2   5746795.222 2
  23947904.507    -2087806.345 2  -1626856.249 1
  24111850.516     -477358.015 2   -371980.427 1
  20956637.724   -15788986.242 4 -12303084.277 3
  25015367.124    21717651.107 2  16922798.352 1
  22012416.521   -15116883.503 3 -11779362.977 2
 91  5 21 20  0 45.0000000  0  6 19 11 16 02 18 06
  22158894.818     7406197.758 3   5771053.396 2
  23954211.548    -2054670.613 2  -1601036.275 1
  24117739.633     -446402.907 2   -347859.722 1
  20954765.219   -15798828.957 4 -12310753.913 3
  25026629.722    21776849.275 2  16968926.574 1
  22008083.920   -15139661.076 3 -11797111.712 2
 91  5 21 20  1  0.0000000  0  6 19 11 16 02 18 06
  22164834.008     7437393.105 3   5795361.409 2
  23960539.861    -2021401.801 2  -1575112.527 1
  24123640.153     -415357.159 2   -323668.172 1
  20952909.799   -15808581.519 4 -12318353.309 3
  25037896.228    21836063.540 2  17015067.768 1
  22003762.112   -15162402.581 3 -11814832.341 2
 91  5 21 20  1 15.0000000  0  6 19 11 16 02 18 06
  22170783.686     7468655.128 3   5819721.384 2
  23966896.059    -1987997.281 2  -1549083.082 1
  24129575.740     -384218.167 2   -299404.131 1
  20951069.979   -15818241.243 4 -12325880.352 3
  25049166.320    21895296.400 2  17061223.038 1
  21999436.403   -15185105.132 3 -11832522.620 2
 91  5 21 20  1 30.0000000  0  6 19 11 16 02 18 06
  22176740.266     7499984.576 3   5844133.880 2
  23973281.042    -1954456.779 2  -1522947.662 1
  24135516.126     -352985.734 2   -275067.261 1
  20949251.736   -15827807.511 4 -12333334.567 3
  25060461.305    21954548.024 2  17107393.348 1
  21995126.287   -15207767.959 3 -11850181.942 2
 91  5 21 20  1 45.0000000  0  6 19 11 16 02 18 06
  22182716.625     7531381.350 3   5868598.876 2
  23979693.002    -1920780.607 2  -1496706.494 1
  24141473.604     -321660.301 2   -250657.909 1
  20947446.982   -15837280.368 4 -12340716.006 3
  25071731.101    22013818.174 2  17153577.649 1
  21990818.570   -15230391.141 3 -11867810.369 2
 91  5 21 20  2  0.0000000  0  5 19 11 16 02 06
  22188703.481     7562845.058 3   5893116.002 2
  23986125.353    -1886969.447 2  -1470360.204 1
  24147453.864     -290242.570 2   -226176.684 1
  20945663.517   -15846660.209 4 -12348024.963 3
  21986518.950   -15252974.831 3 -11885408.036 2
 91  5 21 20  2 15.0000000  0  5 19 11 16 02 06
  22194705.326     7594376.508 3   5917685.926 2
  23992583.783    -1853022.888 2  -1443908.368 1
  24153444.619     -258732.077 2   -201623.089 2
  20943895.644   -15855946.294 4 -12355260.868 3
  21982236.413   -15275518.331 3 -11902974.377 2
 91  5 21 20  2 30.0000000  0  5 19 11 16 02 06
  22200720.364     7625976.967 2   5942309.615 2
  23999066.495    -1818939.856 2  -1417350.222 1
  24159467.449     -227127.796 2   -176996.545 1
  20942144.253   -15865137.416 4 -12362422.771 3
  21977948.484   -15298020.297 3 -11920508.356 2
 91  5 21 20  2 45.0000000  0  5 19 11 16 02 06
  22206744.693     7657642.091 3   5966983.699 2
  24005579.484    -1784724.806 2  -1390689.172 1
  24165497.773     -195434.556 2   -152300.582 1
  20940414.754   -15874238.022 4 -12369514.140 3
  21973671.942   -15320484.780 3 -11938013.119 2
 91  5 21 20  3  0.0000000  0  5 19 11 16 02 06
  22212785.505     7689373.421 3   5991709.392 2
  24012115.262    -1750376.714 2  -1363924.463 1
  24171537.092     -163651.289 2   -127534.474 1
  20938701.735   -15883246.716 4 -12376533.885 3
  21969407.100   -15342910.225 3 -11955487.473 2
 91  5 21 20  3 15.0000000  0  5 19 11 16 02 06
  22218835.321     7721171.164 2   6016486.811 2
  24018678.019    -1715895.493 2  -1337055.998 1
  24177616.888     -131778.062 2   -102698.293 1
  20937004.013   -15892163.117 4 -12383481.720 3
  21965148.244   -15365296.319 3 -11972931.156 2
 91  5 21 20  3 30.0000000  0  5 19 11 16 02 06
  22224904.315     7753033.771 2   6041314.778 2
  24025257.257    -1681282.932 2  -1310085.238 2
  24183681.685      -99816.814 2    -77793.560 1
  20935326.078   -15900988.980 4 -12390359.004 3
  21960894.491   -15387644.602 3 -11990345.378 2
 91  5 21 20  3 45.0000000  0  5 19 11 16 02 06
  22230971.520     7784960.889 2   6066192.982 2
  24031874.877    -1646539.863 3  -1283012.760 2
  24189796.555      -67768.160 2    -52820.667 1
  20933664.329   -15909724.667 4 -12397166.033 3
  21956645.835   -15409955.382 3 -12007730.385 2
 91  5 21 20  4  0.0000000  0  5 19 11 16 02 06
  22237062.998     7816953.986 2   6091122.631 2
  24038511.988    -1611665.053 2  -1255837.615 1
  24195906.923      -35630.942 2    -27778.797 1
  20932019.061   -15918368.929 4 -12403901.801 3
  21952411.565   -15432227.059 3 -12025084.908 2
 91  5 21 20  4 15.0000000  0  5 19 11 16 02 06
  22243159.878     7849011.953 3   6116102.800 2
  24045174.272    -1576659.736 2  -1228560.772 2
  24202037.682       -3406.536 2     -2668.961 1
  20930390.895   -15926922.795 4 -12410567.141 3
  21948181.790   -15454460.587 3 -12042409.709 2
 91  5 21 20  4 30.0000000  0  5 19 11 16 02 06
  22249276.545     7881136.903 3   6141135.184 2
  24051856.650    -1541522.057 2  -1201180.781 1
  24208188.221       28906.988 2     22510.281 1
  20928780.405   -15935383.942 4 -12417160.234 3
  21943958.610   -15476653.701 3 -12059703.024 2
 91  5 21 20  4 45.0000000  0  5 19 11 16 02 06
  22255401.903     7913330.341 3   6166220.940 2
  24058571.101    -1506250.964 2  -1173696.865 1
  24214353.749       61310.356 2     47759.600 1
  20927187.611   -15943751.189 4 -12423680.155 3
  21939739.034   -15498804.916 3 -12076963.699 2
 91  5 21 20  5  0.0000000  0  5 19 11 16 02 06
  22261539.555     7945591.432 3   6191359.410 1
  24065307.138    -1470847.471 2  -1146109.788 1
  24220521.380       93802.389 2     73077.890 1
  20925613.104   -15952025.362 4 -12430127.548 3
  21935533.244   -15520914.992 3 -12094192.324 2
 91  5 21 20  5 15.0000000  0  5 19 11 16 02 06
  22267691.001     7977919.623 3   6216550.162 2
  24072072.247    -1435312.312 2  -1118420.104 2
  24226727.987      126382.656 2     98465.070 1
  20924054.782   -15960206.987 4 -12436502.813 3
  21931333.753   -15542984.240 3 -12111389.107 2
 91  5 21 20  5 30.0000000  0  5 19 11 16 02 06
  22273866.127     8010314.506 2   6241792.884 1
  24078861.647    -1399646.470 3  -1090628.563 1
  24232951.973      159050.102 2    123920.077 1
  20922516.545   -15968296.637 4 -12442806.432 3
  21927142.952   -15565013.164 3 -12128554.495 2
 91  5 21 20  5 45.0000000  0  5 19 11 16 02 06
  22280031.053     8042775.537 2   6267087.166 2
  24085667.843    -1363850.697 3  -1062735.800 1
  24239186.159      191803.634 2    149442.206 1
  20920993.900   -15976294.824 4 -12449038.773 3
  21922959.655   -15587002.174 3 -12145688.763 2
 91  5 21 20  6  0.0000000  0  5 19 11 16 02 06
  22286220.873     8075303.169 2   6292433.326 2
  24092503.704    -1327924.924 2  -1034741.723 1
  24245432.037      224643.282 2    175031.398 1
  20919489.543   -15984201.467 4 -12455199.779 3
  21918780.241   -15608950.738 3 -12162791.525 2
 91  5 21 20  6 15.0000000  0  5 19 11 16 02 06
  22292424.172     8107899.194 2   6317832.785 2
  24099366.552    -1291867.606 2  -1006645.167 1
  24251692.905      257570.508 2    200688.927 1
  20918003.168   -15992014.546 4 -12461287.874 3
  21914610.433   -15630856.960 3 -12179861.277 1
 91  5 21 20  6 30.0000000  0  5 19 11 16 02 06
  22298640.376     8140564.262 2   6343286.036 2
  24106254.283    -1255678.548 2   -978445.933 1
  24257981.047      290585.676 2    226414.848 1
  20916536.286   -15999733.509 4 -12467302.638 3
  21910452.307   -15652720.331 3 -12196897.652 2
 91  5 21 20  6 45.0000000  0  5 19 11 16 02 06
  22304867.364     8173293.869 2   6368789.603 2
  24113159.710    -1219362.265 2   -950147.591 2
  24264274.896      323684.070 2    252205.746 1
  20915082.892   -16007362.895 4 -12473247.602 3
  21906298.981   -15674544.810 3 -12213903.725 2
 91  5 21 20  7  0.0000000  0  5 19 11 16 02 06
  22311109.342     8206091.707 2   6394346.326 2
  24120099.304    -1182915.417 2   -921747.499 1
  24270600.216      356869.002 2    278063.994 1
  20913648.379   -16014899.216 4 -12479120.048 3
  21902154.057   -15696326.822 3 -12230876.709 2
 91  5 21 20  7 15.0000000  0  5 19 11 16 02 06
  22317363.308     8238954.363 2   6419953.556 1
  24127062.586    -1146341.710 2   -893248.528 1
  24276924.332      390136.562 2    303986.611 1
  20912229.764   -16022345.865 4 -12484922.619 3
  21898016.017   -15718069.751 3 -12247819.225 2
 91  5 21 20  7 30.0000000  0  5 19 11 16 02 06
  22323631.068     8271886.527 2   6445614.944 2
  24134044.750    -1109636.715 2   -864647.250 1
  24283279.038      423491.325 2    329977.223 1
  20910831.836   -16029698.039 4 -12490651.576 3
  21893884.582   -15739768.698 3 -12264727.486 2
 91  5 21 20  7 45.0000000  0  5 19 11 16 02 06
  22329909.028     8304885.581 2   6471328.467 2
  24141053.900    -1072803.362 2   -835945.984 1
  24289632.837      456930.013 2    356033.257 1
  20909449.787   -16036958.444 4 -12496309.018 3
  21889767.229   -15761426.371 3 -12281603.560 2
 91  5 21 20  8  0.0000000  0  5 19 11 16 02 06
  22336201.673     8337950.083 2   6497092.956 2
  24148083.127    -1035843.340 2   -807146.011 1
  24296012.122      490451.267 2    382153.516 1
  20908086.035   -16044128.551 4 -12501896.109 3
  21885651.377   -15783043.767 3 -12298448.272 2
 91  5 21 20  8 15.0000000  0  5 19 11 16 02 06
  22342508.400     8371081.516 2   6522909.612 2
  24155141.740     -998755.574 2   -778246.505 1
  24302405.498      524056.027 2    408339.030 1
  20906738.163   -16051207.037 4 -12507411.807 3
  21881546.920   -15804619.518 3 -12315260.530 2
 91  5 21 20  8 30.0000000  0  5 19 11 16 02 06
  22348826.827     8404279.173 2   6548777.879 2
  24162224.339     -961541.145 2   -749248.281 1
  24308814.160      557743.177 2    434588.555 1
  20905410.681   -16058194.711 4 -12512856.732 3
  21877448.754   -15826154.247 3 -12332040.825 2
 91  5 21 20  8 45.0000000  0  5 19 11 16 02 06
  22355148.255     8437543.236 2   6574697.869 2
  24169329.718     -924200.145 2   -720151.439 1
  24315252.505      591512.350 2    460902.089 1
  20904096.697   -16065091.472 4 -12518230.824 3
  21873359.889   -15847647.727 3 -12348788.965 2
 91  5 21 20  9  0.0000000  0  5 19 11 16 02 06
  22361497.561     8470872.107 2   6600668.371 2
  24176465.383     -886734.327 2   -690957.365 1
  24321692.045      625361.750 2    487278.105 1
  20902801.891   -16071898.760 4 -12523535.190 3
  21869274.313   -15869101.349 3 -12365506.071 2
 91  5 21 20  9 15.0000000  0  5 19 11 16 02 06
  22367850.156     8504266.768 2   6626690.138 2
  24183616.630     -849142.945 2   -661665.396 1
  24328148.373      659292.194 2    513717.304 1
  20901522.075   -16078615.794 4 -12528769.241 3
  21865202.235   -15890513.899 3 -12382191.152 2
 91  5 21 20  9 30.0000000  0  5 19 11 16 02 06
  22374220.453     8537728.532 2   6652764.192 2
  24190793.966     -811424.948 2   -632274.814 1
  24334622.988      693304.456 2    540220.232 1
  20900265.345   -16085241.206 4 -12533931.899 3
  21861135.252   -15911884.006 3 -12398843.176 2
 91  5 21 20  9 45.0000000  0  5 19 11 16 02 06
  22380598.238     8571258.163 2   6678891.129 1
  24197996.779     -773580.108 2   -602785.367 1
  24341108.100      727398.882 2    566787.181 1
  20899020.307   -16091774.572 4 -12539022.822 3
  21857076.663   -15933210.958 3 -12415461.564 2
 91  5 21 20 10  0.0000000  0  5 19 11 16 02 06
  22386993.105     8604853.254 2   6705069.092 1
  24205223.568     -735611.050 2   -573199.151 1
  24347609.999      761572.811 2    593416.108 1
  20897792.361   -16098218.267 4 -12544043.880 3
  21853023.763   -15954497.010 3 -12432048.081 2
 91  5 21 20 10 15.0000000  0  5 19 11 16 02 06
  22393398.470     8638514.068 2   6731298.252 1
  24212473.453     -697517.756 2   -543516.125 1
  24354138.884      795826.304 2    620107.011 1
  20896583.899   -16104571.863 4 -12548994.722 3
  21848981.368   -15975741.739 3 -12448602.400 2
 91  5 21 20 10 30.0000000  0  5 19 11 16 02 06
  22399817.925     8672241.540 2   6757579.383 1
  24219740.422     -659299.548 2   -513735.758 1
  24360668.660      830159.869 2    646860.286 1
  20895392.817   -16110834.464 4 -12553874.668 4
  21844951.257   -15996944.002 3 -12465123.632 2
 91  5 21 20 10 45.0000000  0  5 19 11 16 02 06
  22406247.580     8706034.899 2   6783911.851 1
  24227033.173     -620957.471 2   -483858.841 1
  24367208.635      864572.202 2    673674.975 1
  20894219.132   -16117006.946 4 -12558684.383 3
  21840918.748   -16018104.568 3 -12481612.361 2
 91  5 21 20 11  0.0000000  0  5 19 11 16 02 06
  22412696.412     8739893.928 2   6810295.465 1
  24234359.499     -582492.072 2   -453885.849 1
  24373772.587      899062.792 2    700550.643 1
  20893059.836   -16123089.393 4 -12563423.944 3
  21836901.228   -16039223.482 3 -12498068.646 2
 91  5 21 20 11 15.0000000  0  5 19 11 16 02 06
  22419147.950     8773817.526 2   6836729.388 1
  24241695.126     -543905.053 2   -423818.086 1
  24380350.638      933629.999 2    727486.007 1
  20891920.328   -16129083.350 4 -12568094.544 3
  21832890.600   -16060301.975 3 -12514493.428 2
 91  5 21 20 11 30.0000000  0  5 19 11 16 02 06
  22425615.672     8807806.660 2   6863214.392 1
  24249064.920     -505195.618 2   -393654.960 1
  24386945.468      968274.587 2    754481.649 1
  20890796.403   -16134987.837 4 -12572695.442 3
  21828886.875   -16081338.888 3 -12530885.807 2
 91  5 21 20 11 45.0000000  0  5 19 11 16 02 06
  22432095.087     8841860.638 2   6889749.904 1
  24256455.706     -466364.771 2   -363397.204 1
  24393560.985     1002995.447 2    781536.698 1
  20889689.571   -16140803.593 4 -12577227.198 3
  21824893.942   -16102334.722 3 -12547246.193 2
 91  5 21 20 12  0.0000000  0  5 19 11 16 02 06
  22438588.286     8875980.120 2   6916336.478 2
  24263868.672     -427412.128 2   -333044.512 1
  24400178.911     1037792.783 2    808651.419 1
  20888598.627   -16146530.044 4 -12581689.363 3
  21820907.004   -16123288.810 3 -12563574.029 2
 91  5 21 20 12 15.0000000  0  5 19 11 16 02 06
  22445091.084     8910160.324 2   6942970.349 1
  24271299.027     -388342.620 2   -302600.750 1
  24406804.619     1072661.673 2    835821.821 1
  20887523.266   -16152171.959 4 -12586085.653 3
  21816927.857   -16144205.691 3 -12579872.884 2
 91  5 21 20 12 30.0000000  0  5 19 11 16 02 06
  22451607.379     8944403.747 2   6969653.485 2
  24278756.369     -349154.193 2   -272064.418 1
  24413454.617     1107604.411 2    863049.796 1
  20886471.000   -16157727.070 4 -12590414.304 3
  21812954.407   -16165082.874 3 -12596140.802 2
 91  5 21 20 12 45.0000000  0  5 19 11 16 02 06
  22458133.856     8978701.002 2   6996378.564 2
  24286236.492     -309856.636 2   -241442.986 1
  24420116.901     1142610.920 2    890327.467 1
  20885427.721   -16163204.713 4 -12594682.583 3
  21808987.554   -16185929.717 3 -12612385.073 2
 91  5 21 20 13  0.0000000  0  5 19 11 16 02 06
  22464670.830     9013053.902 2   7023147.003 1
  24293740.897     -270448.205 2   -210735.093 1
  24426785.790     1177682.688 2    917656.037 1
  20884400.331   -16168602.866 4 -12598888.935 3
  21805024.295   -16206743.988 3 -12628603.967 2
 91  5 21 20 13 15.0000000  0  5 19 11 16 02 06
  22471223.692     9047470.447 2   7049965.055 2
  24301259.385     -230921.318 2   -179934.883 1
  24433472.355     1212827.428 2    945041.409 1
  20883388.829   -16173913.905 4 -12603027.406 3
  21801070.634   -16227517.691 3 -12644791.257 2
 91  5 21 20 13 30.0000000  0  5 19 11 16 02 06
  22477779.853     9081949.717 2   7076831.982 1
  24308804.562     -191277.206 2   -149043.454 1
  24440165.526     1248043.812 2    972482.559 1
  20882391.724   -16179138.653 4 -12607098.634 3
  21797128.962   -16248251.722 3 -12660947.632 2
 91  5 21 20 13 45.0000000  0  5 19 11 16 02 06
  22484353.402     9116492.914 2   7103748.713 1
  24316371.928     -151514.935 2   -118059.871 1
  24446891.372     1283332.934 2    999980.540 1
  20881415.594   -16184275.859 4 -12611101.644 3
  21793188.493   -16268944.592 3 -12677071.930 2
 91  5 21 20 14  0.0000000  0  5 19 11 16 02 06
  22490941.644     9151097.915 2   7130713.616 1
  24323956.979     -111636.945 2    -86986.162 1
  24453617.515     1318692.274 2   1027533.062 1
  20880452.664   -16189327.620 4 -12615038.069 3
  21789257.910   -16289598.353 3 -12693165.764 2
 91  5 21 20 14 15.0000000  0  5 19 11 16 02 06
  22497536.178     9185765.627 2   7157727.380 1
  24331569.008      -71642.655 2    -55821.813 1
  24460372.739     1354122.140 2   1055140.620 1
  20879508.616   -16194293.202 4 -12618907.350 3
  21785336.026   -16310212.064 3 -12709228.372 2
 91  5 21 20 14 30.0000000  0  5 19 11 16 02 06
  22504147.507     9220496.119 2   7184790.056 1
  24339193.628      -31532.448 2    -24567.165 1
  24467125.257     1389622.152 2   1082802.865 1
  20878582.856   -16199172.829 4 -12622709.651 3
  21781422.536   -16330785.678 3 -12725259.757 2
 91  5 21 20 14 45.0000000  0  5 19 11 16 02 06
  22510767.517     9255291.780 2   7211903.523 1
  24346853.322        8695.883 2      6779.516 1
  24473895.471     1425194.326 2   1110521.287 1
  20877669.093   -16203964.122 4 -12626443.119 3
  21777513.538   -16351316.506 3 -12741257.781 2
 91  5 21 20 15  0.0000000  0  5 19 11 16 02 06
  22517410.623     9290170.026 2   7239081.319 2
  24354542.098       49059.452 2     38231.593 1
  24480678.876     1460855.997 2   1138309.433
  20876780.807   -16208649.660 4 -12630094.177 3
  21773620.735   -16371787.011 3 -12757208.806 2
 91  5 21 20 15 15.0000000  0  5 19 11 16 02 06
  22524056.120     9325115.499 2   7266311.512 2
  24362244.667       89542.447 2     69776.707 1
  24487487.463     1496591.090 2   1166154.918 1
  20875901.517   -16213244.802 4 -12633674.802 3
  21769727.635   -16392212.511 3 -12773124.766 2
 91  5 21 20 15 30.0000000  0  5 19 11 16 02 06
  22530718.107     9360125.363 2   7293591.887 2
  24369964.923      130141.596 2    101412.371 2
  24494293.056     1532396.766 2   1194055.242 1
  20875045.610   -16217752.603 4 -12637187.368 3
  21765849.220   -16412595.748 3 -12789007.787 2
 91  5 21 20 15 45.0000000  0  5 19 11 16 02 06
  22537392.684     9395198.296 2   7320921.381 2
  24377720.253      170855.614 2    133137.510 1
  24501115.132     1568271.402 2   1222009.504 1
  20874205.591   -16222174.265 4 -12640632.816 3
  21761980.393   -16432937.767 3 -12804858.697 2
 91  5 21 20 16  0.0000000  0  5 19 11 16 02 06
  22544085.855     9430333.671 2   7348299.545 2
  24385482.782      211683.534 2    164951.428 1
  24507958.496     1604213.868 2   1250016.410 1
  20873379.664   -16226510.405 4 -12644011.618 3
  21758115.772   -16453239.027 3 -12820677.852 2
 91  5 21 20 16 15.0000000  0  5 19 11 16 02 06
  22550775.125     9465533.650 2   7375728.043 2
  24393278.283      252627.122 2    196855.439 1
  24514816.545     1640225.887 2   1278077.610 1
  20872571.719   -16230758.913 4 -12647322.130 3
  21754263.741   -16473497.301 3 -12836463.511 2
 91  5 21 20 16 30.0000000  0  5 19 11 16 02 06
  22557490.772     9500797.571 2   7403206.371 2
  24401090.876      293685.332 2    228848.838 1
  24521679.393     1676306.529 2   1306192.266 1
  20871780.569   -16234920.594 4 -12650564.991 3
  21750417.399   -16493713.207 3 -12852216.138 2
 91  5 21 20 16 45.0000000  0  5 19 11 16 02 06
  22564213.922     9536126.682 2   7430735.493 2
  24408924.454      334859.241 2    260932.381 1
  24528542.546     1712457.099 2   1334361.376 1
  20871005.902   -16238994.084 4 -12653739.134 3
  21746574.660   -16513885.294 3 -12867934.644 2
 91  5 21 20 17  0.0000000  0  5 19 11 16 02 06
  22570948.458     9571520.554 2   7458315.090 2
  24416785.314      376148.188 2    293105.556 1
  24535457.858     1748676.331 2   1362583.989 1
  20870248.030   -16242980.004 4 -12656845.042 3
  21742748.412   -16534013.722 3 -12883619.113 2
 91  5 21 20 17 15.0010000  0  5 19 11 16 02 06
  22577691.392     9606980.406 2   7485946.083 1
  24424664.457      417553.164 2    325369.094 1
  24542362.372     1784964.841 2   1390860.654 1
  20869509.043   -16246880.006 4 -12659884.007 3
  21738925.151   -16554101.223 3 -12899271.707 2
 91  5 21 20 17 30.0010000  0  5 19 11 16 02 06
  22584459.205     9642502.410 2   7513625.509 1
  24432555.594      459069.297 2    357719.335 1
  24549275.590     1821318.687 2   1419188.206 1
  20868779.344   -16250692.563 4 -12662854.820 3
  21735112.392   -16574143.908 3 -12914889.368 2
 91  5 21 20 17 45.0010000  0  5 19 11 16 02 06
  22591220.127     9678088.125 2   7541354.593 1
  24440473.116      500698.340 2    390157.527 1
  24556207.392     1857739.117 2   1447567.570 1
  20868072.733   -16254418.626 4 -12665758.238 3
  21731305.627   -16594143.711 3 -12930473.611 2
 91  5 21 20 18  0.0010000  0  5 19 11 16 02 06
  22598015.521     9713739.872 2   7569135.125 1
  24448431.706      542442.152 2    422685.122 1
  24563156.880     1894228.182 2   1476000.435 1
  20867377.813   -16258056.236 4 -12668592.727 3
  21727506.959   -16614098.407 3 -12946022.710 2
 91  5 21 20 18 15.0010000  0  5 19 11 16 02 06
  22604807.616     9749459.122 2   7596968.250 1
  24456388.194      584301.854 2    455303.051 1
  24570113.261     1930786.737 2   1504487.488 1
  20866701.486   -16261604.107 4 -12671357.302 3
  21723719.686   -16634006.317 3 -12961535.358 2
 91  5 21 20 18 30.0010000  0  5 19 11 16 02 06
  22611619.501     9785244.501 2   7624852.891 1
  24464381.860      626276.116 2    488010.176 1
  24577071.448     1967413.170 2   1533027.428 1
  20866045.541   -16265063.348 4 -12674052.807 3
  21719937.499   -16653868.548 3 -12977012.416 2
 91  5 21 20 18 45.0010000  0  5 19 11 16 02 06
  22618434.683     9821095.711 2   7652788.845 1
  24472392.016      668364.266 2    520806.083 1
  24584050.916     2004107.115 2   1561619.872 1
  20865401.279   -16268434.196 4 -12676679.432 3
  21716168.505   -16673685.199 3 -12992453.935 2
 91  5 21 20 19  0.0010000  0  5 19 11 16 02 06
  22625271.452     9857013.245 2   7680776.474 1
  24480424.351      710566.303 2    553690.754 1
  24591045.373     2040868.433 2   1590264.920 1
  20864776.212   -16271716.468 4 -12679237.035 3
  21712405.218   -16693455.772 3 -13007859.560 2
 91  5 21 20 19 15.0010000  0  5 19 11 16 02 06
  22632117.513     9892996.520 2   7708815.328 2
  24488469.887      752881.409 2    586663.450 1
  24598063.519     2077696.236 2   1618961.748 1
  20864171.536   -16274910.569 4 -12681725.952 4
  21708650.018   -16713180.564 3 -13023229.516 2
 91  5 21 20 19 30.0010000  0  5 19 11 16 02 06
  22638980.657     9929044.683 2   7736904.733 2
  24496542.393      795308.420 2    619723.453 1
  24605083.454     2114589.550 2   1647709.602 1
  20863577.644   -16278017.467 4 -12684146.905 4
  21704910.105   -16732860.282 3 -13038564.365 2
 91  5 21 20 19 45.0010000  0  5 19 11 16 02 06
  22645854.298     9965162.495 2   7765048.411 2
  24504642.487      837851.828 2    652874.145 1
  24612119.286     2151552.484 2   1676511.756 1
  20863006.245   -16281032.407 4 -12686496.196 3
  21701175.592   -16752490.138 3 -13053860.335 2
 91  5 21 20 20  0.0010000  0  5 19 11 16 02 06
  22652738.732    10001347.322 2   7793244.333 2
  24512763.565      880508.554 2    686113.065 1
  24619159.009     2188581.947 2   1705365.747 1
  20862448.030   -16283958.235 4 -12688776.056 3
  21697449.168   -16772072.604 3 -13069119.394 2
 91  5 21 20 20 15.0010000  0  5 19 11 16 02 06
  22659639.961    10037597.768 2   7821491.377 2
  24520899.930      923276.919 2    719439.068 1
  24626218.521     2225676.291 2   1734270.299 1
  20861906.899   -16286796.387 4 -12690987.589 3
  21693727.543   -16791608.999 3 -13084342.541 2
 91  5 21 20 20 30.0010000  0  5 19 11 16 02 06
  22666547.473    10073912.865 2   7849788.825 1
  24529058.788      966155.516 2    752850.845 1
  24633299.924     2262834.433 2   1763224.535 1
  20861382.869   -16289547.942 4 -12693131.651 3
  21690018.211   -16811100.160 3 -13099530.440 2
 91  5 21 20 20 45.0010000  0  5 19 11 16 02 06
  22673468.482    10110294.228 2   7878137.902 1
  24537237.426     1009145.575 2    786349.616 1
  24640386.413     2300057.340 2   1792229.349 1
  20860876.813   -16292211.354 4 -12695207.029 3
  21686321.173   -16830544.418 3 -13114681.803 2
 91  5 21 20 21  0.0010000  0  5 19 11 16 02 06
  22680412.578    10146744.063 2   7906540.319 1
  24545435.852     1052249.218 2    819936.854 1
  24647472.607     2337347.060 2   1821286.085 1
  20860388.756   -16294784.368 4 -12697211.971 3
  21682626.229   -16849939.205 3 -13129794.606 2
 91  5 21 20 21 15.0010000  0  5 19 11 16 02 06
  22687354.275    10183261.571 2   7934995.463 1
  24553663.351     1095465.388 2    853611.666 1
  24654588.186     2374702.281 2   1850393.958 1
  20859917.478   -16297267.583 4 -12699146.948 3
  21678945.681   -16869285.186 3 -13144869.381 2
 91  5 21 20 21 30.0010000  0  5 19 11 16 02 06
  22694319.651    10219849.101 2   7963505.160 1
  24561905.848     1138795.724 2    887375.585 1
  24661705.257     2412124.545 2   1879554.044 1
  20859461.199   -16299659.276 4 -12701010.597 3
  21675273.222   -16888580.103 3 -13159904.371 2
 91  5 21 20 21 45.0010000  0  5 19 11 16 02 06
  22701294.023    10256503.697 2   7992067.119 1
  24570176.823     1182237.042 2    921225.882 1
  24668832.519     2449610.564 2   1908763.731 1
  20859023.800   -16301962.305 4 -12702805.165 3
  21671611.852   -16907826.863 3 -13174901.827 2
 91  5 21 20 22  0.0010000  0  5 19 11 16 02 06
  22708282.783    10293225.426 2   8020681.404 1
  24578466.680     1225789.183 2    955162.616 1
  24675995.764     2487160.575 2   1938023.345 1
  20858601.994   -16304176.626 4 -12704530.616 3
  21667958.588   -16927025.085 3 -13189861.470 2
 91  5 21 20 22 15.0010000  0  5 19 11 16 02 06
  22715278.436    10330015.278 2   8049348.769 1
  24586774.528     1269452.730 2    989186.095 1
  24683133.819     2524775.205 2   1967333.322 1
  20858197.567   -16306301.328 4 -12706186.227 3
  21664315.506   -16946173.708 3 -13204782.471 2
 91  5 21 20 22 30.0010000  0  5 19 11 16 02 06
  22722295.980    10366873.758 2   8078069.629 1
  24595100.071     1313228.107 2   1023296.733 1
  24690312.656     2562454.646 2   1996693.768 1
  20857808.139   -16308335.723 4 -12707771.466 3
  21660677.825   -16965271.933 3 -13219664.185 2
 91  5 21 20 22 45.0010000  0  5 19 11 16 02 06
  22729324.020    10403799.514 2   8106842.867 1
  24603449.590     1357113.497 2   1057493.089 1
  24697489.380     2600196.905 2   2026103.179 1
  20857439.399   -16310281.542 4 -12709287.676 3
  21657055.430   -16984321.038 3 -13234507.635 2
 91  5 21 20 23  0.0010000  0  5 19 11 16 02 06
  22736367.042    10440792.873 2   8135668.806 1
  24611825.485     1401108.911 2   1091775.164 1
  24704692.795     2638001.850 2   2055561.481 1
  20857085.936   -16312138.391 4 -12710734.564 3
  21653439.937   -17003320.484 3 -13249312.383 2
 91  5 21 20 23 15.0010000  0  5 19 11 16 02 06
  22743417.558    10477854.804 2   8164548.187 1
  24620218.778     1445215.105 2   1126143.631 1
  24711887.817     2675870.540 2   2085069.310 1
  20856749.269   -16313905.165 4 -12712111.273 3
  21649834.330   -17022269.129 3 -13264077.563 2
 91  5 21 20 23 30.0010000  0  5 19 11 16 02 06
  22750483.666    10514985.801 2   8193481.391 1
  24628630.350     1489432.319 2   1160598.562 1
  24719119.109     2713803.007 2   2114626.936 1
  20856427.897   -16315581.320 4 -12713417.365 3
  21646240.422   -17041166.362 3 -13278802.662 2
 91  5 21 20 23 45.0010000  0  5 19 11 16 02 06
  22757558.167    10552185.508 2   8222468.133 1
  24637065.916     1533759.570 2   1195139.207 1
  24726340.209     2751798.352 2   2144233.633 1
  20856129.306   -16317167.512 4 -12714653.352 3
  21642651.907   -17060012.450 3 -13293487.914 2
 91  5 21 20 24  0.0010000  0  5 19 11 16 02 06
  22764652.457    10589450.812 2   8251505.967 1
  24645521.559     1578193.644 2   1229763.190 1
  24733592.188     2789853.408 2   2173886.796 1
  20855844.501   -16318666.966 4 -12715821.760 3
  21639073.278   -17078810.272 3 -13308135.546 2
 91  5 21 20 24 15.0010000  0  5 19 11 16 02 06
  22771755.743    10626784.326 2   8280596.960 1
  24653998.491     1622736.857 2   1264472.116 1
  24740831.882     2827970.375 2   2203588.214 1
  20855575.288   -16320076.997 4 -12716920.484 3
  21635509.044   -17097557.162 3 -13322743.495 2
 91  5 21 20 24 30.0010000  0  5 19 11 16 02 06
  22778873.713    10664188.529 2   8309743.026 2
  24662489.514     1667391.319 2   1299267.742 1
  24748110.839     2866151.320 2   2233339.523 1
  20855322.862   -16321395.170 4 -12717947.633 3
  21631951.111   -17116250.376 3 -13337309.627 2
 91  5 21 20 24 45.0010000  0  5 19 11 16 02 06
  22786006.376    10701661.178 2   8338942.433 1
  24671014.111     1712154.387 2   1334147.936 1
  24755385.599     2904393.314 2   2263138.424 1
  20855091.420   -16322623.876 4 -12718905.063 3
  21628399.773   -17134892.083 3 -13351835.631 2
 91  5 21 20 25  0.0010000  0  5 19 11 16 02 06
  22793149.527    10739200.170 2   8368193.532 1
  24679555.800     1757023.760 2   1369110.907 1
  24762672.959     2942694.266 2   2292983.171 1
  20854872.873   -16323765.198 4 -12719794.410 3
  21624862.815   -17153484.137 3 -13366322.931 2
 91  5 21 20 25 15.0010000  0  5 19 11 16 02 06
  22800300.478    10776807.496 2   8397497.885 1
  24688113.972     1802001.106 2   1404158.240 1
  24769974.706     2981055.546 2   2322874.907 1
  20854672.615   -16324817.076 4 -12720614.049 3
  21621338.159   -17172024.422 3 -13380769.894 2
 91  5 21 20 25 30.0010000  0  5 19 11 16 02 06
  22807474.812    10814482.679 2   8426855.114 1
  24696675.145     1847085.571 1   1439288.951 1
  24777272.247     3019476.248 2   2352812.981 1
  20854490.033   -16325780.149 4 -12721364.485 3
  21617815.300   -17190513.291 3 -13395176.785 2
 91  5 21 20 25 45.0010000  0  5 19 11 16 02 06
  22814654.547    10852224.449 2   8456264.229 1
  24705292.978     1892275.563 2   1474501.859 1
  24784608.476     3057954.900 2   2382796.167 1
  20854321.551   -16326655.634 4 -12722046.680 3
  21614311.026   -17208951.889 3 -13409544.516 2
 91  5 21 20 26  0.0010000  0  5 19 11 16 02 06
  22821853.460    10890034.468 2   8485726.517 1
  24713912.313     1937572.400 2   1509798.051 1
  24791942.593     3096492.754 2   2412825.567 1
  20854172.858   -16327442.175 4 -12722659.571 3
  21610807.650   -17227338.424 3 -13423871.668 2
 91  5 21 20 26 15.0010000  0  5 19 11 16 02 06
  22829058.375    10927914.437 2   8515243.332 1
  24722552.038     1982977.470 2   1545178.616 1
  24799272.225     3135091.387 2   2442902.346 1
  20854040.350   -16328137.990 4 -12723201.764 3
  21607321.664   -17245671.006 3 -13438156.775 2
 91  5 21 20 26 30.0010000  0  5 19 11 16 02 06
  22836278.874    10965861.794 2   8544812.657 1
  24731208.244     2028487.695 2   1580641.094 1
  24806639.620     3173747.618 2   2473023.903 1
  20853925.824   -16328745.883 4 -12723675.432 3
  21603841.375   -17263952.094 3 -13452401.772 2
 91  5 21 20 26 45.0010000  0  5 19 11 16 02 06
  22843514.363    11003875.643 2   8574433.790 1
  24739893.828     2074102.040 2   1616184.647 1
  24813996.824     3212460.502 2   2503189.591 1
  20853827.492   -16329266.641 4 -12724081.216 3
  21600374.270   -17282182.241 3 -13466607.060 2
 91  5 21 20 27  0.0010000  0  5 19 11 16 02 06
  22850762.450    11041955.233 2   8604106.145 2
  24748592.308     2119819.426 2   1651808.538 1
  24821378.021     3251228.910 2   2533398.655 1
  20853745.057   -16329700.928 4 -12724419.621 3
  21596916.169   -17300362.145 3 -13480773.207 2
 91  5 21 20 27 15.0010000  0  5 19 11 16 02 06
  22858015.624    11080100.497 2   8633829.661 1
  24757304.277     2165639.563 2   1687512.504 1
  24828765.205     3290052.272 2   2563650.490 1
  20853677.298   -16330048.785 4 -12724690.677 3
  21593466.156   -17318491.521 3 -13494899.982 2
 91  5 21 20 27 30.0010000  0  5 19 11 16 02 06
  22865299.083    11118313.160 2   8663605.696 1
  24766054.619     2211563.816 2   1723297.632 1
  24836170.074     3328931.971 2   2593946.173 1
  20853628.734   -16330308.758 4 -12724893.254 3
  21590025.436   -17336568.699 3 -13508986.074 2
 91  5 21 20 27 45.0010000  0  5 19 11 16 02 06
  22872578.642    11156593.294 2   8693434.321 1
  24774818.746     2257591.662 2   1759163.393 1
  24843577.647     3367867.614 2   2624285.477 1
  20853594.558   -16330480.890 4 -12725027.387 3
  21586597.009   -17354593.524 3 -13523031.373 2
 91  5 21 20 28  0.0010000  0  5 19 11 16 02 06
  22879875.591    11194943.181 2   8723317.301 1
  24783585.884     2303725.177 2   1795111.508 1
  24851003.212     3406860.888 2   2654669.783 1
  20853584.663   -16330562.906 4 -12725091.296 3
  21583175.178   -17372563.471 3 -13537033.916 2
 91  5 21 20 28 15.0010000  0  5 19 11 16 02 06
  22887187.232    11233361.547 2   8753253.628 1
  24792384.790     2349962.767 2   1831140.733 1
  24858421.571     3445910.528 2   2685097.926 1
  20853582.866   -16330556.137 4 -12725086.018 3
  21579764.437   -17390479.714 3 -13550994.612 2
 91  5 21 20 28 30.0010000  0  5 19 11 16 02 06
  22894511.760    11271847.524 2   8783242.654 1
  24801200.788     2396303.171 2   1867250.123 1
  24865863.024     3485015.448 2   2715569.126 1
  20853597.254   -16330461.618 4 -12725012.365 3
  21576365.091   -17408342.955 3 -13564914.017 2
 91  5 21 20 28 45.0010000  0  5 19 11 16 02 06
  22901844.385    11310399.449 2   8813283.013 2
  24810043.765     2442744.496 2   1903438.005 1
  24873325.156     3524173.422 2   2746081.711 1
  20853634.728   -16330280.932 4 -12724871.564 3
  21572979.836   -17426154.579 3 -13578793.184 2
 91  5 21 20 29  0.0010000  0  5 19 11 16 02 06
  22909193.492    11349020.573 2   8843377.359 1
  24818902.333     2489289.775 2   1939707.056 1
  24880784.592     3563387.414 2   2776637.892 1
  20853686.895   -16330010.800 4 -12724661.072 3
  21569595.480   -17443911.113 3 -13592629.424 2
 91  5 21 20 29 15.0010000  0  5 19 11 16 02 06
  22916562.989    11387709.294 2   8873524.344 1
  24827778.290     2535937.235 2   1976055.669 1
  24888258.721     3602655.507 2   2807236.280 1
  20853752.552   -16329652.794 4 -12724382.107 3
  21566233.608   -17461614.036 3 -13606423.893 2
 91  5 21 20 29 30.0010000  0  5 19 11 16 02 06
  22923936.387    11426465.598 2   8903723.980 1
  24836679.123     2582686.322 2   2012483.454 1
  24895750.230     3641977.447 2   2837876.603 1
  20853839.785   -16329207.189 4 -12724034.886 3
  21562874.729   -17479263.227 4 -13620176.493 2
 91  5 21 20 29 45.0010000  0  5 19 11 16 02 06
  22931325.376    11465291.269 2   8933977.719 1
  24845582.660     2629538.389 2   2048991.425 1
  24903227.657     3681354.242 2   2868559.685 1
  20853940.814   -16328672.316 4 -12723618.100 3
  21559524.253   -17496856.741 4 -13633885.706 2
 91  5 21 20 30  0.0010000  0  5 19 11 16 02 06
  22938724.853    11504183.757 2   8964283.488 1
  24854524.570     2676490.732 2   2085577.653 1
  24910737.158     3720783.184 2   2899283.437 1
  20854060.435   -16328050.496 4 -12723133.565 3
  21556188.164   -17514396.854 4 -13647553.312 2
 91  5 21 20 30 15.0010000  0  5 19 11 16 02 06
  22946132.122    11543142.627 2   8994640.997 1
  24863482.369     2723542.692 2   2122241.455 1
  24918251.457     3760263.913 2   2930047.528 1
  20854194.138   -16327342.149 4 -12722581.605 3
  21552859.866   -17531883.824 3 -13661179.499 2
 91  5 21 20 30 30.0010000  0  5 19 11 16 02 06
  22953569.675    11582167.747 2   9025050.139 1
  24872446.764     2770693.679 2   2158982.394 1
  24925754.361     3799795.271 1   2960851.075 1
  20854342.840   -16326547.757 4 -12721962.600 3
  21549540.268   -17549317.710 3 -13674764.341 2
 91  5 21 20 30 45.0010000  0  5 19 11 16 02 06
  22960999.428    11621260.015 2   9055511.594 1
  24881443.835     2817944.097 2   2195800.848 1
  24933308.229     3839377.879 1   2991694.571 1
  20854511.322   -16325666.528 4 -12721275.921 3
  21546234.751   -17566697.569 3 -13688307.067 2
 91  5 21 20 31  0.0010000  0  5 19 11 16 02 06
  22968450.470    11660421.775 2   9086027.194 1
  24890454.996     2865296.008 2   2232698.413 1
  24940842.011     3879014.111 1   3022580.167 1
  20854697.490   -16324696.104 4 -12720519.747 3
  21542933.441   -17584020.805 3 -13701805.682 2
 91  5 21 20 31 15.0010000  0  5 19 11 16 02 06
  22975923.395    11699651.718 2   9116595.908 1
  24899485.048     2912747.849 2   2269673.840 1
  24948394.387     3918702.370 2   3053505.980 1
  20854898.054   -16323637.829 4 -12719695.118 3
  21539649.214   -17601288.465 3 -13715260.985 2
 91  5 21 20 31 30.0010000  0  5 19 11 16 02 06
  22983400.220    11738950.706 2   9147218.414 1
  24908535.176     2960300.278 2   2306727.727 1
  24955962.643     3958443.015 2   3084472.672 1
  20855116.600   -16322490.711 4 -12718801.255 3
  21536374.279   -17618499.470 3 -13728672.149 2
 91  5 21 20 31 45.0010000  0  5 19 11 16 02 06
  22990889.339    11778317.176 2   9177893.538 1
  24917598.208     3007951.443 2   2343858.420 1
  24963533.603     3998233.960 2   3115478.354 1
  20855352.842   -16321256.475 4 -12717839.512 3
  21533109.535   -17635655.294 3 -13742040.310 2
 91  5 21 20 32  0.0010000  0  5 19 11 16 02 06
  22998392.540    11817750.876 2   9208621.042 1
  24926681.919     3055700.647 2   2381065.447 1
  24971111.456     4038074.805 2   3146523.083 1
  20855602.266   -16319935.421 4 -12716810.107 3
  21529855.288   -17652756.029 3 -13755365.551 2
 91  5 21 20 32 15.0010000  0  5 19 11 16 02 06
  23005907.738    11857251.092 2   9239400.355 1
  24935788.411     3103546.690 2   2418348.086 1
  24978700.102     4077964.240 2   3177605.640 1
  20855869.385   -16318528.340 4 -12715713.680 3
  21526612.732   -17669802.232 3 -13768648.294 2
 91  5 21 20 32 30.0010000  0  4 19 11 02 06
  23013442.724    11896817.585 2   9270231.331 1
  24944911.995     3151489.225 2   2455705.844 1
  20856156.581   -16317035.473 4 -12714550.408 3
  21523378.875   -17686793.877 3 -13781888.526 2
 91  5 21 20 32 45.0010000  0  4 19 11 02 06
  23020978.906    11936453.097 2   9301116.078 1
  24954061.965     3199530.641 2   2493140.672 1
  20856456.672   -16315454.104 4 -12713318.170 3
  21520158.202   -17703728.131 3 -13795084.040 2
 91  5 21 20 33  0.0010000  0  4 19 11 02 06
  23028531.579    11976155.131 2   9332052.648 1
  24963216.428     3247668.130 2   2530650.349 1
  20856772.661   -16313786.651 4 -12712018.854 3
  21516944.133   -17720607.139 3 -13808236.493 2
 91  5 21 20 33 15.0010000  0  4 19 11 02 06
  23036103.141    12015924.431 2   9363041.654 1
  24972388.279     3295901.893 2   2568234.984 1
  20857106.929   -16312032.869 4 -12710652.266 3
  21513745.046   -17737430.165 3 -13821345.346 2
 91  5 21 20 33 30.0010000  0  4 19 11 02 06
  23043693.279    12055761.575 2   9394083.521 1
  24981585.312     3344232.437 2   2605895.106 1
  20857455.584   -16310191.877 4 -12709217.723 3
  21510550.757   -17754196.335 3 -13834409.881 2
 91  5 21 20 33 45.0010000  0  4 19 11 02 06
  23051276.533    12095665.824 2   9425177.696 1
  24990808.424     3392658.648 2   2643629.711 1
  20857824.630   -16308264.512 4 -12707715.880 3
  21507374.155   -17770906.297 3 -13847430.610 2
 91  5 21 20 34  0.0010000  0  4 19 11 02 06
  23058883.467    12135638.012 2   9456324.782 1
  25000044.728     3441180.995 2   2681439.217 1
  20858206.266   -16306250.019 4 -12706146.138 3
  21504203.249   -17787558.927 3 -13860406.678 2
 91  5 21 20 34 15.0010000  0  5 19 11 02 06 15
  23066505.687    12175679.755 2   9487526.083 1
  25009292.427     3489800.859 2   2719324.770 1
  20858604.088   -16304146.478 4 -12704507.014 3
  21501049.131   -17804152.326 3 -13873336.595 2
  25042061.842           0.888 2         0.463 1
 91  5 21 20 34 30.0010000  0  5 19 11 02 06 15
  23074138.107    12215790.287 2   9518780.991 1
  25018555.413     3538517.021 2   2757285.324 1
  20859024.097   -16301954.959 4 -12702799.336 3
  21497900.117   -17820687.245 3 -13886220.942 2
  25037182.421      -25637.109 2    -19977.075 1
 91  5 21 20 34 45.0010000  0  5 19 11 02 06 15
  23081787.314    12255969.380 2   9550089.314 1
  25027858.875     3587328.902 2   2795320.464 1
  20859458.799   -16299675.928 4 -12701023.459 3
  21494762.490   -17837163.834 3 -13899059.832 2
  25032317.684      -51189.040 2    -39887.566 1
 91  5 21 20 35  0.0010000  0  5 19 11 02 06 15
  23089440.709    12296214.356 2   9581448.996 1
  25037158.436     3636233.566 2   2833427.940 1
  20859908.788   -16297311.995 4 -12699181.428 3
  21491637.749   -17853584.262 3 -13911854.963 2
  25027470.642      -76657.110 2    -59732.731 1
 91  5 21 20 35 15.0010000  0  5 19 11 02 06 15
  23097111.798    12336523.342 2   9612858.506 1
  25046480.778     3685228.738 2   2871605.958 1
  20860372.266   -16294865.103 4 -12697274.769 3
  21488524.700   -17869950.487 3 -13924607.853 2
  25022643.083     -102042.787 2    -79513.739 1
 91  5 21 20 35 30.0010000  0  5 19 11 02 06 15
  23104795.487    12376897.823 2   9644319.055 1
  25055822.020     3734315.720 2   2909855.455 1
  20860854.930   -16292333.804 4 -12695302.321 3
  21485423.648   -17886260.689 3 -13937317.087 2
  25017822.425     -127344.261 2    -99229.039 1
 91  5 21 20 35 45.0010000  0  5 19 11 02 06 15
  23112492.952    12417339.367 2   9675831.882 1
  25065181.837     3783495.715 2   2948177.485 1
  20861352.584   -16289716.569 4 -12693262.917 3
  21482331.295   -17902513.225 3 -13949981.398 2
  25013024.846     -152559.762 2   -118877.414 1
 91  5 21 20 36  0.0010000  0  5 19 11 02 06 15
  23120200.321    12457846.720 2   9707395.980 1
  25074554.846     3832767.047 2   2986570.672 1
  20861867.034   -16287014.755 4 -12691157.595 3
  21479246.131   -17918709.055 3 -13962601.515 2
  25008250.353     -177690.038 2   -138459.328 1
 91  5 21 20 36 15.0010000  0  5 19 11 02 06 15
  23127915.778    12498420.424 2   9739011.772 1
  25083950.043     3882130.003 2   3025035.229 1
  20862397.364   -16284227.794 4 -12688985.932 3
  21476178.051   -17934847.573 3 -13975176.977 2
  25003485.745     -202733.912 2   -157973.878 1
 91  5 21 20 36 30.0010000  0  5 19 11 02 06 15
  23135651.023    12539061.482 2   9770680.082 1
  25093359.026     3931585.294 2   3063571.767 1
  20862940.885   -16281354.708 4 -12686747.162 3
  21473117.170   -17950927.475 3 -13987706.764 2
  24998736.136     -227690.226 2   -177420.310 1
 91  5 21 20 36 45.0010000  0  5 19 11 02 06 15
  23143392.262    12579766.040 2   9802397.811 2
  25102789.603     3981128.820 2   3102177.090 1
  20863506.892   -16278399.360 4 -12684444.299 3
  21470064.987   -17966952.302 3 -14000193.629 2
  24994005.409     -252562.154 2   -196800.952 1
 91  5 21 20 37  0.0010000  0  5 19 11 02 06 15
  23151155.986    12620538.794 2   9834168.799 1
  25112237.858     4030764.819 2   3140854.406 1
  20864087.888   -16275357.070 4 -12682073.677 3
  21467030.482   -17982917.358 3 -14012633.932 2
  24989283.380     -277344.824 2   -216112.061
 91  5 21 20 37 15.0010000  0  5 19 11 02 06 15
  23158930.207    12661375.820 2   9865989.737 1
  25121700.806     4080489.150 2   3179600.591 1
  20864682.077   -16272231.841 4 -12679638.436 3
  21464003.183   -17998826.265 3 -14025030.471 2
  24984586.828     -302041.748 2   -235356.302 1
 91  5 21 20 37 30.0010000  0  5 19 11 02 06 15
  23166711.616    12702279.888 2   9897862.985 1
  25131179.345     4130304.317 2   3218417.569 1
  20865292.756   -16269021.042 4 -12677136.515 3
  21460983.667   -18014676.118 3 -14037380.996 2
  24979908.573     -326649.626 2   -254531.158 1
 91  5 21 20 37 45.0010000  0  5 19 11 02 06 15
  23174508.618    12743247.220 2   9929785.520 1
  25140672.578     4180206.130 2   3257302.002 1
  20865916.331   -16265728.410 4 -12674570.831 3
  21457981.252   -18030470.466 3 -14049688.273 2
  24975232.107     -351172.092 2   -273639.493 1
 91  5 21 20 38  0.0010000  0  5 19 11 02 06 15
  23182317.617    12784278.587 2   9961757.935 1
  25150181.690     4230195.075 2   3296254.386 1
  20866556.684   -16262353.155 4 -12671940.749 3
  21454986.018   -18046208.402 3 -14061951.584 2
  24970575.429     -375607.955 2   -292680.391 1
 91  5 21 20 38 15.0010000  0  5 19 11 02 06 15
  23190136.806    12825375.001 2   9993781.039 1
  25159710.591     4280271.775 2   3335275.269 1
  20867218.326   -16258894.359 4 -12669245.584 3
  21452000.085   -18061888.555 3 -14074169.880 2
  24965946.636     -399955.717 2   -311652.586 1
 91  5 21 20 38 30.0010000  0  5 19 11 02 06 15
  23197974.275    12866536.615 2  10025854.979 1
  25169264.978     4330435.874 2   3374363.990 1
  20867892.263   -16255352.105 4 -12666485.391 3
  21449027.650   -18077510.784 3 -14086343.033 2
  24961332.528     -424214.804 2   -330555.687 1
 91  5 21 20 38 45.0010000  0  5 19 11 02 06 15
  23205813.550    12907764.223 2  10057980.331 1
  25178823.561     4380687.996 2   3413521.444 1
  20868583.876   -16251725.560 4 -12663659.515 3
  21446066.898   -18093074.031 4 -14098470.228 2
  24956725.322     -448383.938 2   -349388.750 1
 91  5 21 20 39  0.0010000  0  5 19 11 02 06 15
  23213675.606    12949055.252 2  10090155.117 1
  25188392.641     4431025.348 2   3452745.436 1
  20869285.392   -16248017.146 4 -12660769.842 3
  21443118.134   -18108580.705 4 -14110553.335 2
  24952147.187     -472465.355 2   -368153.351 1
 91  5 21 20 39 15.0010000  0  5 19 11 02 06 15
  23221539.459    12990412.688 2  10122381.606 1
  25198005.181     4481450.668 2   3492037.757 1
  20870009.995   -16244223.953 4 -12657814.098 4
  21440176.874   -18124027.516 4 -14122589.816 3
  24947581.347     -496455.701 2   -386847.105 1
 91  5 21 20 39 30.0010000  0  5 19 11 02 06 15
  23229427.603    13031834.862 2  10154658.527 1
  25207606.334     4531961.761 2   3531397.109 1
  20870745.984   -16240347.738 4 -12654793.669 3
  21437249.399   -18139415.917 4 -14134580.760 3
  24943040.695     -520356.021 2   -405470.683 1
 91  5 21 20 39 45.0010000  0  4 19 02 06 15
  23237318.443    13073319.991 2  10186984.513 1
  20871499.659   -16236390.237 4 -12651709.904 3
  21434332.124   -18154747.422 4 -14146527.375 3
  24938511.430     -544167.910 2   -424025.381 1
 91  5 21 20 40  0.0010000  0  4 19 02 06 15
  23245226.062    13114871.343 2  10219362.135 1
  20872268.926   -16232348.557 4 -12648560.544 3
  21431425.336   -18170018.769 4 -14158427.116 2
  24933992.356     -567887.771 2   -442508.287 1
 91  5 21 20 40 15.0010000  0  4 19 02 06 15
  23253143.880    13156485.902 2  10251788.992 1
  20873054.988   -16228225.500 4 -12645347.769 3
  21428532.631   -18185232.590 4 -14170282.028 3
  24929500.269     -591518.128 2   -460921.455 1
 91  5 21 20 40 30.0010000  0  4 19 02 06 15
  23261072.491    13198164.167 2  10284265.501 1
  20873854.234   -16224020.643 4 -12642071.244 3
  21425646.531   -18200388.306 4 -14182091.663 2
  24925017.473     -615057.978 2   -479264.196 1
 91  5 21 20 40 45.0010000  0  4 19 02 06 15
  23269023.290    13239905.032 2  10316790.757 1
  20874670.564   -16219734.993 4 -12638731.784 3
  21422773.327   -18215486.828 4 -14193856.744 3
  24920558.655     -638508.191 2   -497537.097 1
 91  5 21 20 41  0.0010000  0  4 19 02 06 15
  23276980.685    13281711.110 2  10349366.885 1
  20875500.688   -16215366.228 4 -12635327.550 3
  21419909.702   -18230525.266 3 -14205575.003 2
  24916104.644     -661865.842 2   -515737.770 1
 91  5 21 20 41 15.0010000  0  5 19 11 02 06 15
  23284937.775    13323561.511 2  10381977.507 1
  25275337.845       70607.91112     55017.620 1
  20876344.904   -16210935.135 4 -12631874.746 3
  21417055.684   -18245524.311 4 -14217262.558 3
  24911672.812     -685151.267 2   -533882.187 1
 91  5 21 20 41 30.0010000  0  5 19 11 02 06 15
  23292921.547    13365476.273 2  10414638.290 1
  25285077.806      121768.911 2     94883.256 1
  20877204.711   -16206421.743 4 -12628357.816 3
  21414212.154   -18260463.685 3 -14228903.620 2
  24907263.159     -708344.113 2   -551954.552 1
 91  5 21 20 41 45.0010000  0  5 19 11 02 06 15
  23300910.117    13407452.630 2  10447347.061 1
  25294825.254      173009.622 2    134810.997 1
  20878076.812   -16201828.932 4 -12624779.007 3
  21411379.111   -18275346.063 3 -14240500.274 2
  24902872.100     -731446.953 2   -569956.704 1
 91  5 21 20 42  0.0010000  0  5 19 11 02 06 15
  23308909.174    13449492.012 2  10480104.954 1
  25304592.193      224331.324 2    174801.898 1
  20878965.996   -16197155.251 4 -12621137.178 3
  21408560.761   -18290169.725 4 -14252051.172 3
  24898491.232     -754457.697 2   -587887.127 1
 91  5 21 20 42 15.0010000  0  5 19 11 02 06 15
  23316920.831    13491597.603 2  10512914.409 1
  25314377.725      275736.830 2    214858.095 1
  20879871.366   -16192397.505 4 -12617429.836 3
  21405751.110   -18304931.177 4 -14263553.590 3
  24894133.450     -777372.848 2   -605743.065 1
 91  5 21 20 42 30.0010000  0  5 19 11 02 06 15
  23324939.677    13533763.038 2  10545770.528 1
  25324175.237      327219.447 2    254974.369 1
  20880792.327   -16187562.221 4 -12613662.081 3
  21402951.642   -18319636.693 4 -14275012.432 2
  24889784.960     -800198.291 2   -623529.106 1
 91  5 21 20 42 45.0010000  0  5 19 11 02 06 15
  23332971.419    13575988.545 2  10578673.433 1
  25333982.652      378778.987 2    295150.584 1
  20881725.286   -16182649.178 4 -12609833.734 3
  21400168.376   -18334285.881 4 -14286427.370 2
  24885455.055     -822933.394 2   -641244.687 1
 91  5 21 20 43  0.0010000  0  5 19 11 02 06 15
  23341026.544    13618274.221 2  10611623.252 1
  25343805.650      430415.437 2    335386.755 1
  20882675.625   -16177658.117 4 -12605944.604 3
  21397391.392   -18348878.212 4 -14297798.001 2
  24881152.739     -845577.513 2   -658889.455 1
 91  5 21 20 43 15.0010000  0  5 19 11 02 06 15
  23349084.662    13660621.427 2  10644621.027 1
  25353647.538      482129.643 2    375683.504 1
  20883641.555   -16172587.817 4 -12601993.727 3
  21394621.614   -18363412.354 3 -14309123.295 2
  24876861.207     -868129.084 2   -676462.079 1
 91  5 21 20 43 30.0010000  0  5 19 11 02 06 15
  23357152.378    13703040.549 2  10677674.797 1
  25363508.613      533931.850 2    416048.817 1
  20884622.476   -16167428.025 4 -12597973.104 3
  21391871.015   -18377877.600 3 -14320394.900 3
  24872585.563     -890577.433 2   -693954.267 1
 91  5 21 20 43 45.0010000  0  5 19 11 02 06 15
  23365232.387    13745531.678 2  10710784.687 1
  25373379.878      585821.753 2    456482.410 1
  20885619.590   -16162178.518 4 -12593882.581 3
  21389129.115   -18392273.560 3 -14331612.525 3
  24868333.312     -912922.076 2   -711365.626 1
 91  5 21 20 44  0.0010000  0  5 19 11 02 06 15
  23373338.476    13788083.853 2  10743942.148 1
  25383268.532      637788.099 2    496975.639 1
  20886635.882   -16156850.373 4 -12589730.779 3
  21386402.501   -18406611.127 3 -14342784.650 3
  24864111.031     -935173.542 2   -728704.344 1
 91  5 21 20 44 15.0010000  0  5 19 11 02 06 15
  23381440.969    13830696.345 2  10777146.608 1
  25393179.366      689829.822 2    537527.552 1
  20887665.671   -16151444.417 4 -12585518.341 3
  21383685.484   -18420890.760 4 -14353911.629 3
  24859890.259     -957332.223 2   -745970.808 1
 91  5 21 20 44 30.0010000  0  5 19 11 02 06 15
  23389561.446    13873368.617 2  10810397.647 1
  25403092.303      741946.105 2    578137.553 1
  20888708.051   -16145961.141 4 -12581245.657 3
  21380977.455   -18435112.736 4 -14364993.678 3
  24855684.164     -979398.012 2   -763164.863 1
 91  5 21 20 44 45.0010000  0  4 19 02 06 15
  23397692.715    13916102.574 2  10843696.769 1
  20889765.718   -16140398.705 4 -12576911.285 3
  21378283.220   -18449274.987 4 -14376029.190 3
  24851502.961    -1001368.619 2   -780284.846 1
 91  5 21 20 45  0.0010000  0  4 19 02 06 15
  23405839.576    13958898.083 2  10877043.800 1
  20890838.374   -16134757.408 4 -12572515.475 3
  21375600.982   -18463377.456 4 -14387018.115 3
  24847339.147    -1023243.858 2   -797330.352 1
 91  5 21 20 45 15.0010000  0  4 19 02 06 15
  23413994.525    14001756.572 2  10910439.979 1
  20891925.723   -16129035.874 4 -12568057.140 3
  21372930.130   -18477418.567 4 -14397959.229 3
  24843195.113    -1045022.239 2   -814300.333 1
 91  5 21 20 45 30.0010000  0  4 19 02 06 15
  23422168.373    14044677.559 2  10943884.809 1
  20893031.954   -16123234.383 4 -12563536.495 3
  21370268.570   -18491398.414 4 -14408852.611 2
  24839076.268    -1066703.498 2   -831194.845 1
 91  5 21 20 45 45.0010000  0  4 19 02 06 15
  23430341.610    14087659.853 2  10977377.457 1
  20894152.580   -16117354.187 4 -12558954.517 3
  21367619.305   -18505317.970 4 -14419699.004 3
  24834966.113    -1088288.394 2   -848014.157 1
 91  5 21 20 46  0.0010000  0  4 19 02 06 15
  23438541.232    14130705.908 2  11010919.738 1
  20895287.290   -16111393.039 4 -12554309.473 3
  21364984.130   -18519174.657 4 -14430496.414 3
  24830871.245    -1109774.418 2   -864756.480 1
 91  5 21 20 46 15.0010000  0  4 19 02 06 15
  23446736.962    14173816.659 2  11044512.467 1
  20896436.701   -16105350.068 4 -12549600.660 3
  21362358.247   -18532967.361 4 -14441243.964 3
  24826799.760    -1131160.127 2   -881420.549 1
 91  5 21 20 46 30.0010000  0  4 19 02 06 15
  23454956.974    14216989.669 2  11078153.628 1
  20897601.991   -16099227.378 4 -12544829.732 3
  21359744.658   -18546698.022 4 -14451943.168 3
  24822754.067    -1152447.272 2   -898007.895 1
 91  5 21 20 46 45.0010000  0  4 19 02 06 15
  23463177.877    14260225.756 2  11111844.022 1
  20898781.678   -16093024.298 4 -12539996.162 3
  21357146.059   -18560365.654 3 -14462593.258 3
  24818720.955    -1173634.795 2   -914517.583 1
 91  5 21 20 47  0.0010000  0  4 19 02 06 15
  23471420.373    14303522.882 2  11145582.003 1
  20899976.346   -16086742.922 4 -12535101.583 3
  21354552.250   -18573972.146 3 -14473195.702 2
  24814704.936    -1194724.460 2   -930951.011 1
 91  5 21 20 47 15.0010000  0  4 19 02 06 15
  23479674.859    14346880.352 2  11179366.939 1
  20901187.505   -16080384.182 4 -12530146.720 3
  21351978.831   -18587518.085 4 -14483750.976 3
  24810715.895    -1215716.620 2   -947308.455 1
 91  5 21 20 47 30.0010000  0  4 19 02 06 15
  23487932.642    14390297.052 2  11213198.039 1
  20902409.762   -16073949.057 4 -12525132.331 3
  21349412.611   -18601004.203 4 -14494259.626 3
  24806735.552    -1236611.748 2   -963590.308 1
 91  5 21 20 47 45.0010000  0  4 19 02 06 15
  23496205.415    14433772.152 2  11247074.624 1
  20903649.704   -16067438.460 4 -12520059.127 3
  21346858.981   -18614431.240 4 -14504722.240 2
  24802786.987    -1257410.419 2   -979796.928 1
 91  5 21 20 48  0.0010000  0  4 19 02 06 15
  23504493.780    14477305.131 2  11280996.373 1
  20904905.239   -16060852.978 4 -12514927.586 3
  21344313.439   -18627799.509 4 -14515139.057 3
  24798841.423    -1278112.755 2   -995928.514 1
 91  5 21 20 48 15.0010000  0  4 19 02 06 15
  23512787.537    14520895.763 2  11314963.014 1
  20906170.956   -16054193.034 4 -12509738.024 3
  21341779.895   -18641108.946 4 -14525510.035 2
  24794922.235    -1298718.772 2  -1011985.014 1
 91  5 21 20 48 30.0010000  0  4 19 02 06 15
  23521094.189    14564541.683 2  11348972.742 1
  20907450.170   -16047460.905 4 -12504492.208 3
  21339258.042   -18654361.600 4 -14535836.765 3
  24791017.138    -1319230.099 2  -1027967.756 1
 91  5 21 20 48 45.0010000  0  4 19 02 06 15
  23529413.127    14608244.573 2  11383026.864 1
  20908746.180   -16040654.831 4 -12499188.771 3
  21336745.481   -18667555.560 4 -14546117.758 3
  24787136.620    -1339644.814 2  -1043875.291 1
 91  5 21 20 49  0.0010000  0  4 19 02 06 15
  23537734.769    14652004.470 2  11417125.389 1
  20910055.374   -16033774.770 4 -12493827.684 3
  21334246.112   -18680690.541 4 -14556352.801 3
  24783263.308    -1359962.632 2  -1059707.248 1
 91  5 21 20 49 15.0010000  0  4 19 02 06 15
  23546073.190    14695818.019 2  11451265.761 1
  20911380.151   -16026824.010 4 -12488411.513 3
  21331755.137   -18693769.662 4 -14566544.310 3
  24779414.872    -1380186.335 2  -1075465.818 1
 91  5 21 20 49 30.0010000  0  4 19 02 06 15
  23554420.912    14739686.207 2  11485448.655 1
  20912714.229   -16019801.567 4 -12482939.477 3
  21329277.948   -18706791.694 4 -14576691.340 3
  24775583.520    -1400314.326 2  -1091149.977 1
 91  5 21 20 49 45.0010000  0  4 19 02 06 15
  23562773.432    14783606.194 2  11519671.949 1
  20914064.195   -16012710.441 4 -12477413.925 3
  21326811.255   -18719759.347 4 -14586795.987 3
  24771777.653    -1420349.380 2  -1106761.613 1
 91  5 21 20 50  0.0010000  0  4 19 02 06 15
  23571141.239    14827576.618 2  11553934.515 1
  20915427.650   -16005552.158 4 -12471836.042 3
  21324355.058   -18732673.685 4 -14596859.102 3
  24767980.486    -1440292.594 2  -1122301.552 1
 91  5 21 20 50 15.0010000  0  4 19 02 06 15
  23579526.130    14871595.206 2  11588234.626 1
  20916800.703   -15998328.872 4 -12466207.511 3
  21321907.848   -18745536.757 4 -14606882.265 3
  24764200.699    -1460145.865 2  -1137771.627 1
 91  5 21 20 50 30.0010000  0  4 19 02 06 15
  23587908.630    14915663.678 2  11622573.609 1
  20918187.237   -15991038.689 4 -12460526.846 3
  21319470.542   -18758346.556 4 -14616863.917 3
  24760437.106    -1479906.966 2  -1153169.805 1
 91  5 21 20 50 45.0010000  0  4 19 02 06 15
  23596304.017    14959778.428 2  11656948.640 1
  20919587.870   -15983685.652 4 -12454797.209 3
  21317042.815   -18771106.522 4 -14626806.739 3
  24756700.796    -1499578.966 2  -1168498.556 1
 91  5 21 20 51  0.0010000  0  4 19 02 06 15
  23604711.994    15003940.738 2  11691360.706 1
  20920997.795   -15976268.225 4 -12449017.397 3
  21314621.990   -18783814.962 4 -14636709.399 3
  24752971.676    -1519160.189 2  -1183756.526 1
 91  5 21 20 51 15.0010000  0  4 19 02 06 15
  23613116.682    15048150.516 2  11725809.848 1
  20922420.912   -15968786.466 4 -12443187.455 4
  21312213.458   -18796471.875 3 -14646571.924 3
  24749261.742    -1538650.602 2  -1198943.726 1
 91  5 21 20 51 30.0010000  0  4 19 02 06 15
  23621540.548    15092407.524 2  11760295.736 1
  20923859.613   -15961240.936 4 -12437307.821 3
  21309816.025   -18809077.437 3 -14656394.434 3
  24745572.496    -1558049.921 2  -1214060.020 1
 91  5 21 20 51 45.0010000  0  4 19 02 06 15
  23629975.207    15136709.283 2  11794816.491 1
  20925305.215   -15953634.161 4 -12431380.466 3
  21307426.375   -18821633.743 4 -14666178.549 2
  24741897.044    -1577360.504 2  -1229107.141 1
 91  5 21 20 52  0.0010000  0  4 19 02 06 15
  23638418.259    15181057.498 2  11829373.435 1
  20926765.205   -15945964.358 4 -12425403.995 3
  21305046.026   -18834138.734 4 -14675922.692 3
  24738238.370    -1596579.820 2  -1244083.186 1
 91  5 21 20 52 15.0010000  0  4 19 02 06 15
  23646858.921    15225450.400 2  11863965.220 1
  20928240.185   -15938233.112 4 -12419379.655 3
  21302674.663   -18846593.977 4 -14685628.062 2
  24734594.398    -1615709.667 2  -1258989.479 1
 91  5 21 20 52 30.0010000  0  4 19 02 06 15
  23655318.167    15269890.720 2  11898593.957 1
  20929722.057   -15930437.748 4 -12413305.350 3
  21300317.095   -18858996.579 4 -14695292.423 3
  24730974.106    -1634746.650 2  -1273823.416 1
 91  5 21 20 52 45.0010000  0  4 19 02 06 15
  23663780.406    15314376.230 2  11933257.920 1
  20931216.817   -15922580.699 4 -12407182.979 3
  21297965.827   -18871348.505 4 -14704917.295 3
  24727369.702    -1653692.701 2  -1288586.484 1
 91  5 21 20 53  0.0010000  0  4 19 02 06 15
  23672262.433    15358906.706 2  11967956.848 1
  20932723.879   -15914662.122 4 -12401012.657 3
  21295626.547   -18883649.702 4 -14714502.629 3
  24723782.086    -1672547.664 2  -1303278.598 1
 91  5 21 20 53 15.0010000  0  4 19 02 06 15
  23680742.663    15403481.194 2  12002690.077 1
  20934242.623   -15906682.853 4 -12394795.050 3
  21293294.159   -18895900.808 4 -14724048.933 3
  24720212.452    -1691312.077 2  -1317900.168 1
 91  5 21 20 53 30.0010000  0  4 19 02 06 15
  23689240.282    15448100.760 2  12037458.537 1
  20935772.170   -15898641.940 4 -12388529.413 3
  21290974.668   -18908100.641 4 -14733555.282 3
  24716657.511    -1709984.191 2  -1332449.753 1
 91  5 21 20 53 45.0010000  0  4 19 02 06 15
  23697727.405    15492767.264 2  12072263.491 1
  20937314.900   -15890537.807 4 -12382214.501 3
  21288660.865   -18920247.122 4 -14743020.060 3
  24713120.867    -1728562.007 2  -1346925.953 1
 91  5 21 20 54  0.0010000  0  4 19 02 06 15
  23706250.205    15537480.243 2  12107104.662 1
  20938865.125   -15882370.632 4 -12375850.471 3
  21286356.659   -18932340.315 4 -14752443.319 3
  24709603.400    -1747045.808 2  -1361328.903 1
 91  5 21 20 54 15.0010000  0  4 19 02 06 15
  23714751.715    15582240.580 2  12141982.742 1
  20940433.943   -15874139.858 4 -12369436.882 3
  21284067.749   -18944379.360 4 -14761824.385 2
  24706106.315    -1765434.495 2  -1375657.644 1
 91  5 21 20 54 30.0010000  0  4 19 02 06 15
  23723286.809    15627046.203 2  12176896.111 1
  20942010.544   -15865847.354 4 -12362975.192 4
  21281788.123   -18956365.921 4 -14771164.548 3
  24702621.830    -1783729.646 2  -1389913.542 1
 91  5 21 20 54 45.0010000  0  4 19 02 06 15
  23731817.705    15671899.683 2  12211846.762 1
  20943599.448   -15857490.595 4 -12356463.439 3
  21279516.593   -18968297.216 4 -14780461.654 3
  24699162.228    -1801928.264 2  -1404094.239 1
 91  5 21 20 55  0.0010000  0  4 19 02 06 15
  23740364.185    15716801.398 2  12246835.043 1
  20945206.037   -15849069.374 4 -12349901.444 3
  21277256.161   -18980172.610 4 -14789715.194 3
  24695717.607    -1820029.627 2  -1418199.111 1
 91  5 21 20 55 15.0010000  0  4 19 02 06 15
  23748914.870    15761750.785 2  12281860.468 1
  20946818.018   -15840584.102 4 -12343289.544 3
  21275006.820   -18991992.308 4 -14798925.341 3
  24692289.486    -1838033.815 2  -1432228.270 1
 91  5 21 20 55 30.0010000  0  4 19 02 06 15
  23757482.037    15806746.194 2  12316921.674 1
  20948445.591   -15832036.474 4 -12336629.061 3
  21272769.170   -19003757.643 4 -14808093.122 3
  24688883.840    -1855941.888 2  -1446182.630 1
 91  5 21 20 55 45.0010000  0  4 19 02 06 15
  23766049.509    15851790.289 2  12352020.873 1
  20950080.659   -15823423.844 4 -12329917.924 3
  21270540.210   -19015465.878 4 -14817216.412 3
  24685496.483    -1873750.991 2  -1460059.750 1
 91  5 21 20 56  0.0010000  0  4 19 02 06 15
  23774626.265    15896883.036 2  12387157.958 1
  20951734.914   -15814746.210 4 -12323156.134 3
  21268327.443   -19027116.617 4 -14826294.903 3
  24682125.921    -1891460.436 2  -1473859.258 1
 91  5 21 20 56 15.0010000  0  4 19 02 06 15
  23783217.121    15942023.784 2  12422332.476 1
  20953400.563   -15806004.218 4 -12316344.192 4
  21266119.171   -19038710.286 4 -14835328.910 3
  24678773.638    -1909070.962 2  -1487581.694 1
 91  5 21 20 56 30.0010000  0  4 19 02 06 15
  23791813.369    15987212.538 2  12457544.391 1
  20955075.199   -15797197.683 4 -12309481.956 4
  21263923.794   -19050246.578 4 -14844318.229 3
  24675446.248    -1926581.831 2  -1501226.489 1
 91  5 21 20 56 45.0010000  0  4 19 02 06 15
  23800426.404    16032449.976 2  12492794.237 1
  20956764.232   -15788326.371 4 -12302569.255 3
  21261736.505   -19061724.891 4 -14853262.354 3
  24672128.141    -1943992.432 2  -1514793.174 1
 91  5 21 20 57  0.0010000  0  4 19 02 06 15
  23809049.935    16077735.747 2  12528081.776 1
  20958463.761   -15779390.423 4 -12295606.175 3
  21259566.309   -19073145.176 4 -14862161.262 2
  24668833.418    -1961302.473 2  -1528281.488 1
 91  5 21 20 57 15.0010000  0  4 19 02 06 15
  23817672.271    16123070.391 2  12563407.345 1
  20960173.473   -15770389.198 4 -12288592.232 3
  21257404.506   -19084506.458 4 -14871014.197 3
  24665563.884    -1978510.940 2  -1541690.646 1
 91  5 21 20 57 30.0010000  0  4 19 02 06 15
  23826308.392    16168454.795 2  12598771.681 1
  20961901.480   -15761322.049 4 -12281526.933 4
  21255252.292   -19095807.681 4 -14879820.335 3
  24662302.744    -1995616.618 2  -1555019.697
 91  5 21 20 57 45.0010000  0  4 19 02 06 15
  23834955.001    16213889.558 2  12634175.248 1
  20963642.672   -15752188.357 4 -12274409.766 3
  21253113.576   -19107047.949 4 -14888578.976 3
  24659070.684    -2012618.621 2  -1568267.978 1
 91  5 21 20 58  0.0010000  0  4 19 02 06 15
  23843613.310    16259373.419 2  12669617.141 1
  20965391.358   -15742989.390 4 -12267241.741 3
  21250986.246   -19118228.322 4 -14897290.946 3
  24655850.308    -2029517.889 2  -1581436.139 1
 91  5 21 20 58 15.0010000  0  4 19 02 06 15
  23852270.713    16304907.510 2  12705098.142 1
  20967153.839   -15733723.862 4 -12260021.849 3
  21248869.718   -19129347.280 4 -14905955.058 3
  24652661.717    -2046312.821 2  -1594523.013 1
 91  5 21 20 58 30.0010000  0  4 19 02 06 15
  23860955.407    16350492.863 2  12740619.075 1
  20968930.114   -15724390.845 4 -12252749.365 4
  21246767.569   -19140403.548 4 -14914570.324 3
  24649483.919    -2063001.978 2  -1607527.631 1
 91  5 21 20 58 45.0010000  0  4 19 02 06 15
  23869633.199    16396128.192 2  12776178.981 1
  20970718.377   -15714991.632 4 -12245425.304 4
  21244673.516   -19151398.307 4 -14923137.651 3
  24646318.406    -2079586.440 2  -1620450.479 1
 91  5 21 20 59  0.0010000  0  4 19 02 06 15
  23878330.772    16441813.863 2  12811778.094 1
  20972521.622   -15705525.914 4 -12238049.432 4
  21242594.454   -19162330.940 4 -14931656.585 3
  24643190.672    -2096065.482 2  -1633291.232 1
 91  5 21 20 59 15.0010000  0  4 19 02 06 15
  23887037.645    16487549.771 2  12847416.347 1
  20974334.167   -15695993.921 4 -12230621.901 3
  21240524.989   -19173201.247 4 -14940126.937 3
  24640072.536    -2112438.915 2  -1646049.605 1
 91  5 21 20 59 30.0010000  0  4 19 02 06 15
  23895740.924    16533336.391 2  12883094.121 1
  20976161.702   -15686395.143 4 -12223142.333 3
  21238468.114   -19184008.488 4 -14948548.150 3
  24636974.477    -2128705.667 2  -1658725.044 1
 91  5 21 20 59 45.0010000  0  4 19 02 06 15
  23904464.584    16579175.112 2  12918812.497 1
  20978001.531   -15676728.114 4 -12215609.591 4
  21236421.727   -19194750.959 4 -14956918.899 3
  24633896.512    -2144864.026 2  -1671315.930 1
 91  5 21 21  0  0.0010000  0  4 19 02 06 15
  23913196.935    16625063.950 2  12954569.914 1
  20979852.450   -15666994.917 4 -12208025.285 3
  21234391.534   -19205430.499 4 -14965240.597 3
  24630846.720    -2160915.574 2  -1683823.615 1
 91  5 21 21  0 15.0010000  0  4 19 02 06 15
  23921943.979    16671002.938 2  12990366.678 1
  20981717.162   -15657195.335 4 -12200389.250 3
  21232372.736   -19216046.622 4 -14973512.911 3
  24627812.223    -2176859.770 2  -1696247.565 1
 91  5 21 21  0 30.0010000  0  4 19 02 06 15
  23930698.823    16716994.410 2  13026204.354 1
  20983596.856   -15647327.084 4 -12192699.710 3
  21230364.722   -19226596.863 4 -14981733.868 3
  24624808.604    -2192694.092 2  -1708585.998 1
 91  5 21 21  0 45.0010000  0  4 19 02 06 15
  23939459.958    16763038.043 2  13062082.423 1
  20985488.547   -15637390.688 4 -12184957.062 4
  21228367.806   -19237081.270 4 -14989903.515 3
  24621813.074    -2208418.451 2  -1720838.689 1
 91  5 21 21  1  0.0010000  0  4 19 02 06 15
  23948228.884    16809134.423 2  13098001.498 1
  20987391.633   -15627385.359 4 -12177160.713 4
  21226386.482   -19247498.840 4 -14998021.094 3
  24618833.135    -2224031.985 2  -1733005.018 1
 91  5 21 21  1 15.0010000  0  4 19 02 06 15
  23957004.415    16855281.948 2  13133960.519 1
  20989305.503   -15617312.702 4 -12169311.887 3
  21224417.740   -19257851.028 4 -15006087.727 3
  24615888.873    -2239535.765 2  -1745085.792 1
 91  5 21 21  1 30.0010000  0  4 19 02 06 15
  23965799.421    16901481.985 2  13169960.496 1
  20991237.373   -15607171.590 4 -12161409.723 3
  21222461.893   -19268136.284 4 -15014102.206 3
  24612951.207    -2254928.322 2  -1757080.016 1
 91  5 21 21  1 45.0010000  0  4 19 02 06 15
  23974600.430    16947734.027 2  13206000.872 1
  20993179.722   -15596962.487 4 -12153454.586 4
  21220514.746   -19278354.878 4 -15022064.741 3
  24610052.517    -2270209.778 2  -1768987.565 1
 91  5 21 21  2  0.0010000  0  4 19 02 06 15
  23983417.030    16994039.775 2  13242083.176 1
  20995135.568   -15586683.335 4 -12145444.864 4
  21218583.478   -19288504.655 4 -15029973.639 3
  24607162.813    -2285377.871 2  -1780806.820 1
 91  5 21 21  2 15.0010000  0  4 19 02 06 15
  23992237.522    17040398.842 2  13278206.973 1
  20997103.709   -15576334.744 4 -12137381.030 4
  21216666.309   -19298585.724 4 -15037829.006 3
  24604295.899    -2300432.702 2  -1792537.761 1
 91  5 21 21  2 30.0010000  0  4 19 02 06 15
  24001065.508    17086809.527 2  13314371.060 1
  20999085.635   -15565918.506 4 -12129264.487 4
  21214762.325   -19308599.576 4 -15045632.002 3
  24601455.065    -2315375.512 2  -1804181.449 1
 91  5 21 21  2 45.0010000  0  4 19 02 06 15
  24009909.985    17133273.768 2  13350576.862 1
  21001080.753   -15555432.627 4 -12121093.673 4
  21212868.235   -19318543.953 4 -15053380.866 3
  24598637.919    -2330204.145 2  -1815736.139 1
 91  5 21 21  3  0.0010000  0  4 19 02 06 15
  24018764.051    17179791.539 2  13386824.378 1
  21003090.861   -15544876.990 4 -12112868.503 4
  21210988.235   -19328418.564 4 -15061075.355 3
  24595835.458    -2344918.148 2  -1827201.584 1
 91  5 21 21  3 15.0010000  0  4 19 02 06 15
  24027619.025    17226360.850 2  13423112.000 1
  21005109.362   -15534253.576 4 -12104590.526 4
  21209122.031   -19338225.174 4 -15068716.859 3
  24593056.982    -2359519.348 2  -1838579.130 1
 91  5 21 21  3 30.0010000  0  4 19 02 06 15
  24036499.179    17272982.938 2  13459440.805 1
  21007148.551   -15523561.457 4 -12096259.014 4
  21207268.111   -19347962.470 4 -15076304.350 3
  24590302.491    -2374006.008 2  -1849867.311 1
 91  5 21 21  3 45.0010000  0  4 19 02 06 15
  24045374.831    17319658.395 2  13495811.130 1
  21009195.837   -15512800.086 4 -12087873.528 4
  21205427.985   -19357629.556 4 -15083837.144 3
  24587556.089    -2388377.303 2  -1861065.666 1
 91  5 21 21  4  0.0010000  0  4 19 02 06 15
  24054268.779    17366387.492 2  13532223.291 1
  21011252.712   -15501968.962 4 -12079433.700 4
  21203606.148   -19367225.759 4 -15091314.702 3
  24584849.865    -2402632.133 2  -1872173.255 1
 91  5 21 21  4 15.0010000  0  4 19 02 06 15
  24063175.013    17413169.459 2  13568676.726 1
  21013329.671   -15491068.710 4 -12070940.006 4
  21201791.203   -19376751.546 4 -15098737.384 3
  24582159.522    -2416771.424 2  -1883190.828 1
 91  5 21 21  4 30.0010000  0  4 19 02 06 15
  24072080.644    17460004.205 2  13605171.206 1
  21015416.229   -15480099.575 4 -12062392.637 4
  21199989.154   -19386206.738 4 -15106105.054 3
  24579485.974    -2430794.760 2  -1894118.018 1
 91  5 21 21  4 45.0010000  0  4 19 02 06 15
  24081008.463    17506891.048 2  13641706.261 1
  21017519.573   -15469062.451 4 -12053792.296 4
  21198204.790   -19395591.775 4 -15113418.056 3
  24576840.311    -2444702.518 2  -1904955.162 1
 91  5 21 21  5  0.0010000  0  4 19 02 06 15
  24089941.378    17553831.609 2  13678283.257 1
  21019630.413   -15457955.454 4 -12045137.495 4
  21196434.815   -19404904.780 4 -15120674.938 3
  24574221.924    -2458492.558 2  -1915700.615 1
 91  5 21 21  5 15.0010000  0  4 19 02 06 15
  24098879.990    17600826.507 2  13714902.525 1
  21021756.539   -15446777.985 4 -12036427.783 4
  21194675.030   -19414144.801 4 -15127874.948 3
  24571618.822    -2472164.001 2  -1926353.611 1
 91  5 21 21  5 30.0010000  0  4 19 02 06 15
  24107832.092    17647874.973 2  13751563.538 1
  21023899.757   -15435531.127 4 -12027664.006 4
  21192929.337   -19423312.453 4 -15135018.574 3
  24569039.706    -2485717.414 2  -1936914.636 1
 91  5 21 21  5 45.0010000  0  4 19 02 06 15
  24116801.887    17694976.937 2  13788266.202 1
  21026051.369   -15424214.711 4 -12018846.025 4
  21191198.938   -19432407.443 4 -15142105.569 3
  24566490.875    -2499152.497 2  -1947383.478 1
 91  5 21 21  6  0.0010000  0  4 19 02 06 15
  24125778.567    17742131.848 2  13825010.263 1
  21028217.970   -15412829.300 4 -12009974.279 4
  21189483.529   -19441429.977 4 -15149136.105 3
  24563952.226    -2512469.215 2  -1957760.065 1
 91  5 21 21  6 15.0010000  0  5 19 02 13 06 15
  24134752.560    17789341.271 2  13861796.692 1
  21030397.162   -15401373.261 4 -12001047.501 4
  23532453.618           0.858 2         0.118 1
  21187778.608   -19450378.275 4 -15156108.792 3
  24561439.971    -2525665.828 2  -1968043.106 1
 91  5 21 21  6 30.0010000  0  5 19 02 13 06 15
  24143753.531    17836605.174 2  13898625.595 1
  21032594.939   -15389846.616 4 -11992065.706 4
  23522383.289      -52965.143 2    -41271.896 1
  21186090.474   -19459252.058 4 -15163023.424 3
  24558948.996    -2538741.846 2  -1978232.108 1
 91  5 21 21  6 45.0010000  0  5 19 02 13 06 15
  24152754.196    17883921.554 2  13935495.370 1
  21034800.812   -15378251.512 4 -11983030.566 4
  23512307.865     -105871.512 2    -82497.483 1
  21184416.431   -19468053.117 4 -15169881.378 3
  24556481.404    -2551698.883 2  -1988328.410 1
 91  5 21 21  7  0.0010000  0  5 19 02 13 06 15
  24161776.752    17931289.808 2  13972405.574 1
  21037018.674   -15366588.511 4 -11973942.521 4
  23502247.736     -158718.441 2   -123676.721 1
  21182754.385   -19476781.831 4 -15176682.967 3
  24554037.492    -2564537.376 2  -1998332.367 1
 91  5 21 21  7 15.0010000  0  5 19 02 13 06 15
  24170802.904    17978713.062 2  14009358.606 1
  21039251.525   -15354854.383 4 -11964799.042 4
  23492205.581     -211502.126 2   -164806.683 1
  21181108.524   -19485434.708 4 -15183425.457 3
  24551615.472    -2577253.836 2  -2008241.276 1
 91  5 21 21  7 30.0010000  0  5 19 02 13 06 15
  24179829.055    18026188.410 2  14046352.295 1
  21041496.373   -15343052.077 4 -11955602.445 4
  23482171.531     -264224.980 2   -205889.241 1
  21179474.957   -19494014.340 4 -15190110.874 3
  24549219.827    -2589850.879 2  -2018057.097 1
 91  5 21 21  7 45.0010000  0  5 19 02 13 06 15
  24188868.695    18073717.987 2  14083388.178 1
  21043758.907   -15331179.458 4 -11946351.059 4
  23472148.868     -316884.369 2   -246922.370 1
  21177855.472   -19502518.383 4 -15196737.394 3
  24546853.569    -2602326.043 2  -2027777.949 1
 91  5 21 21  8  0.0010000  0  5 19 02 13 06 15
  24197932.618    18121298.584 2  14120463.841 1
  21046027.436   -15319239.647 4 -11937047.312 3
  23462143.899     -369482.970 2   -287908.104 1
  21176255.479   -19510949.655 4 -15203307.211 3
  24544496.594    -2614682.208 2  -2037406.037 1
 91  5 21 21  8 15.0010000  0  5 19 02 13 06 15
  24206985.450    18168933.600 2  14157581.890 1
  21048312.760   -15307229.317 4 -11927688.613 4
  23452142.821     -422016.969 2   -328843.440 1
  21174665.686   -19519304.525 4 -15209817.479 3
  24542168.107    -2626915.386 2  -2046938.316 1
 91  5 21 21  8 30.0010000  0  5 19 02 13 06 15
  24216064.964    18216624.235 2  14194743.276 1
  21050612.768   -15295147.110 4 -11918273.914 4
  23442162.431     -474484.549 2   -369727.190 1
  21173088.779   -19527581.368 4 -15216266.950 3
  24539865.106    -2639024.039 2  -2056373.576 1
 91  5 21 21  8 45.0010000  0  5 19 02 13 06 15
  24225143.580    18264368.032 2  14231946.088 1
  21052923.264   -15282995.530 4 -11908805.154 4
  23432190.129     -526887.708 2   -410561.043 1
  21171528.058   -19535782.377 4 -15222657.336 3
  24537581.588    -2651010.363 2  -2065713.476 1
 91  5 21 21  9  0.0010000  0  5 19 02 13 06 15
  24234247.978    18312162.605 2  14269188.493 1
  21055250.556   -15270777.034 4 -11899284.251 4
  23422230.426     -579228.740 2   -451346.121 1
  21169978.732   -19543909.841 4 -15228990.416 3
  24535321.453    -2662876.553 2  -2074959.795 1
 91  5 21 21  9 15.0010000  0  5 19 02 13 06 15
  24243350.579    18360010.643 2  14306472.572 1
  21057587.132   -15258488.966 4 -11889709.139 3
  23412284.814     -631504.205 2   -492080.082 1
  21168451.288   -19551960.760 4 -15235263.854 3
  24533083.498    -2674619.453 2  -2084110.037
 91  5 21 21  9 30.0010000  0  5 19 02 13 06 15
  24252466.363    18407910.643 2  14343797.169 1
  21059940.206   -15246132.766 4 -11880080.932 3
  23402347.290     -683715.260 2   -532763.930 1
  21166930.737   -19559936.285 4 -15241478.538 3
  24530876.124    -2686240.131 2  -2093165.069 1
 91  5 21 21  9 45.0010000  0  5 19 02 13 06 15
  24261589.049    18455861.131 2  14381161.000 1
  21062303.175   -15233709.784 4 -11870400.688 4
  23392423.264     -735862.765 2   -573398.227 1
  21165426.982   -19567837.543 4 -15247635.346 3
  24528690.938    -2697739.777 2  -2102125.752 1
 91  5 21 21 10  0.0010000  0  5 19 02 13 06 15
  24270727.929    18503863.352 2  14418565.193 1
  21064682.024   -15221219.017 4 -11860667.644 4
  23382506.427     -787944.848 2   -613981.554 1
  21163937.911   -19575663.095 4 -15253733.168 3
  24526530.636    -2709116.588 2  -2110990.774 1
 91  5 21 21 10 15.0010000  0  5 19 02 13 06 15
  24279875.490    18551919.280 2  14456011.245 1
  21067070.470   -15208658.430 4 -11850880.162 3
  23372612.974     -839959.522 2   -654512.706 1
  21162464.729   -19583410.735 4 -15259770.285 3
  24524385.620    -2720368.603 2  -2119758.526 1
 91  5 21 21 10 30.0010000  0  5 19 02 13 06 15
  24289026.960    18600026.794 2  14493497.475 1
  21069474.508   -15196029.982 4 -11841039.820 3
  23362729.415     -891908.219 2   -694992.060 1
  21161006.537   -19591082.179 4 -15265748.030 3
  24522267.888    -2731497.479 2  -2128430.288 1
 91  5 21 21 10 45.0010000  0  5 19 02 13 06 15
  24298185.314    18648185.213 2  14531023.406 1
  21071890.534   -15183334.277 4 -11831147.065 4
  23352852.461     -943791.158 2   -735420.175 1
  21159561.842   -19598677.830 4 -15271666.700 3
  24520169.342    -2742503.518 2  -2137006.382 1
 91  5 21 21 11  0.0010000  0  5 19 02 13 06 15
  24307376.954    18696396.263 2  14568590.283 1
  21074320.050   -15170569.669 4 -11821200.621 4
  23342996.779     -995606.327 2   -775795.502 1
  21158128.830   -19606195.660 4 -15277524.730 3
  24518100.776    -2753384.614 2  -2145485.098 1
 91  5 21 21 11 15.0010000  0  5 19 02 13 06 15
  24316550.900    18744660.749 2  14606198.859 1
  21076763.063   -15157735.405 4 -11811199.902 3
  23333150.397    -1047352.215 2   -816116.758 1
  21156710.511   -19613634.551 4 -15283321.265 3
  24516053.193    -2764139.871 2  -2153865.745 1
 91  5 21 21 11 30.0010000  0  5 19 02 13 06 15
  24325750.629    18792976.952 2  14643847.680 1
  21079215.961   -15144833.037 4 -11801146.110 3
  23323315.106    -1099029.890 2   -856384.979 1
  21155311.684   -19620995.854 4 -15289057.345 3
  24514031.690    -2774770.382 2  -2162149.195 1
 91  5 21 21 11 45.0010000  0  5 19 02 13 06 15
  24334949.162    18841343.653 2  14681535.899 1
  21081684.155   -15131863.897 4 -11791040.287 4
  23313490.607    -1150640.113 2   -896600.562 1
  21153926.338   -19628280.686 4 -15294733.826 3
  24512031.476    -2785277.173 2  -2170336.227 1
 91  5 21 21 12  0.0010000  0  5 19 02 13 06 15
  24344158.192    18889763.010 2  14719265.058 1
  21084163.142   -15118825.757 4 -11780880.708 4
  23303685.897    -1202180.386 2   -936761.718 1
  21152557.787   -19635486.563 4 -15300348.783 3
  24510058.241    -2795657.704 2  -2178424.928 1
 91  5 21 21 12 15.0010000  0  5 19 02 13 06 15
  24353383.406    18938233.552 2  14757034.229 1
  21086656.813   -15105720.316 4 -11770668.678 3
  23293887.180    -1253651.685 2   -976869.016 1
  21151200.029   -19642614.740 4 -15305903.208 3
  24508098.494    -2805913.241 2  -2186416.202 1
 91  5 21 21 12 30.0010000  0  5 19 02 13 06 15
  24362626.604    18986756.213 2  14794843.902 1
  21089167.873   -15092546.427 4 -11760403.315 3
  23284107.346    -1305052.572 2  -1016921.505 1
  21149856.659   -19649663.943 4 -15311396.086 3
  24506178.630    -2816042.505 2  -2194309.093 1
 91  5 21 21 12 45.0010000  0  5 19 02 13 06 15
  24371867.707    19035328.641 2  14832692.400 1
  21091687.030   -15079306.227 4 -11750086.273 4
  23274340.110    -1356384.765 2  -1056920.454 1
  21148529.177   -19656636.041 4 -15316828.885 3
  24504272.246    -2826047.193 2  -2202104.928 1
 91  5 21 21 13  0.0010000  0  5 19 02 13 06 15
  24381113.609    19083951.888 2  14870580.560 1
  21094218.175   -15065998.830 4 -11739716.876 4
  23264584.565    -1407647.053 2  -1096864.965 1
  21147218.186   -19663529.833 4 -15322200.667 3
  24502396.740    -2835926.147 2  -2209802.748 1
 91  5 21 21 13 15.0010000  0  5 19 02 13 06 15
  24390375.992    19132625.816 2  14908508.138 1
  21096764.014   -15052624.436 4 -11729295.288 4
  23254837.415    -1458839.197 2  -1136754.811 1
  21145920.082   -19670345.302 4 -15327511.406 3
  24500543.126    -2845679.376 2  -2217402.681 1
 91  5 21 21 13 30.0010000  0  5 19 02 13 06 15
  24399650.373    19181351.234 2  14946475.880 1
  21099324.240   -15039182.203 4 -11718820.827 3
  23245117.242    -1509959.553 2  -1176588.684 1
  21144640.571   -19677081.188 4 -15332760.144 3
  24498709.300    -2855305.515 2  -2224903.540 1
 91  5 21 21 13 45.0010000  0  5 19 02 13 06 15
  24408931.350    19230126.126 2  14984482.142 1
  21101891.664   -15025674.020 4 -11708294.967 3
  23235400.071    -1561009.736 2  -1216367.883 1
  21143371.853   -19683739.031 4 -15337948.067 3
  24496903.045    -2864806.057 2  -2232306.493 1
 91  5 21 21 14  0.0010000  0  5 19 02 13 06 15
  24418228.808    19278951.732 2  15022527.942 1
  21104474.375   -15012098.464 4 -11697716.613 4
  23225699.687    -1611988.040 2  -1256091.100 1
  21142121.117   -19690317.238 4 -15343073.938 3
  24495119.284    -2874179.354 2  -2239610.339 1
 91  5 21 21 14 15.0010000  0  5 19 02 13 06 15
  24427519.976    19327828.942 2  15060613.974 1
  21107069.981   -14998454.884 4 -11687085.265 4
  23216016.090    -1662893.307 2  -1295757.428 1
  21140888.067   -19696814.991 4 -15348137.120 3
  24493350.809    -2883424.615 2  -2246814.376 1
 91  5 21 21 14 30.0010000  0  5 19 02 13 06 15
  24436828.236    19376755.483 2  15098738.324 1
  21109679.975   -14984745.403 4 -11676402.555 4
  23206336.088    -1713727.271 2  -1335368.124 1
  21139660.715   -19703234.159 4 -15353139.065 3
  24491624.005    -2892543.708 2  -2253920.088 1
 91  5 21 21 14 45.0010000  0  5 19 02 13 06 15
  24446146.085    19425730.642 2  15136900.613 1
  21112299.855   -14970970.798 4 -11665669.098 3
  23196680.071    -1764490.089 2  -1374923.486 1
  21138458.848   -19709574.999 4 -15358079.979 3
  24489913.989    -2901536.829 2  -2260927.644 1
 91  5 21 21 15  0.0010000  0  5 19 02 13 06 15
  24455484.020    19474756.252 2  15175102.232 1
  21114933.538   -14957129.128 4 -11654883.399 3
  23187033.355    -1815179.390 2  -1414421.476 1
  21137268.377   -19715835.414 4 -15362958.215 3
  24488220.454    -2910401.823 2  -2267835.412 1
 91  5 21 21 15 15.0010000  0  5 19 02 13 06 15
  24464831.246    19523822.771 2  15213335.688 1
  21117578.904   -14943230.230 4 -11644053.086 4
  23177399.220    -1865804.422 2  -1453869.434 1
  21136087.495   -19722024.916 4 -15367781.200 3
  24486554.211    -2919148.181 2  -2274650.713 1
 91  5 21 21 15 30.0010000  0  5 19 02 13 06 15
  24474167.985    19572928.988 2  15251600.118 1
  21120235.961   -14929275.248 4 -11633179.077 3
  23167776.778    -1916365.923 2  -1493267.855 1
  21134923.399   -19728144.310 4 -15372549.560 3
  24484918.541    -2927776.995 2  -2281374.432 1
 91  5 21 21 15 45.0010000  0  5 19 02 13 06 15
  24483514.017    19622085.368 2  15289903.620 1
  21122905.321   -14915253.266 4 -11622252.857 3
  23158169.334    -1966852.839 2  -1532608.186 1
  21133774.896   -19734182.729 4 -15377254.813 3
  24483293.071    -2936277.118 2  -2287997.901 1
 91  5 21 21 16  0.0010000  0  5 19 02 13 06 15
  24492880.430    19671291.285 1  15328245.775 1
  21125583.964   -14901164.921 4 -11611274.930 3
  23148577.176    -2017265.297 2  -1571890.524 1
  21132639.279   -19740140.317 4 -15381897.084 3
  24481708.067    -2944648.628 2  -2294521.137 1
 91  5 21 21 16 15.0010000  0  5 19 02 13 06 15
  24502273.227    19720548.756 1  15366628.041 1
  21128276.402   -14887008.386 4 -11600243.869 3
  23138999.702    -2067600.758 2  -1611112.795 1
  21131521.951   -19746015.016 4 -15386474.766 3
  24480132.060    -2952889.392 2  -2300942.483 1
 91  5 21 21 16 30.0010000  0  5 19 02 13 06 15
  24511641.141    19769853.535 2  15405047.201 1
  21130986.220   -14872787.917 4 -11589163.000 3
  23129433.624    -2117862.900 2  -1650277.975 1
  21130418.416   -19751810.727 4 -15390990.906 3
  24478592.619    -2961003.345 2  -2307265.004 1
 91  5 21 21 16 45.0010000  0  5 19 02 13 06 15
  24521032.438    19819208.552 2  15443505.471 1
  21133704.441   -14858500.622 4 -11578030.049 3
  23119883.137    -2168048.697 2  -1689383.646 1
  21129333.170   -19757524.283 4 -15395443.024 3
  24477070.576    -2968987.187 2  -2313486.118 1
 91  5 21 21 17  0.0010000  0  5 19 02 13 06 15
  24530440.531    19868612.579 2  15482001.944 1
  21136434.353   -14844147.407 4 -11566845.727 3
  23110344.639    -2218158.391 2  -1728430.035 1
  21128259.912   -19763156.500 4 -15399831.759 3
  24475577.614    -2976841.806 2  -2319606.534 1
 91  5 21 21 17 15.0010000  0  5 19 02 13 06 15
  24539845.317    19918067.076 2  15520537.776 1
  21139180.450   -14829726.996 4 -11555609.048 3
  23100825.632    -2268190.280 2  -1767415.779 1
  21127206.137   -19768705.787 4 -15404155.866 3
  24474105.330    -2984565.605 2  -2325625.032 1
 91  5 21 21 17 30.0010000  0  5 19 02 13 06 15
  24549269.595    19967569.275 2  15559110.757 1
  21141935.839   -14815242.079 4 -11544322.107 3
  23091321.912    -2318146.804 2  -1806342.812 1
  21126163.163   -19774174.379 4 -15408417.106 3
  24472666.926    -2992161.012 2  -2331543.517 1
 91  5 21 21 17 45.0010000  0  5 19 02 13 06 15
  24558700.470    20017141.506 2  15597738.269 1
  21144707.728   -14800670.203 4 -11532967.399 3
  23081834.080    -2368004.881 2  -1845193.132 1
  21125143.870   -19779539.586 4 -15412597.779 3
  24471245.013    -2999605.243 2  -2337344.229 1
 91  5 21 21 18  0.0010000  0  5 19 02 13 06 15
  24568135.837    20066761.170 2  15636402.793 1
  21147491.596   -14786034.184 4 -11521562.719 3
  23072360.933    -2417786.834 2  -1883984.144 1
  21124140.159   -19784823.949 4 -15416715.461 3
  24469856.368    -3006920.669 2  -2343044.542 1
 91  5 21 21 18 15.0010000  0  5 19 02 13 06 15
  24577587.390    20116428.845 2  15675104.703 1
  21150291.056   -14771333.414 4 -11510107.572 3
  23062900.987    -2467491.866 2  -1922715.204 1
  21123146.945   -19790026.556 4 -15420769.436 3
  24468483.917    -3014106.422 2  -2348643.706 1
 91  5 21 21 18 30.0010000  0  5 19 02 13 06 15
  24587055.739    20166143.315 2  15713843.099 1
  21153102.216   -14756568.987 4 -11498602.830 3
  23053457.827    -2517120.433 2  -1961386.659 1
  21122173.223   -19795148.262 4 -15424760.372 3
  24467139.352    -3021163.277 2  -2354142.535 1
 91  5 21 21 18 45.0010000  0  5 19 02 13 06 15
  24596524.078    20215906.866 2  15752619.684 1
  21155925.059   -14741738.440 4 -11487046.568 3
  23044027.250    -2566669.657 2  -1999996.287 1
  21121210.294   -19800186.387 4 -15428686.179 3
  24465822.366    -3028088.928 2  -2359539.089 1
 91  5 21 21 19  0.0010000  0  5 19 02 13 06 15
  24606010.113    20265718.540 2  15791433.864 1
  21158756.898   -14726842.875 4 -11475439.642 3
  23034613.468    -2616140.105 2  -2038544.553 1
  21120267.441   -19805141.713 4 -15432547.465 3
  24464534.156    -3034883.650 2  -2364833.678 1
 91  5 21 21 19 15.0010000  0  5 19 02 13 06 15
  24615484.455    20315579.508 2  15830286.345 1
  21161605.227   -14711880.887 4 -11463780.956 3
  23025215.278    -2665529.900 2  -2077029.973 1
  21119342.885   -19810012.745 4 -15436343.074 3
  24463263.938    -3041545.811 2  -2370024.913 1
 91  5 21 21 19 30.0010000  0  5 19 02 13 06 15
  24624994.170    20365488.962 2  15869176.708 1
  21164466.147   -14696853.279 4 -11452071.126 3
  23015834.469    -2714839.483 2  -2115452.906 1
  21118433.310   -19814799.860 4 -15440073.284 3
  24462021.595    -3048076.109 2  -2375113.405 1
 91  5 21 21 19 45.0010000  0  5 19 02 13 06 15
  24634493.998    20415447.693 2  15908105.363 1
  21167337.257   -14681759.300 4 -11440309.593 3
  23006460.857    -2764067.716 2  -2153812.383 1
  21117537.233   -19819501.953 4 -15443737.248 3
  24460809.538    -3054473.681 2  -2380098.531 1
 91  5 21 21 20  0.0010000  0  5 19 02 13 06 15
  24644005.807    20465454.246 2  15947071.382 1
  21170222.162   -14666600.407 4 -11428497.476 3
  22997111.833    -2813215.539 2  -2192109.289 1
  21116660.036   -19824120.197 4 -15447335.870 3
  24459611.860    -3060739.387 2  -2384980.809 1
 91  5 21 21 20 15.0010000  0  5 19 02 13 06 15
  24653531.418    20515507.982 2  15986074.105
  21173118.157   -14651377.286 4 -11416635.309 3
  22987771.500    -2862283.163 2  -2230343.676 1
  21115798.135   -19828655.142 4 -15450869.585 3
  24458445.671    -3066873.830 2  -2389760.887 1
 91  5 21 21 20 30.0010000  0  5 19 02 13 06 15
  24663083.406    20565608.364 2  16025113.324 1
  21176027.937   -14636090.398 4 -11404723.449 3
  22978448.250    -2911270.443 2  -2268515.414 1
  21114948.528   -19833106.895 4 -15454338.481 3
  24457302.865    -3072877.180 2  -2394438.709 1
 91  5 21 21 20 45.0010000  0  5 19 02 13 06 15
  24672606.906    20615757.368 2  16064190.338 1
  21178949.418   -14620737.544 4 -11392760.193 3
  22969145.687    -2960175.048 2  -2306622.781 1
  21114119.302   -19837473.072 4 -15457740.692 3
  24456185.833    -3078746.942 2  -2399012.549 1
 91  5 21 21 21  0.0010000  0  5 19 02 13 06 15
  24682160.394    20665955.377 2  16103305.888 1
  21181883.192   -14605318.410 4 -11380745.288 3
  22959855.121    -3008996.182 2  -2344665.089
  21113303.260   -19841752.989 4 -15461075.691 3
  24455095.194    -3084482.616 2  -2403481.860 1
 91  5 21 21 21 15.0010000  0  5 19 02 13 06 15
  24691722.877    20716199.441 2  16142456.938 1
  21184828.352   -14589835.785 4 -11368680.906 3
  22950578.045    -3057736.290 2  -2382644.257 1
  21112505.218   -19845949.308 4 -15464345.535 3
  24454027.633    -3090086.838 2  -2407848.762 1
 91  5 21 21 21 30.0010000  0  5 19 02 13 06 15
  24701301.546    20766487.347 2  16181642.188 1
  21187785.501   -14574291.843 4 -11356568.750 3
  22941318.654    -3106397.087 2  -2420561.627 1
  21111721.860   -19850063.855 4 -15467551.669 3
  24452986.152    -3095561.367 2  -2412114.560
 91  5 21 21 21 45.0010000  0  5 19 02 13 06 15
  24710868.523    20816822.837 2  16220864.508 1
  21190758.242   -14558683.016 4 -11344406.033 3
  22932070.954    -3154974.444 2  -2458413.979 1
  21110952.890   -19854092.809 4 -15470691.109 3
  24451969.555    -3100902.425 2  -2416276.318 1
 91  5 21 21 22  0.0010000  0  5 19 02 13 06 15
  24720462.479    20867207.377 2  16260125.040 1
  21193740.283   -14543007.900 4 -11332191.665 3
  22922849.945    -3203466.613 2  -2496199.986 1
  21110205.812   -19858034.337 4 -15473762.439 3
  24450973.042    -3106108.054 2  -2420332.660 1
 91  5 21 21 22 15.0010000  0  5 19 02 13 06 15
  24730050.745    20917637.538 1  16299421.029 1
  21196735.508   -14527269.678 4 -11319928.118 3
  22913636.719    -3251876.363 2  -2533921.688 1
  21109474.613   -19861891.523 4 -15476768.014 3
  24450018.803    -3111181.462 2  -2424285.942 1
 91  5 21 21 22 30.0010000  0  5 19 02 13 06 15
  24739666.583    20968114.145 1  16338753.253 1
  21199743.027   -14511467.406 4 -11307614.658 3
  22904441.187    -3300202.187 2  -2571578.065 1
  21108751.519   -19865663.176 4 -15479706.954 3
  24449074.755    -3116121.505 2  -2428135.234 1
 91  5 21 21 22 45.0010000  0  5 19 02 13 06 15
  24749275.231    21018634.822 1  16378119.804 1
  21202761.932   -14495603.563 4 -11295253.232 3
  22895260.340    -3348445.772 2  -2609170.347 1
  21108050.596   -19869351.334 4 -15482580.832 3
  24448160.687    -3120930.016 2  -2431882.079 1
 91  5 21 21 23  0.0010000  0  4 02 13 06 15
  21205789.536   -14479675.603 4 -11282841.841 3
  22886095.686    -3396604.442 2  -2646696.466 1
  21107365.876   -19872953.178 4 -15485387.462 3
  24447273.605    -3125604.321 2  -2435524.332 1
 91  5 21 21 23 15.0010000  0  4 02 13 06 15
  21208835.725   -14463683.396 4 -11270380.379 3
  22876947.523    -3444677.819 2  -2684156.106 1
  21106695.840   -19876468.405 4 -15488126.589 3
  24446403.005    -3130144.047 2  -2439061.749 1
 91  5 21 21 23 30.0010000  0  4 02 13 06 15
  21211889.714   -14447627.274 4 -11257869.113 3
  22867811.644    -3492665.551 2  -2721549.013 1
  21106044.092   -19879896.983 4 -15490798.204 3
  24445568.387    -3134549.363 2  -2442494.432 1
 91  5 21 21 23 45.0010000  0  4 02 13 06 15
  21214959.285   -14431509.137 4 -11245309.535 3
  22858698.251    -3540569.354 2  -2758876.489 1
  21105409.131   -19883240.825 4 -15493403.785 3
  24444752.651    -3138822.057 2  -2445823.772 1
 91  5 21 21 24  0.0010000  0  4 02 13 06 15
  21218035.157   -14415327.279 4 -11232700.298 3
  22849595.353    -3588387.193 2  -2796137.031 1
  21104790.058   -19886497.692 4 -15495941.592 3
  24443966.291    -3142959.928 2  -2449048.003 1
 91  5 21 21 24 15.0010000  0  4 02 13 06 15
  21221128.714   -14399080.700 4 -11220040.634 3
  22840520.638    -3636117.177 2  -2833329.091 1
  21104185.678   -19889666.351 4 -15498410.673 3
  24443208.420    -3146961.622 2  -2452166.159 1
 91  5 21 21 24 30.0010000  0  4 02 13 06 15
  21224232.471   -14382769.632 4 -11207330.706 3
  22831450.416    -3683759.179 2  -2870452.620 1
  21103603.181   -19892746.627 4 -15500810.885 3
  24442467.030    -3150827.339 2  -2455178.406
 91  5 21 21 24 45.0010000  0  4 02 13 06 15
  21227349.411   -14366393.984 4 -11194570.476 3
  22822401.178    -3731312.868 2  -2907507.314 1
  21103027.281   -19895738.505 4 -15503142.216 3
  24441757.120    -3154556.816 2  -2458084.430 1
 91  5 21 21 25  0.0010000  0  4 02 13 06 15
  21230475.347   -14349953.835 4 -11181759.978 3
  22813369.932    -3778777.917 2  -2944492.925 1
  21102479.257   -19898641.687 3 -15505404.425 3
  24441066.999    -3158150.016 2  -2460884.249 1
 91  5 21 21 25 15.0010000  0  4 02 13 06 15
  21233618.376   -14333450.091 4 -11168899.914 3
  22804355.472    -3826154.844 2  -2981409.908 1
  21101941.127   -19901456.830 4 -15507598.033 3
  24440414.657    -3161607.357 2  -2463578.258 1
 91  5 21 21 25 30.0010000  0  4 02 13 06 15
  21236770.391   -14316882.494 4 -11155990.109 3
  22795356.901    -3873442.819 2  -3018257.564 1
  21101426.389   -19904183.197 4 -15509722.468 3
  24439773.693    -3164928.397 2  -2466165.995 1
 91  5 21 21 25 45.0010000  0  4 02 13 06 15
  21239934.997   -14300252.376 4 -11143031.572 3
  22786371.225    -3920642.694 2  -3055036.537 1
  21100917.637   -19906821.884 3 -15511778.582 3
  24439177.411    -3168114.211 2  -2468648.459 1
 91  5 21 21 26  0.0010000  0  4 02 13 06 15
  21243109.802   -14283555.936 4 -11130021.363 3
  22777405.329    -3967750.201 2  -3091743.558 1
  21100437.668   -19909368.852 3 -15513763.224 3
  24438600.306    -3171160.766 2  -2471022.257 1
 91  5 21 21 26 15.0010000  0  4 02 13 06 15
  21246301.089   -14266797.143 4 -11116962.572 3
  22768455.924    -4014768.885 2  -3128381.407 1
  21099967.001   -19911827.959 4 -15515679.407 3
  24438043.897    -3174071.671 2  -2473290.518 1
 91  5 21 21 26 30.0010000  0  4 02 13 06 15
  21249502.279   -14249976.245 4 -11103855.382 3
  22759527.808    -4061698.889 2  -3164950.108 1
  21099515.512   -19914199.020 3 -15517526.979 3
  24437516.857    -3176847.303 2  -2475453.324 1
 91  5 21 21 26 45.0010000  0  4 02 13 06 15
  21252715.754   -14233090.703 4 -11090697.823 3
  22750618.870    -4108537.109 2  -3201447.318 1
  21099083.209   -19916479.378 3 -15519303.884 3
  24437012.310    -3179484.821 2  -2477508.470 1
 91  5 21 21 27  0.0010000  0  4 02 13 06 15
  21255939.717   -14216143.218 4 -11077492.001 3
  22741718.936    -4155285.712 2  -3237874.676 1
  21098665.895   -19918671.381 3 -15521011.929 3
  24436546.127    -3181986.468 2  -2479457.783 1
 91  5 21 21 27 15.0010000  0  4 02 13 06 15
  21259177.474   -14199129.887 4 -11064234.869 3
  22732845.378    -4201940.371 2  -3274228.840 1
  21098265.971   -19920770.741 3 -15522647.785 3
  24436089.848    -3184348.220 2  -2481298.025 1
 91  5 21 21 27 30.0010000  0  4 02 13 06 15
  21262423.930   -14182073.199 4 -11050943.948 3
  22723978.713    -4248523.101 2  -3310526.951 1
  21097879.545   -19922799.832 3 -15524228.897 3
  24435661.139    -3186592.311 2  -2483046.625 1
 91  5 21 21 27 45.0010000  0  4 02 13 06 15
  21265677.279   -14164958.382 4 -11037607.729 3
  22715127.945    -4295018.957 2  -3346757.410 1
  21097511.694   -19924743.676 3 -15525743.572 3
  24435257.926    -3188703.722 2  -2484691.851 1
 91  5 21 21 28  0.0010000  0  4 02 13 06 15
  21268951.010   -14147782.661 4 -11024224.059 3
  22706298.153    -4341424.621 3  -3382917.565 1
  21097156.146   -19926599.252 4 -15527189.473 3
  24434881.987    -3190679.593 2  -2486231.450 1
 91  5 21 21 28 15.0010000  0  4 02 13 06 15
  21272228.640   -14130544.463 4 -11010791.710 3
  22697489.056    -4387737.936 2  -3419005.742 1
  21096823.371   -19928364.535 4 -15528565.014 3
  24434535.426    -3192517.819 2  -2487663.772 1
 91  5 21 21 28 30.0010000  0  4 02 13 06 15
  21275520.964   -14113242.449 4 -10997309.630 3
  22688692.541    -4433957.104 2  -3455020.568 1
  21096505.593   -19930038.021 3 -15529869.025 3
  24434212.545    -3194216.875 2  -2488987.594 3
 91  5 21 21 28 45.0010000  0  4 02 13 06 15
  21278827.370   -14095875.982 4 -10983777.329 3
  22679914.619    -4480080.966 2  -3490961.102 1
  21096201.602   -19931618.581 3 -15531100.621 3
  24433919.049    -3195775.847 2  -2490202.539 1
 91  5 21 21 29  0.0010000  0  4 02 13 06 15
  21282145.774   -14078445.423 4 -10970195.072 3
  22671156.189    -4526110.065 2  -3526827.831 1
  21095918.900   -19933106.704 4 -15532260.193 3
  24433641.443    -3197195.217 2  -2491308.382 1
 91  5 21 21 29 15.0010000  0  4 02 13 06 15
  21285471.977   -14060951.429 4 -10956563.400 3
  22662409.738    -4572044.346 2  -3562620.673 1
  21095654.180   -19934502.644 3 -15533347.942 3
  24433398.309    -3198475.226 2  -2492305.753 1
 91  5 21 21 29 30.0010000  0  4 02 13 06 15
  21288814.060   -14043392.310 4 -10942880.984 3
  22653690.876    -4617881.566 2  -3598337.805 1
  21095408.350   -19935804.352 3 -15534362.254 3
  24433180.364    -3199614.039 2  -2493193.159 1
 91  5 21 21 29 45.0010000  0  4 02 13 06 15
  21292166.640   -14025771.968 4 -10929150.852 3
  22644987.598    -4663625.186 2  -3633982.152 1
  21095172.720   -19937015.392 3 -15535305.918 3
  24432994.493    -3200615.334 2  -2493973.361 1
 91  5 21 21 30  0.0010000  0  4 02 13 06 15
  21295532.106   -14008089.756 4 -10915372.516 3
  22636299.614    -4709274.076 2  -3669552.590 1
  21094962.558   -19938134.940 3 -15536178.292 3
  24432827.809    -3201478.390 2  -2494645.826 1
 91  5 21 21 30 15.0010000  0  4 02 13 06 15
  21298909.273   -13990345.877 4 -10901546.121 3
  22627628.418    -4754827.983 2  -3705049.035 1
  21094769.497   -19939162.986 4 -15536979.353 3
  24432695.300    -3202203.173 2  -2495210.540 1
 91  5 21 21 30 30.0010000  0  4 02 13 06 15
  21302296.631   -13972541.934 4 -10887672.929 3
  22618979.409    -4800288.420 2  -3740472.648 1
  21094589.620   -19940101.026 3 -15537710.300 3
  24432578.681    -3202790.998 2  -2495668.549 1
 91  5 21 21 30 45.0010000  0  4 02 13 06 15
  21305696.273   -13954677.572 4 -10873752.665 3
  22610346.586    -4845654.327 2  -3775822.560 1
  21094427.429   -19940948.255 4 -15538370.477 3
  24432495.635    -3203241.038 2  -2496019.225 1
 91  5 21 21 31  0.0010000  0  4 02 13 06 15
  21309106.709   -13936753.551 4 -10859785.898 3
  22601733.246    -4890926.410 2  -3811099.447 1
  21094282.933   -19941705.219 4 -15538960.310 3
  24432432.980    -3203554.141 2  -2496263.232 1
 91  5 21 21 31 15.0010000  0  4 02 13 06 15
  21312529.142   -13918769.262 4 -10845772.173 3
  22593136.396    -4936103.522 2  -3846302.278 1
  21094155.817   -19942371.100 4 -15539479.180 3
  24432402.102    -3203729.195 2  -2496399.574 1
 91  5 21 21 31 30.0010000  0  4 02 13 06 15
  21315962.071   -13900726.512 4 -10831712.901 3
  22584556.037    -4981187.096 2  -3881432.217 1
  21094043.996   -19942947.312 3 -15539928.162 3
  24432396.108    -3203768.065 2  -2496429.843 1
 91  5 21 21 31 45.0010000  0  4 02 13 06 15
  21319409.082   -13882624.118 4 -10817607.148 3
  22575995.763    -5026175.445 2  -3916487.961 1
  21093951.658   -19943432.544 3 -15540306.262 3
  24432417.685    -3203669.503 2  -2496353.026 1
 91  5 21 21 32  0.0010000  0  4 02 13 06 15
  21322863.885   -13864463.973 4 -10803456.391 3
  22567450.182    -5071069.953 2  -3951470.581 1
  21093876.709   -19943828.391 3 -15540614.711 3
  24432464.460    -3203435.156 2  -2496170.409 1
 91  5 21 21 32 15.0010000  0  4 02 13 06 15
  21326330.091   -13846247.099 4 -10789261.424 3
  22558923.482    -5115870.968 2  -3986380.365 1
  21093818.556   -19944135.471 4 -15540853.984 3
  24432531.312    -3203065.521 2  -2495882.384 1
 91  5 21 21 32 30.0010000  0  4 02 13 06 15
  21329807.981   -13827974.223 4 -10775022.829 3
  22550417.774    -5160579.002 2  -4021217.694 1
  21093777.479   -19944354.350 4 -15541024.533 3
  24432626.643    -3202561.270 2  -2495489.407 1
 91  5 21 21 32 45.0010000  0  4 02 13 06 15
  21333295.171   -13809645.523 4 -10760740.736 3
  22541927.345    -5205194.146 2  -4055982.636 1
  21093752.298   -19944484.990 3 -15541126.315 3
  24432743.864    -3201922.450 2  -2494991.637 1
 91  5 21 21 33  0.0010000  0  4 02 13 06 15
  21336796.147   -13791259.931 4 -10746414.305 3
  22533452.219    -5249714.810 2  -4090673.980 1
  21093745.405   -19944525.975 4 -15541158.257 3
  24432886.267    -3201147.655 2  -2494387.869 1
 91  5 21 21 33 15.0010000  0  4 02 13 06 15
  21340305.517   -13772816.164 4 -10732042.544 3
  22524997.466    -5294139.132 2  -4125290.206 1
  21093752.298   -19944475.843 3 -15541119.174 3
  24433065.245    -3200235.275 2  -2493676.931 1
 91  5 21 21 33 30.0010000  0  4 02 13 06 15
  21343828.079   -13754297.947 4 -10717612.769 3
  22516572.100    -5338450.590 3  -4159818.515 1
  21093783.778   -19944318.025 3 -15540996.202 3
  24433273.601    -3199169.335 2  -2492846.324 1
 91  5 21 21 33 45.0010000  0  4 02 13 06 15
  21347360.832   -13735722.226 4 -10703138.196 3
  22508160.824    -5382665.734 2  -4194271.773 1
  21093831.147   -19944069.350 3 -15540802.414 3
  24433497.539    -3197966.480 2  -2491908.973 1
 91  5 21 21 34  0.0010000  0  4 02 13 06 15
  21350909.770   -13717091.126 4 -10688620.466 3
  22499757.943    -5426786.160 2  -4228651.224 1
  21093898.601   -19943731.505 4 -15540539.155 3
  24433750.271    -3196628.619 2  -2490866.453 1
 91  5 21 21 34 15.0010000  0  4 02 13 06 15
  21354463.210   -13698404.492 4 -10674059.453 3
  22491379.343    -5470811.428 2  -4262956.512 1
  21093980.739   -19943304.227 4 -15540206.204 3
  24434031.176    -3195155.497 2  -2489718.537 1
 91  5 21 21 34 30.0010000  0  4 02 13 06 15
  21358031.343   -13679660.311 4 -10659453.597 3
  22483021.125    -5514739.031 2  -4297185.724 1
  21094079.071   -19942785.132 4 -15539801.700 3
  24434341.458    -3193544.738 2  -2488463.389 1
 91  5 21 21 34 45.0010000  0  4 02 13 06 15
  21361607.870   -13660859.146 4 -10644803.350 3
  22474679.702    -5558569.225 2  -4331339.028 1
  21094193.893   -19942174.657 4 -15539325.999 3
  24434673.030    -3191796.769 2  -2487101.306 1
 91  5 21 21 35  0.0010000  0  4 02 13 06 15
  21365196.080   -13642001.646 4 -10630109.198 3
  22466360.765    -5602302.252 2  -4365416.608 1
  21094323.400   -19941473.212 3 -15538779.412 3
  24435036.073    -3189912.039 2  -2485632.676 1
 91  5 21 21 35 15.0010000  0  4 02 13 06 15
  21368795.990   -13623087.353 4 -10615370.785 3
  22458058.012    -5645937.449 2  -4399417.942 1
  21094475.697   -19940680.004 4 -15538161.329 3
  24435409.621    -3187890.184 2  -2484057.155 1
 91  5 21 21 35 30.0010000  0  4 02 13 06 15
  21372405.193   -13604114.546 4 -10600586.788 3
  22449768.749    -5689472.285 2  -4433341.120 1
  21094647.477   -19939793.023 3 -15537470.157 3
  24435824.229    -3185729.044 2  -2482373.116 1
 91  5 21 21 35 45.0010000  0  4 02 13 06 15
  21376028.181   -13585085.717 4 -10585759.133 3
  22441510.363    -5732909.087 3  -4467187.862 1
  21094830.652   -19938814.511 3 -15536707.664 3
  24436265.824    -3183431.023 2  -2480582.438 1
 91  5 21 21 36  0.0010000  0  4 02 13 06 15
  21379658.672   -13566000.052 4 -10570887.191 3
  22433258.880    -5776246.523 3  -4500957.212 1
  21095035.709   -19937743.416 3 -15535873.049 3
  24436726.004    -3180995.000 2  -2478684.241 1
 91  5 21 21 36 15.0010000  0  4 02 13 06 15
  21383299.049   -13546855.705 4 -10555969.514 3
  22425033.475    -5819482.196 3  -4534647.251 1
  21095259.657   -19936577.513 4 -15534964.547 3
  24437219.165    -3178418.827 2  -2476676.836 1
 91  5 21 21 36 30.0010000  0  4 02 13 06 15
  21386952.924   -13527654.669 4 -10541007.672 3
  22416821.560    -5862617.822 3  -4568259.332 1
  21095498.288   -19935318.537 4 -15533983.514 3
  24437734.810    -3175704.270 2  -2474561.556 1
 91  5 21 21 36 45.0010000  0  4 02 13 06 15
  21390620.279   -13508397.551 4 -10526002.127 3
  22408633.324    -5905653.796 3  -4601793.752 1
  21095754.614   -19933966.973 3 -15532930.334 3
  24438278.934    -3172852.208 2  -2472339.218 1
 91  5 21 21 37  0.0010000  0  4 02 13 06 15
  21394292.739   -13489083.902 4 -10510952.530 3
  22400463.080    -5948589.280 3  -4635249.899 1
  21096031.026   -19932522.184 3 -15531804.523 3
  24438843.143    -3169861.953 2  -2470009.077 1
 91  5 21 21 37 15.0010000  0  4 02 13 06 15
  21397984.385   -13469713.200 4 -10495858.480 3
  22392310.530    -5991423.299 3  -4668626.951 1
  21096321.223   -19930983.359 3 -15530605.431 3
  24439438.527    -3166732.729 2  -2467570.655 1
 91  5 21 21 37 30.0010000  0  4 02 13 06 15
  21401677.226   -13450285.903 4 -10480720.321 3
  22384179.252    -6034156.028 3  -4701925.090 1
  21096635.100   -19929350.853 3 -15529333.338 3
  24440059.397    -3163464.972 2  -2465024.321 1
 91  5 21 21 37 45.0010000  0  4 02 13 06 15
  21405388.058   -13430801.243 4 -10465537.474 3
  22376069.866    -6076786.174 3  -4735143.290 1
  21096963.976   -19927623.718 3 -15527987.504 3
  24440711.145    -3160057.627 2  -2462369.235 1
 91  5 21 21 38  0.0010000  0  4 02 13 06 15
  21409106.386   -13411260.184 4 -10450310.683 3
  22367979.072    -6119314.047 3  -4768281.826 1
  21097307.239   -19925802.264 3 -15526568.193 3
  24441392.280    -3156511.392 2  -2459605.884 1
 91  5 21 21 38 15.0010000  0  4 02 13 06 15
  21412832.505   -13391662.665 4 -10435039.883 3
  22359899.665    -6161739.436 3  -4801340.483 1
  21097672.681   -19923886.391 3 -15525075.300 3
  24442086.292    -3152826.024 2  -2456734.188 1
 91  5 21 21 38 30.0010000  0  4 02 13 06 15
  21416574.215   -13372007.723 4 -10419724.344 3
  22351848.440    -6204061.059 3  -4834318.277 1
  21098057.022   -19921874.855 4 -15523507.873 3
  24442811.794    -3149000.708 2  -2453753.377 1
 91  5 21 21 38 45.0010000  0  4 02 13 06 15
  21420324.616   -13352295.946 4 -10404364.530 3
  22343813.697    -6246279.069 3  -4867215.328 2
  21098454.844   -19919768.150 3 -15521866.270 3
  24443574.168    -3145035.715 2  -2450663.747 1
 91  5 21 21 39  0.0010000  0  4 02 13 06 15
  21424087.310   -13332528.959 4 -10388961.685 3
  22335800.548    -6288394.724 3  -4900032.638 1
  21098876.650   -19917567.428 3 -15520151.424 3
  24444356.321    -3140932.334 2  -2447466.314 1
 91  5 21 21 39 15.0010000  0  4 02 13 06 15
  21427860.205   -13312705.126 4 -10373514.538 3
  22327806.882    -6330406.070 3  -4932768.684 1
  21099310.149   -19915270.766 3 -15518361.807 3
  24445163.368    -3136688.905 2  -2444159.738 1
 91  5 21 21 39 30.0010000  0  4 02 13 06 15
  21431643.281   -13292825.371 4 -10358023.823 3
  22319832.098    -6372313.571 3  -4965423.785 1
  21099766.437   -19912878.992 4 -15516498.076 3
  24445992.890    -3132306.178 2  -2440744.673 1
 91  5 21 21 39 45.0010000  0  4 02 13 06 15
  21435433.861   -13272892.296 4 -10342491.569 3
  22311874.711    -6414119.492 3  -4997999.729 1
  21100242.505   -19910394.662 3 -15514562.229 3
  24446847.296    -3127786.758 2  -2437223.027 1
 91  5 21 21 40  0.0010000  0  4 02 13 06 15
  21439241.821   -13252901.109 4 -10326914.023 3
  22303938.605    -6455818.494 3  -5030492.382 2
  21100733.563   -19907812.450 3 -15512550.116 3
  24447741.280    -3123125.522 2  -2433590.904 1
 91  5 21 21 40 15.0010000  0  4 02 13 06 15
  21443056.683   -13232853.860 4 -10311292.792 3
  22296023.483    -6497412.287 3  -5062903.032 1
  21101240.815   -19905133.981 4 -15510462.997 3
  24448657.451    -3118324.413 2  -2429849.780 1
 91  5 21 21 40 30.0010000  0  4 02 13 06 15
  21446879.031   -13212749.713 4 -10295627.224 3
  22288130.549    -6538899.976 3  -5095230.998 1
  21101769.949   -19902358.530 3 -15508300.303 3
  24449589.502    -3113382.619 2  -2425998.979 1
 91  5 21 21 40 45.0010000  0  4 02 13 06 15
  21450715.776   -13192587.985 4 -10279916.793 3
  22280259.794    -6580280.393 3  -5127475.415 1
  21102318.872   -19899485.215 3 -15506061.352 3
  24450560.528    -3108299.381 2  -2422037.976 1
 91  5 21 21 41  0.0010000  0  4 02 13 06 15
  21454564.517   -13172368.802 4 -10264161.596 3
  22272400.138    -6621553.274 3  -5159636.014 1
  21102881.877   -19896513.881 3 -15503746.026 3
  24451561.839    -3103074.567 2  -2417966.699 1
 91  5 21 21 41 15.0010000  0  4 02 13 06 15
  21458423.144   -13152093.210 4 -10248362.435 3
  22264568.663    -6662719.029 3  -5191713.149 2
  21103463.475   -19893445.323 3 -15501354.941 3
  24452579.335    -3097709.118 2  -2413785.864 1
 91  5 21 21 41 30.0010000  0  4 02 13 06 15
  21462295.260   -13131762.428 4 -10232520.266 3
  22256755.468    -6703778.562 3  -5223707.515 1
  21104067.261   -19890280.412 3 -15498888.762 3
  24453624.106    -3092204.016 2  -2409496.140 1
 91  5 21 21 41 45.0010000  0  4 02 13 06 15
  21466172.175   -13111376.806 4 -10216635.377 3
  22248960.263    -6744731.899 3  -5255619.113 1
  21104690.531   -19887019.030 3 -15496347.420 3
  24454695.863    -3086559.345 2  -2405097.691 1
 91  5 21 21 42  0.0010000  0  4 02 13 06 15
  21470060.188   -13090935.163 4 -10200706.835 3
  22241188.443    -6785577.421 3  -5287446.722 1
  21105327.586   -19883659.972 3 -15493729.970 3
  24455797.905    -3080774.036 2  -2400589.680 1
 91  5 21 21 42 15.0010000  0  4 02 13 06 15
  21473960.190   -13070438.066 4 -10184735.071 3
  22233438.810    -6826315.599 3  -5319190.687 1
  21105987.126   -19880203.586 3 -15491036.676 3
  24456928.418    -3074848.654 2  -2395972.481 1
 91  5 21 21 42 30.0010000  0  4 02 13 06 15
  21477872.476   -13049884.801 4 -10168719.545 3
  22225707.159    -6866945.256 3  -5350850.074 1
  21106665.564   -19876649.036 3 -15488266.893 3
  24458087.121    -3068782.161 2  -2391245.353 1
 91  5 21 21 42 45.0010000  0  4 02 13 06 15
  21481794.962   -13029276.174 4 -10152660.888 3
  22217995.000    -6907466.733 3  -5382425.160 1
  21107361.679   -19872996.852 4 -15485421.028 3
  24459266.799    -3062575.077 2  -2386408.619 1
 91  5 21 21 43  0.0010000  0  4 02 13 06 15
  21485724.638   -13008611.354 4 -10136558.437 3
  22210305.928    -6947878.899 3  -5413915.081 1
  21108070.385   -19869245.983 4 -15482498.270 3
  24460465.970    -3056226.644 2  -2381461.816 1
 91  5 21 21 43 15.0010000  0  4 02 13 06 15
  21489669.914   -12987890.514 4 -10120412.341 3
  22202635.432    -6988181.356 3  -5445319.522 1
  21108805.781   -19865396.308 4 -15479498.516 3
  24461705.310    -3049736.937 2  -2376404.883 1
 91  5 21 21 43 30.0010000  0  4 02 13 06 15
  21493624.474   -12967111.441 4 -10104220.857 3
  22194988.930    -7028371.885 3  -5476636.741 1
  21109556.454   -19861445.386 3 -15476419.870 3
  24462966.237    -3043103.592 2  -2371236.052 1
 91  5 21 21 43 45.0010000  0  4 02 13 06 15
  21497587.732   -12946276.579 4 -10087985.899 3
  22187355.917    -7068452.370 3  -5507868.207 1
  21110326.628   -19857395.207 3 -15473263.887 3
  24464254.447    -3036328.970 2  -2365957.097 1
 91  5 21 21 44  0.0010000  0  4 02 13 06 15
  21501565.073   -12925386.340 4 -10071707.807 3
  22179751.976    -7108422.779 3  -5539013.920 1
  21111114.776   -19853246.250 3 -15470030.941 3
  24465574.137    -3029413.082 2  -2360568.126 1
 91  5 21 21 44 15.0010000  0  4 02 13 06 15
  21505549.316   -12904439.349 4 -10055385.491 3
  22172169.324    -7148281.564 3  -5570072.639 1
  21111924.815   -19848996.973 4 -15466719.809 3
  24466917.804    -3022354.765 2  -2355068.109 1
 91  5 21 21 44 30.0020000  0  4 02 13 06 15
  21509546.754   -12883435.280 4 -10039018.685 3
  22164603.166    -7188031.662 3  -5601046.667 2
  21112753.442   -19844647.683 3 -15463330.745 3
  24468286.654    -3015154.353 2  -2349457.392 1
 91  5 21 21 44 45.0020000  0  4 02 13 06 15
  21513553.175   -12862374.948 4 -10022608.044 3
  22157058.285    -7227665.473 3  -5631930.064 2
  21113597.963   -19840196.672 4 -15459862.417 3
  24469680.089    -3007810.802 2  -2343735.112 1
 91  5 21 21 45  0.0020000  0  4 02 13 06 15
  21517572.196   -12841260.346 4 -10006155.119 3
  22149537.991    -7267189.129 3  -5662727.663 1
  21114465.858   -19835647.072 4 -15456317.271 3
  24471110.998    -3000327.208 2  -2337903.758 1
 91  5 21 21 45 15.0020000  0  4 02 13 06 15
  21521600.204   -12820090.164 4  -9989658.882 3
  22142041.081    -7306600.764 3  -5693437.948 1
  21115347.251   -19830997.340 3 -15452694.100 3
  24472559.297    -2992701.905 2  -2331961.932 1
 91  5 21 21 45 30.0020000  0  4 02 13 06 15
  21525641.412   -12798861.801 4  -9973117.309 3
  22134564.256    -7345897.532 3  -5724058.729 1
  21116253.825   -19826244.774 4 -15448990.792 3
  24474034.276    -2984932.049 2  -2325907.450 1
 91  5 21 21 45 45.0020000  0  4 02 13 06 15
  21529693.100   -12777577.488 4  -9956532.130 3
  22127106.321    -7385081.263 3  -5754591.429 1
  21117176.287   -19821391.053 3 -15445208.671 3
  24475540.736    -2977019.720 2  -2319742.039 1
 91  5 21 21 46  0.0020000  0  4 02 13 06 15
  21533752.291   -12756238.734 4  -9939904.538 3
  22119672.066    -7424153.065 3  -5785036.907 1
  21118119.428   -19816437.388 3 -15441348.664 3
  24477073.877    -2968966.340 2  -2313466.709 1
 91  5 21 21 46 15.0020000  0  4 02 13 06 15
  21537824.072   -12734842.982 4  -9923232.542 3
  22112258.201    -7463110.164 3  -5815393.025 2
  21119082.365   -19811381.299 3 -15437408.862 3
  24478639.694    -2960769.366 2  -2307079.450 1
 91  5 21 21 46 30.0020000  0  4 02 13 06 15
  21541907.851   -12713390.424 4  -9906516.258 3
  22104868.017    -7501952.345 3  -5845659.576 2
  21120064.184   -19806222.687 3 -15433389.163 3
  24480218.398    -2952428.910 2  -2300580.353 1
 91  5 21 21 46 45.0020000  0  4 02 13 06 15
  21545996.419   -12691883.039 4  -9889757.263 3
  22097496.425    -7540680.867 3  -5875837.565 2
  21121066.394   -19800963.178 3 -15429290.840 3
  24481845.971    -2943946.879 2  -2293970.977 1
 91  5 21 21 47  0.0020000  0  4 02 13 06 15
  21550099.672   -12670321.496 4  -9872956.062 3
  22090149.107    -7579296.166 3  -5905927.333 1
  21122083.881   -19795603.164 3 -15425114.210 3
  24483481.938    -2935323.777 2  -2287251.653 1
 91  5 21 21 47 15.0020000  0  4 02 13 06 15
  21554215.524   -12648705.234 4  -9856112.239 3
  22082818.585    -7617797.859 3  -5935928.555 1
  21123122.370   -19790142.240 3 -15420858.946 3
  24485149.986    -2926559.242 2  -2280422.201 1
 91  5 21 21 47 30.0020000  0  4 02 13 06 15
  21558334.971   -12627035.285 4  -9839226.579 3
  22075519.839    -7656186.406 3  -5965841.655 1
  21124183.029   -19784580.807 3 -15416525.350 3
  24486833.016    -2917654.041 2  -2273483.043 1
 91  5 21 21 47 45.0020000  0  4 02 13 06 15
  21562471.816   -12605309.329 4  -9822297.264 3
  22068233.684    -7694458.748 3  -5995664.165 1
  21125259.585   -19778916.367 3 -15412111.502 3
  24488552.325    -2908605.745 2  -2266432.438 1
 91  5 21 21 48  0.0020000  0  4 02 13 06 15
  21566618.240   -12583527.630 4  -9805324.517 3
  22060972.107    -7732615.062 3  -6025396.308 1
  21126357.126   -19773149.189 3 -15407617.602 3
  24490313.610    -2899414.289 2  -2259270.259 1
 91  5 21 21 48 15.0020000  0  4 02 13 06 15
  21570773.364   -12561690.147 4  -9788308.301 3
  22053733.617    -7770655.146 3  -6055037.849 1
  21127476.252   -19767279.006 3 -15403043.433 3
  24492087.181    -2890079.848 2  -2251996.687 1
 91  5 21 21 48 30.0020000  0  4 02 13 06 15
  21574939.281   -12539797.834 4  -9771249.367 3
  22046515.518    -7808579.132 3  -6084588.942 1
  21128611.868   -19761306.143 3 -15398389.253 3
  24493887.136    -2880602.849 2  -2244611.994 1
 91  5 21 21 48 45.0020000  0  4 02 13 06 15
  21579115.388   -12517850.257 4  -9754147.360 3
  22039322.896    -7846386.322 3  -6114049.025 2
  21129768.163   -19755230.049 3 -15393654.627 3
  24495721.861    -2870982.927 2  -2237115.952 1
 91  5 21 21 49  0.0020000  0  4 02 13 06 15
  21583301.390   -12495846.591 4  -9737001.653 3
  22032150.961    -7884075.787 3  -6143417.380 1
  21130947.554   -19749049.989 4 -15388838.991 3
  24497579.977    -2861219.402 2  -2229508.020 1
 91  5 21 21 49 15.0020000  0  4 02 13 06 15
  21587497.286   -12473788.045 4  -9719813.185 3
  22025000.909    -7921648.553 3  -6172694.775 2
  21132139.822   -19742766.914 3 -15383943.088 3
  24499460.875    -2851313.507 2  -2221789.098 1
 91  5 21 21 49 30.0020000  0  4 02 13 06 15
  21591709.970   -12451675.228 4  -9702582.432 3
  22017872.146    -7959104.804 3  -6201881.384 2
  21133353.686   -19736381.133 3 -15378967.151 3
  24501375.949    -2841265.889 2  -2213959.819 1
 91  5 21 21 49 45.0020000  0  4 02 13 06 15
  21595925.951   -12429515.830 4  -9685315.375 3
  22010765.562    -7996451.856 3  -6230982.913 1
  21134586.134   -19729900.113 3 -15373917.005 3
  24503312.007    -2831083.906 2  -2206025.759 1
 91  5 21 21 50  0.0020000  0  4 02 13 06 15
  21600148.528   -12407318.223 4  -9668018.545 3
  22003678.471    -8033697.634 3  -6260005.509 1
  21135836.564   -19723331.990 3 -15368798.981 3
  24505274.153    -2820775.704 2  -2197993.356 1
 91  5 21 21 50 15.0020000  0  4 02 13 06 15
  21604383.400   -12385067.451 4  -9650680.293 3
  21996613.558    -8070826.933 3  -6288937.371 1
  21137107.681   -19716661.603 3 -15363601.282 3
  24507262.972    -2810326.528 2  -2189851.189 1
 91  5 21 21 50 30.0020000  0  4 02 13 06 15
  21608627.258   -12362764.156 4  -9633301.109 3
  21989570.240    -8107839.998 3  -6317778.639 1
  21138397.689   -19709889.458 3 -15358324.278 3
  24509281.779    -2799736.960 2  -2181599.546 1
 91  5 21 21 50 45.0020000  0  4 02 13 06 15
  21612883.715   -12340406.537 4  -9615879.594 3
  21982550.000    -8144734.660 3  -6346527.652 2
  21139703.890   -19703013.371 3 -15352966.273 3
  24511317.966    -2789004.972 2  -2173236.925 1
 91  5 21 21 51  0.0020000  0  4 02 13 06 15
  21617145.564   -12317995.750 4  -9598416.640 3
  21975551.346    -8181511.929 3  -6375185.202 1
  21141034.670   -19696034.396 3 -15347528.110 3
  24513393.731    -2778131.558 2  -2164764.108 1
 91  5 21 21 51 15.0020000  0  4 02 13 06 15
  21621420.902   -12295530.085 4  -9580910.932 3
  21968575.168    -8218169.607 3  -6403749.569 1
  21142381.032   -19688950.667 3 -15342008.323 3
  24515485.384    -2767115.267 2  -2156179.996 1
 91  5 21 21 51 30.0020000  0  4 02 13 06 15
  21625704.634   -12273010.424 4  -9563363.156 3
  21961619.991    -8254708.267 3  -6432221.166 1
  21143748.388   -19681762.741 3 -15336407.332 3
  24517607.609    -2755956.770 2  -2147485.030 1
 91  5 21 21 51 45.0020000  0  4 02 13 06 15
  21630003.661   -12250437.688 4  -9545774.023 3
  21954692.978    -8291128.500 3  -6460600.491 1
  21145136.125   -19674471.447 3 -15330725.798 3
  24519756.229    -2744657.036 2  -2138680.031 1
 91  5 21 21 52  0.0020000  0  4 02 13 06 15
  21634310.479   -12227811.022 4  -9528142.856 3
  21947782.169    -8327429.270 3  -6488886.743 1
  21146542.752   -19667075.690 4 -15324962.873 3
  24521938.413    -2733214.780 2  -2129763.984 1
 91  5 21 21 52 15.0020000  0  4 02 13 06 15
  21638626.293   -12205113.863 4  -9510456.760 3
  21940901.626    -8363593.683 3  -6517066.738 1
  21147971.262   -19659558.873 3 -15319105.603 3
  24524148.789    -2721613.672 2  -2120724.123 1
 91  5 21 21 52 30.0020000  0  4 02 13 06 15
  21642958.293   -12182358.786 4  -9492725.539 3
  21934041.178    -8399633.896 3  -6545149.948 1
  21149423.155   -19651933.073 3 -15313163.423 3
  24526378.045    -2709866.076 2  -2111570.169 1
 91  5 21 21 52 45.0020000  0  4 02 13 06 15
  21647297.787   -12159550.262 4  -9474952.669 3
  21927206.809    -8435554.136 3  -6573139.669 1
  21150893.039   -19644202.571 3 -15307139.651 3
  24528645.675    -2697976.442 2  -2102305.499 1
 91  5 21 21 53  0.0020000  0  4 02 13 06 15
  21651648.379   -12136689.484 4  -9457139.082 3
  21920394.628    -8471355.062 3  -6601036.422 2
  21152386.010   -19636368.195 3 -15301034.938 3
  24530930.694    -2685945.824 2  -2092930.959 1
 91  5 21 21 53 15.0020000  0  4 02 13 06 15
  21656008.255   -12113774.049 4  -9439282.896 3
  21913605.525    -8507034.284 3  -6628838.339 2
  21153896.065   -19628427.697 3 -15294847.537 3
  24533250.185    -2673772.046 2  -2083444.926 1
 91  5 21 21 53 30.0020000  0  4 02 13 06 15
  21660378.932   -12090805.050 4  -9421384.990 3
  21906838.007    -8542592.108 3  -6656545.664 2
  21155427.400   -19620381.853 3 -15288578.042 3
  24535593.366    -2661456.082 2  -2073848.042 1
 91  5 21 21 53 45.0020000  0  4 02 13 06 15
  21664761.301   -12067782.924 4  -9403445.677 3
  21900095.077    -8578028.866 3  -6684158.651 2
  21156980.330   -19612230.790 3 -15282226.558 3
  24537962.625    -2648998.275 2  -2064140.634 1
 91  5 21 21 54  0.0020000  0  4 02 13 06 15
  21669151.759   -12044707.565 4  -9385464.884 3
  21893375.531    -8613344.066 3  -6711676.913 2
  21158550.343   -19603974.209 3 -15275792.861 3
  24540357.362    -2636398.466 2  -2054322.577 1
 91  5 21 21 54 15.0020000  0  4 02 13 06 15
  21673553.611   -12021578.769 4  -9367442.452 3
  21886677.265    -8648537.387 3  -6739100.222 1
  21160141.637   -19595611.781 3 -15269276.686 3
  24542782.384    -2623656.465 2  -2044393.722 1
 91  5 21 21 54 30.0020000  0  4 02 13 06 15
  21677964.154   -11998395.657 4  -9349377.702 3
  21880001.492    -8683607.727 3  -6766427.701 1
  21161751.524   -19587142.509 3 -15262677.250 3
  24545239.183    -2610771.512 2  -2034353.507 1
 91  5 21 21 54 45.0020000  0  4 02 13 06 15
  21682385.498   -11975159.174 4  -9331271.359 3
  21873349.094    -8718555.525 3  -6793659.688 1
  21163384.193   -19578566.883 3 -15255994.948 3
  24547713.074    -2597744.275 2  -2024202.464 1
 91  5 21 21 55  0.0020000  0  4 02 13 06 15
  21686817.033   -11951869.377 4  -9313123.473 3
  21866725.480    -8753380.675 3  -6820796.095 2
  21165038.151   -19569885.137 3 -15249229.952 3
  24550219.938    -2584574.932 2  -2013940.614 1
 91  5 21 21 55 15.0020000  0  4 02 13 06 15
  21691262.650   -11928527.497 4  -9294934.997 3
  21860121.349    -8788083.990 3  -6847837.574 1
  21166706.191   -19561098.017 3 -15242382.845 3
  24552757.679    -2571264.590 2  -2003568.925 1
 91  5 21 21 55 30.0020000  0  4 02 13 06 15
  21695712.770   -11905131.175 4  -9276704.105 3
  21853540.610    -8822662.862 3  -6874782.068 2
  21168401.218   -19552203.146 3 -15235451.773 3
  24555319.406    -2557810.988 2  -1993085.623 1
 91  5 21 21 55 45.0020000  0  4 02 13 06 15
  21700173.979   -11881682.811 4  -9258432.662 3
  21846984.144    -8857119.351 3  -6901631.205 2
  21170115.737   -19543202.627 3 -15228438.380 3
  24557904.219    -2544216.337 2  -1982492.375 1
 91  5 21 21 56  0.0020000  0  4 02 13 06 15
  21704646.889   -11858181.489 4  -9240119.948 3
  21840451.969    -8891452.467 3  -6928384.217 2
  21171848.238   -19534095.326 3 -15221341.786 3
  24560519.902    -2530479.446 2  -1971788.281 1
 91  5 21 21 56 15.0020000  0  4 02 13 06 15
  21709129.379   -11834625.760 4  -9221764.841 3
  21833942.279    -8925660.156 3  -6955039.513 2
  21173602.918   -19524879.483 3 -15214160.614 3
  24563154.781    -2516599.175 2  -1960972.476 1
 91  5 21 21 56 30.0020000  0  4 02 13 06 15
  21713620.873   -11811016.499 4  -9203368.023 3
  21827457.167    -8959742.821 3  -6981597.364 2
  21175377.693   -19515556.044 3 -15206895.600 3
  24565827.735    -2502576.303 2  -1950045.537 1
 91  5 21 21 56 45.0020000  0  4 02 13 06 15
  21718125.856   -11787353.412 4  -9184929.258 3
  21820994.244    -8993700.169 3  -7008057.572 2
  21177172.247   -19506124.181 3 -15199546.093 3
  24568515.671    -2488410.676 2  -1939007.395 1
